     2              OBSERVATION DATA    GPS                 RINEX VERSION / TYPE
teqc 2000Feb29 20010702 15:28:22UTC                         PGM / RUN BY / DATE
                                                            COMMENT
L2: 1 -> 1; 150 -> 5; 250 -> 9                              COMMENT
L2: 1 -> 1; 150 -> 5; 250 -> 9                              COMMENT
L2: 1 -> 1; 150 -> 5; 250 -> 9                              COMMENT
L2: 1 -> 1; 150 -> 5; 250 -> 9                              COMMENT
L2: 1 -> 1; 150 -> 5; 250 -> 9                              COMMENT
Original Marker Name: PAXU                                  COMMENT
Campaign Name: Post Hector Surveys                          COMMENT
4-Character Station Name: PAXU                              COMMENT
6-Character Antenna Code: DMRCHT                            COMMENT
Vertical Measurement Point: BCR                             COMMENT
Vertical Offset to Rinex Ref. Point: 0.0348                 COMMENT
Radial Measurement Point: ECF                               COMMENT
Radial Offset to Rinex Ref. Point: 0.1897                   COMMENT
Antenna Height from Field Measurement: 1.0550 m             COMMENT
Additional Antenna Identification Info.:                    COMMENT
Turborogue and Ashtech Choke Ring                           COMMENT
Monument disk found knocked off. Antenna                    COMMENT
setup is referenced to the center of the                    COMMENT
remaining shank of the disk. Horizontal offset              COMMENT
could be 0 to a few mm.                                     COMMENT
Original XYZ: 0.0000 0.0000 0.0000                          COMMENT
New XYZ position is based on association with SCEC monument COMMENT
E1D0X3Y9+0101. Position of that monument is believed to be  COMMENT
valid to within 1 m horizontally; vertical accuracy         COMMENT
should be no worse than 3-times this value.                 COMMENT
                                                            COMMENT
Revised Rinex header created by UCSD GPS archive for        COMMENT
GSAC on 18-Sep-2001 (2001:261) 20:57:25 GMT                 COMMENT
For assistance contact dagnew@ucsd.edu                      COMMENT
or anderson@python.ucsd.edu                                 COMMENT
                                                            COMMENT
disk shank                                                  MARKER NAME
HML UNIV CALIF LOS ANGELES                                  OBSERVER / AGENCY
192 ASHTECH Z-XII3 CD00                                     REC # / TYPE / VERS
364 DORNE-MARGOL. TYPE T                                    ANT # / TYPE
 -2348920.5617 -4733956.0077  3561150.9383                  APPROX POSITION XYZ
        1.0030        0.0000        0.0000                  ANTENNA: DELTA H/E/N
     1     1     0                                          WAVELENGTH FACT L1/2
     7    C1    L1    L2    P1    P2    S1    S2            # / TYPES OF OBSERV
     0                                                      INTERVAL
  2001     6    20    20    26    0.000000                  TIME OF FIRST OBS
  2001     6    20    23    59    0.000000                  TIME OF LAST OBS
                                                            END OF HEADER
 01  6 20 20 26  0.0000000  0  1G14
                   -551083.69359   -414845.23543
       220.000          82.000
 01  6 20 20 26 30.0000000  0  3G14G15G17
                   -738385.91549   -560794.16445                  23393886.775
       221.000         147.000
  20967685.772     -113167.00159    -82751.41247  20967684.594    20967691.057
       243.000         209.000
                    -48964.61959    -37803.87843
       237.000          74.000
 01  6 20 20 27  0.0000000  0  3G14G15G17
  23373353.007     -846247.88549   -644842.23145  23373352.025    23373361.748
       222.000         162.000
  20968612.977     -108295.41849    -78955.37047  20968611.732    20968617.959
       244.000         210.000
                    -19056.27949    -16048.88643
       236.000          74.000
 01  6 20 20 27 30.0000000  0  3G14G15G17
  22453484.549    -4104769.61449  -3183949.86446  22453483.207    22453493.072
       224.000         166.000
  20070218.184    -3253971.51349  -2530131.54847  20070216.958    20070223.328
       243.000         209.000
                  -3139702.02349  -2447704.65646                  20701336.940
       236.000         185.000
 01  6 20 20 28  0.0000000  0  4G14G15G17G18
  22748404.881    -2554953.22249  -1976300.51646  22748403.198    22748412.839
       222.000         167.000
  20386628.043    -1591225.72049  -1234485.46047  20386626.822    20386633.033
       243.000         209.000
  21022501.151    -1451938.24349  -1132564.06147  21022500.746    21022507.641
       238.000         196.000
                  -4613863.96759  -3596042.77943
       241.000          74.000
 01  6 20 20 28 29.9990000  0  4G14G15G17G18
  22700081.551    -1233472.72449   -946575.23946  22700080.371    22700090.314
       222.000         167.000
  20359813.309     -156717.83949   -116687.10547  20359812.065    20359818.860
       243.000         209.000
  21000445.632        7578.50749      4721.70847  21000444.925    21000452.131
       237.000         197.000
                     -7072.02049      -530.88147                  20669027.155
       241.000         192.000
 01  6 20 20 29  0.0000000  0  4G14G15G17G18
  22723705.225      466091.46549    377760.68846  22723704.647    22723713.111
       223.000         167.000
  20404965.067     1655976.24549   1295801.79647  20404963.897    20404970.420
       243.000         209.000
  21050354.800     1845273.20549   1436691.58547  21050353.593    21050361.107
       235.000         197.000
  20718236.107    -1323873.00349  -1026609.56947  20718235.384    20718240.610
       241.000         206.000
 01  6 20 20 29 30.0000000  0  4G14G15G17G18
  22707003.070      378321.30949    309368.55346  22707001.920    22707011.120
       223.000         167.000
  20409808.063     1681426.67349   1315633.29947  20409806.985    20409813.678
       243.000         209.000
  21059953.290     1895713.53649   1475995.72147  21059952.738    21059959.481
       237.000         197.000
  20727121.403    -1277180.83749   -990226.05147  20727120.813    20727126.057
       242.000         208.000
 01  6 20 20 30  0.0000000  0  5G14G15G17G18G21
  22689083.492      284153.79049    235991.45546  22689082.305    22689091.550
       223.000         167.000
  20413451.351     1700572.42949   1330552.07547  20413450.302    20413457.130
       243.000         209.000
  21068350.142     1939839.01149   1510379.19247  21068349.415    21068356.495
       236.000         197.000
  20734786.922    -1236898.46249   -958837.18447  20734786.266    20734791.415
       241.000         209.000
  21556283.456    -1386945.79459  -1055823.04247  21556282.536    21556290.119
       239.000         198.000
 01  6 20 20 30 30.0000000  0  6G14G23G15G17G18G21
  22670520.133      186603.63149    159978.53646  22670518.617    22670527.227
       223.000         167.000
  21712392.778    -1144299.67359   -894676.96947  21712392.144    21712398.953
       236.000         195.000
  20416468.303     1716426.53749   1342905.92947  20416467.384    20416474.019
       243.000         209.000
  21076118.540     1980662.33449   1542189.56447  21076117.997    21076124.850
       237.000         197.000
  20741805.632    -1200014.85749   -930096.71647  20741805.007    20741810.354
       241.000         209.000
  21551764.864    -1410687.82049  -1074323.28847  21551764.724    21551771.700
       240.000         199.000
 01  6 20 20 31  0.0000000  0  6G14G23G15G17G18G21
  22651626.887       87319.19049     82614.23446  22651625.606    22651634.308
       224.000         168.000
  21722158.859    -1092980.87349   -854688.30247  21722157.883    21722164.645
       235.000         195.000
  20419172.263     1730635.91849   1353978.18247  20419171.152    20419177.757
       243.000         209.000
  21083572.004     2019830.04049   1572709.84847  21083571.227    21083577.929
       237.000         197.000
  20748490.590    -1164885.43149   -902723.13847  20748489.689    20748495.310
       241.000         209.000
  21546905.744    -1436223.66249  -1094221.30847  21546905.058    21546912.684
       238.000         199.000
 01  6 20 20 31 30.0000000  0  6G14G23G15G17G18G21
  22632575.790      -12793.94549      4604.17946  22632574.605    22632583.417
       225.000         169.000
  21731737.463    -1042643.91949   -815464.71447  21731736.672    21731742.994
       235.000         194.000
  20421735.153     1744104.14349   1364472.90447  20421734.318    20421740.901
       243.000         209.000
  21090882.203     2058245.34249   1602643.83147  21090881.247    21090888.527
       236.000         196.000
  20755013.263    -1130608.70349   -876013.99547  20755012.364    20755017.749
       242.000         209.000
  21541876.727    -1462651.61949  -1114814.48847  21541876.010    21541883.864
       240.000         199.000
 01  6 20 20 32  0.0000000  0  6G14G23G15G17G18G21
  22613460.895     -113243.59049    -73668.08546  22613460.287    22613468.802
       225.000         169.000
  21741222.418     -992800.27649   -776625.51947  21741221.745    21741228.598
       236.000         194.000
  20424250.399     1757321.93949   1374772.49347  20424249.306    20424256.403
       243.000         209.000
  21098142.533     2096398.66149   1632373.67347  21098141.680    21098148.885
       235.000         196.000
  20761466.648    -1096695.88049   -849588.41747  20761465.876    20761471.228
       241.000         208.000
  21536771.152    -1489482.29149  -1135721.46647  21536770.424    21536777.666
       238.000         199.000
 01  6 20 20 32 30.0000000  0  6G14G23G15G17G18G21
  22594333.587     -213757.87249   -151990.72046  22594332.119    22594341.844
       224.000         170.000
  21750664.611     -943181.66549   -737961.68547  21750663.889    21750670.692
       235.000         195.000
  20426769.462     1770559.50149   1385087.47647  20426768.522    20426775.208
       243.000         209.000
  21105404.392     2134559.99049   1662109.75347  21105403.493    21105410.794
       236.000         196.000
  20767901.714    -1062879.36749   -823237.89147  20767900.921    20767906.201
       241.000         208.000
  21531639.783    -1516447.43649  -1156733.23247  21531639.326    21531646.663
       239.000         199.000
 01  6 20 20 33  0.0000000  0  7G14G 3G23G15G17G18G21
  22575222.464     -314187.06449   -230247.06446  22575221.220    22575230.412
       224.000         170.000
  21907805.177    -1237782.47259   -949775.32446  21907804.453    21907812.181
       232.000         187.000
  21760091.808     -893641.78049   -699359.19047  21760090.952    21760097.384
       236.000         194.000
  20429320.486     1783964.93549   1395533.27047  20429319.666    20429326.249
       243.000         209.000
  21112696.038     2172877.30149   1691967.37547  21112695.945    21112702.668
       237.000         196.000
  20774346.289    -1029012.96549   -796848.48747  20774345.710    20774351.059
       240.000         208.000
  21526511.017    -1543399.86249  -1177735.08747  21526510.567    21526517.843
       239.000         200.000
 01  6 20 20 33 30.0000000  0  7G14G 3G23G15G17G18G21
  22556143.156     -414449.22449   -308373.24246  22556141.648    22556150.189
       223.000         171.000
  21900818.512    -1274496.71749   -978383.80646  21900818.269    21900825.460
       233.000         187.000
  21769518.850     -844102.28449   -660756.99847  21769518.106    21769524.724
       235.000         195.000
  20431918.678     1797618.66449   1406172.53847  20431917.818    20431924.455
       242.000         209.000
  21120032.584     2211430.29649   1722008.64747  21120031.686    21120038.654
       235.000         196.000
  20780815.258     -995018.23349   -770359.09147  20780814.751    20780820.184
       241.000         208.000
  21521399.546    -1570260.82549  -1198665.67047  21521398.806    21521405.936
       239.000         199.000
 01  6 20 20 34  0.0000000  0  7G14G 3G23G15G17G18G21
  22537103.962     -514499.72549   -386334.51046  22537103.088    22537111.759
       224.000         171.000
  21893923.878    -1310729.61849  -1006617.21946  21893922.743    21893930.983
       232.000         187.000
  21778953.624     -794522.23449   -622123.21347  21778952.935    21778959.684
       236.000         194.000
  20434572.362     1811563.63449   1417038.74847  20434571.371    20434577.968
       243.000         209.000
  21127421.908     2250261.89349   1752267.02347  21127421.091    21127428.354
       235.000         196.000
  20787316.434     -960854.43949   -743737.95647  20787315.901    20787321.334
       241.000         208.000
  21516313.375    -1596988.87549  -1219492.68547  21516312.617    21516319.823
       239.000         200.000
 01  6 20 20 34 30.0000000  0  7G14G 3G23G15G17G18G21
  22518110.883     -614308.43949   -464107.37446  22518109.917    22518118.496
       225.000         172.000
  21887125.863    -1346452.46649  -1034453.18346  21887124.739    21887133.128
       232.000         187.000
  21788401.191     -744874.90749   -583436.99447  21788400.414    21788407.458
       235.000         194.000
  20437286.846     1825828.21949   1428154.00947  20437285.901    20437292.656
       242.000         209.000
  21134869.692     2289400.04249   1782764.26547  21134868.865    21134876.569
       236.000         196.000
  20793854.809     -926495.29149   -716964.59147  20793854.194    20793859.538
       241.000         208.000
  21511257.688    -1623556.95849  -1240195.05947  21511257.037    21511264.507
       239.000         200.000
 01  6 20 20 35  0.0000000  0  8G14G 3G23G29G15G17G18G21
  22499167.116     -713858.27249   -541678.50146  22499165.852    22499174.969
       224.000         172.000
  21880428.131    -1381649.39349  -1061879.34546  21880427.825    21880435.004
       233.000         187.000
  21797864.170     -695146.68449   -544687.74047  21797863.453    21797870.339
       236.000         194.000
  23218078.366    -1283277.74459   -973769.18545  23218077.939    23218089.403
       214.000         151.000
  20440065.125     1840427.99649   1439530.45847  20440064.258    20440070.802
       243.000         209.000
  21142378.664     2328859.92949   1813512.21447  21142378.006    21142385.118
       236.000         196.000
  20800432.889     -891927.43749   -690028.59947  20800432.450    20800437.581
       241.000         208.000
  21506235.044    -1649951.33749  -1260762.07847  21506234.524    21506241.585
       239.000         200.000
 01  6 20 20 35 30.0000000  0  8G14G 3G23G29G15G17G18G21
  22480274.544     -813138.37449   -619039.46346  22480273.411    22480281.869
       224.000         173.000
  21873832.348    -1416310.73049  -1088888.16347  21873831.582    21873839.527
       232.000         188.000
  21807343.962     -645330.22249   -505869.72347  21807343.071    21807349.869
       236.000         194.000
  23198609.191    -1385575.88349  -1053481.73745  23198610.856    23198623.516
       212.000         154.000
  20442908.948     1855372.14049   1451175.24847  20442908.209    20442914.528
       242.000         208.000
  21149950.663     2368650.52549   1844517.85247  21149950.074    21149957.106
       236.000         196.000
  20807052.041     -857143.80149   -662924.46647  20807051.448    20807056.860
       241.000         208.000
  21501246.956    -1676164.21649  -1281187.66947  21501245.737    21501253.951
       239.000         200.000
 01  6 20 20 36  0.0000000  0  8G14G 3G23G29G15G17G18G21
  22461434.315     -912144.04049   -696186.59246  22461433.433    22461441.549
       226.000         173.000
  21867339.012    -1450433.09949  -1115477.00447  21867338.347    21867346.283
       233.000         188.000
  21816840.764     -595424.54749   -466982.19447  21816840.286    21816846.999
       236.000         194.000
  23179178.768    -1487686.20149  -1133047.95145  23179179.508    23179191.209
       214.000         155.000
  20445818.813     1870663.50849   1463090.59647  20445817.635    20445824.604
       242.000         208.000
  21157586.022     2408774.45249   1875783.22547  21157585.249    21157592.489
       235.000         195.000
  20813712.414     -822143.30549   -635651.35147  20813711.697    20813717.077
       241.000         208.000
  21496293.633    -1702193.91349  -1301470.52847  21496292.746    21496300.152
       238.000         200.000
 01  6 20 20 36 30.0000000  0  9G14G 3G23G29G15G17G18G 9G21
  22442646.644    -1010873.37849   -773118.38846  22442645.230    22442654.435
       225.000         174.000
  21860948.530    -1484015.84449  -1141645.34847  21860948.210    21860954.996
       233.000         188.000
  21826354.302     -545431.11849   -428026.27747  21826353.570    21826360.158
       236.000         194.000
  23159784.722    -1589607.10249  -1212466.55445  23159785.844    23159795.694
       216.000         156.000
  20448794.771     1886302.26949   1475276.64947  20448793.765    20448800.516
       242.000         208.000
  21165284.783     2449231.57049   1907308.23347  21165283.979    21165290.977
       236.000         195.000
  20820413.719     -786927.86949   -608210.74847  20820412.958    20820418.478
       241.000         208.000
  23715899.072    -1047133.71659   -807650.34045  23715897.916    23715906.818
       213.000         146.000
  21491374.998    -1728041.74249  -1321611.65647  21491374.111    21491381.195
       238.000         200.000
 01  6 20 20 37  0.0000000  0  9G14G 3G23G29G15G17G18G 9G21
  22423912.491    -1109321.55249   -849831.10246  22423911.139    22423919.922
       226.000         174.000
  21854661.186    -1517055.57349  -1167390.57547  21854660.633    21854667.840
       233.000         188.000
  21835884.775     -495348.49849   -389000.86747  21835884.032    21835890.889
       236.000         193.000
  23140427.141    -1691333.96949  -1291733.95645  23140427.825    23140438.431
       216.000         157.000
  20451837.498     1902291.89349   1487736.10047  20451836.508    20451843.198
       243.000         208.000
  21173047.545     2490024.97749   1939095.27647  21173046.565    21173053.719
       235.000         194.000
  20827156.156     -751496.27749   -580601.71547  20827155.380    20827160.692
       242.000         208.000
  23707581.856    -1090834.24349   -841702.62945  23707583.142    23707591.763
       215.000         151.000
  21486491.185    -1753706.06149  -1341609.80347  21486490.282    21486498.090
       238.000         200.000
 01  6 20 20 37 30.0000000  0  9G14G 3G23G29G15G17G18G 9G21
  22405232.712    -1207483.75649   -926320.98246  22405231.611    22405239.696
       227.000         175.000
  21848478.025    -1549548.71249  -1192709.88547  21848477.594    21848485.174
       232.000         188.000
  21845432.455     -445175.29749   -349904.87347  21845431.732    21845438.434
       236.000         193.000
  23121106.986    -1792861.86549  -1370846.34945  23121107.221    23121117.959
       216.000         156.000
  20454947.580     1918635.47849   1500471.36047  20454946.825    20454953.406
       242.000         209.000
  21180874.760     2531157.42049   1971146.51347  21180874.296    21180881.077
       235.000         194.000
  20833939.962     -715847.32549   -552823.30847  20833939.474    20833944.699
       241.000         208.000
  23699344.378    -1134127.86249   -875437.82645  23699343.496    23699353.727
       213.000         154.000
  21481642.770    -1779184.84549  -1361463.37247  21481642.129    21481649.737
       239.000         200.000
 01  6 20 20 38  0.0000000  0 10G31G14G 3G23G29G15G17G18G 9G21
                  -1037723.23659   -789648.59144                  24086896.079
       208.000         101.000
  22386608.150    -1305356.72349  -1002585.49246  22386607.364    22386615.323
       227.000         175.000
  21842399.041    -1581493.59549  -1217601.97647  21842398.702    21842406.349
       233.000         188.000
  21854997.289     -394911.70249   -310738.44447  21854996.521    21855002.930
       235.000         193.000
  23101825.198    -1894187.92149  -1449801.44145  23101824.420    23101835.368
       214.000         157.000
  20458125.392     1935334.73949   1513483.76947  20458124.595    20458131.062
       242.000         209.000
  21188766.907     2572630.10949   2003462.87447  21188766.362    21188773.227
       236.000         194.000
  20840765.047     -679981.49049   -524875.90347  20840764.399    20840769.597
       241.000         207.000
  23691183.792    -1177011.12849   -908853.28445  23691182.995    23691191.429
       213.000         152.000
  21476829.691    -1804477.97549  -1381172.27447  21476828.961    21476836.133
       239.000         200.000
 01  6 20 20 38 30.0000000  0 10G31G14G 3G23G29G15G17G18G 9G21
  24071199.546    -1120157.74649   -853883.18145  24071199.136    24071210.896
       207.000         135.000
  22368039.273    -1402936.92749  -1078621.86546  22368038.159    22368046.398
       227.000         175.000
  21836424.939    -1612887.92149  -1242065.07247  21836424.588    21836431.965
       233.000         188.000
  21864579.380     -344557.48749   -271501.40847  21864578.487    21864585.256
       235.000         192.000
  23082582.536    -1995308.81549  -1528596.67545  23082581.611    23082593.250
       216.000         157.000
  20461371.243     1952391.37649   1526774.65447  20461370.568    20461376.906
       243.000         209.000
  21196724.033     2614444.71949   2036045.66347  21196723.304    21196730.508
       235.000         194.000
  20847631.318     -643899.04449   -496759.71747  20847630.576    20847635.853
       241.000         207.000
  23683102.281    -1219480.22849   -941946.01745  23683102.419    23683110.464
       216.000         153.000
  21472051.943    -1829585.15549  -1400736.28147  21472051.378    21472058.735
       239.000         201.000
 01  6 20 20 39  0.0000000  0 10G31G14G 3G23G29G15G17G18G 9G21
  24055580.687    -1202235.44249   -917839.76245  24055580.638    24055591.310
       209.000         139.000
  22349525.475    -1500226.60949  -1154431.87446  22349524.536    22349531.928
       226.000         175.000
  21830554.860    -1643735.29449  -1266101.96747  21830554.262    21830562.202
       233.000         188.000
  21874177.633     -294118.38249   -232198.21847  21874176.793    21874183.542
       234.000         192.000
  23063378.414    -2096226.85549  -1607233.85545  23063377.866    23063388.270
       217.000         158.000
  20464684.360     1969801.66049   1540341.10447  20464683.514    20464689.995
       242.000         208.000
  21204745.346     2656597.05749   2068891.62447  21204744.461    21204752.184
       234.000         193.000
  20854537.720     -607605.55249   -468479.08047  20854537.134    20854542.365
       241.000         207.000
  23675099.223    -1261537.36149   -974717.71845  23675097.901    23675107.051
       214.000         154.000
  21467308.607    -1854511.33349  -1420159.25347  21467307.912    21467314.980
       239.000         200.000
 01  6 20 20 39 30.0000000  0 10G31G14G 3G23G29G15G17G18G 9G21
  24040031.032    -1283952.78049   -981515.54645  24040030.973    24040041.596
       209.000         141.000
  22331067.763    -1597222.26449  -1230012.77946  22331066.434    22331074.624
       228.000         175.000
  21824789.369    -1674033.52149  -1289710.96247  21824788.563    21824795.965
       233.000         188.000
  21883792.096     -243594.33649   -192828.84947  21883791.376    21883798.159
       234.000         191.000
  23044213.456    -2196938.59949  -1685710.30345  23044212.404    23044223.582
       217.000         159.000
  20468065.116     1987567.59149   1554184.67547  20468064.154    20468070.810
       242.000         208.000
  21212831.225     2699088.52249   2102001.82247  21212830.433    21212837.104
       235.000         193.000
  20861484.329     -571101.24149   -440034.17547  20861483.925    20861488.937
       241.000         207.000
  23667175.076    -1303179.03049  -1007165.69545  23667174.656    23667182.725
       212.000         154.000
  21462599.775    -1879256.62549  -1439441.27047  21462598.922    21462606.286
       240.000         200.000
 01  6 20 20 40  0.0000000  0 10G31G14G 3G23G29G15G17G18G 9G21
  24024550.438    -1365306.19049  -1044907.73545  24024551.069    24024559.984
       209.000         143.000
  22312666.719    -1693920.29049  -1305361.75446  22312665.413    22312673.147
       228.000         176.000
  21819128.752    -1703780.55849  -1312890.45147  21819127.942    21819135.376
       233.000         188.000
  21893422.632     -192985.20449   -153393.18747  21893422.209    21893428.749
       235.000         191.000
  23025088.292    -2297440.84149  -1764023.48545  23025088.313    23025098.090
       216.000         159.000
  20471513.814     2005690.83149   1568306.68547  20471512.847    20471519.436
       242.000         208.000
  21220981.917     2741920.53249   2135377.39647  21220981.400    21220988.334
       235.000         193.000
  20868471.015     -534386.28049   -411425.11947  20868470.379    20868475.571
       241.000         207.000
  23659330.569    -1344401.40949  -1039286.94045  23659329.837    23659338.826
       215.000         154.000
  21457925.595    -1903819.83549  -1458581.41047  21457925.038    21457932.026
       241.000         201.000
 01  6 20 20 40 30.0000000  0 10G31G14G 3G23G29G15G17G18G 9G21
  24009139.671    -1446291.64349  -1108013.21445  24009140.118    24009148.976
       210.000         142.000
  22294322.812    -1790317.07649  -1380476.01346  22294321.742    22294330.348
       228.000         176.000
  21813573.406    -1732974.12549  -1335638.68247  21813573.178    21813580.132
       234.000         188.000
  21903069.600     -142290.40049   -113890.75247  21903068.631    21903075.502
       235.000         191.000
  23006003.831    -2397729.81949  -1842170.49245  23006002.926    23006013.628
       218.000         160.000
  20475030.968     2024173.70849   1582708.91747  20475030.281    20475036.501
       242.000         208.000
  21229197.861     2785095.25249   2169020.00347  21229197.512    21229204.390
       235.000         193.000
  20875497.812     -497460.44049   -382651.74047  20875497.094    20875502.423
       240.000         207.000
  23651566.879    -1385200.47849  -1071078.35745  23651566.321    23651575.294
       214.000         155.000
  21453286.094    -1928200.75449  -1477579.50847  21453285.330    21453292.524
       241.000         201.000
 01  6 20 20 41  0.0000000  0 10G31G14G 3G23G29G15G17G18G 9G21
  23993799.542    -1526906.61449  -1170830.02245  23993799.468    23993807.805
       208.000         141.000
  22276037.057    -1886409.69149  -1455353.23946  22276035.901    22276043.754
       229.000         177.000
  21808123.706    -1761613.03549  -1357954.69947  21808123.071    21808130.794
       234.000         188.000
  21912732.702      -91510.44549    -74321.97247  21912731.781    21912738.810
       235.000         191.000
  22986960.614    -2497802.99549  -1920149.33245  22986959.089    22986969.641
       216.000         160.000
  20478616.839     2043017.14049   1597392.10547  20478616.129    20478622.659
       243.000         208.000
  21237479.209     2828613.40449   2202930.22647  21237477.990    21237485.385
       235.000         193.000
  20882564.495     -460324.76049   -353714.85547  20882563.712    20882569.069
       241.000         207.000
  23643884.136    -1425573.38649  -1102537.68145  23643883.450    23643891.156
       214.000         153.000
  21448681.200    -1952399.60149  -1496435.72947  21448680.308    21448687.399
       241.000         201.000
 01  6 20 20 41 30.0000000  0 10G31G14G 3G23G29G15G17G18G 9G21
  23978529.952    -1607149.22949  -1233356.68445  23978528.880    23978537.498
       205.000         139.000
  22257809.418    -1982196.16649  -1529991.92846  22257808.580    22257815.660
       228.000         177.000
  21802779.558    -1789696.68149  -1379838.05247  21802779.060    21802786.089
       233.000         188.000
  21922411.781      -40646.71649    -34687.92247  21922410.821    21922417.874
       233.000         191.000
  22967958.525    -2597658.46849  -1997958.54245  22967957.524    22967968.240
       219.000         160.000
  20482271.379     2062221.45249   1612356.49347  20482270.599    20482277.160
       243.000         209.000
  21245825.751     2872474.81049   2237107.91847  21245824.991    21245831.879
       235.000         193.000
  20889670.879     -422980.63449   -324615.54947  20889670.562    20889675.581
       241.000         207.000
  23636282.989    -1465518.04849  -1133663.31245  23636281.283    23636291.691
       212.000         154.000
  21444110.866    -1976416.89849  -1515150.48447  21444110.241    21444117.408
       241.000         201.000
 01  6 20 20 42  0.0000000  0 10G31G14G 3G23G29G15G17G18G 9G21
  23963331.404    -1687016.93649  -1295591.17245  23963328.683    23963339.990
       204.000         137.000
  22239640.392    -2077674.33749  -1604390.38346  22239639.628    22239647.359
       229.000         178.000
  21797541.317    -1817224.21249  -1401288.07347  21797540.787    21797548.011
       234.000         189.000
  21932106.583       10299.67649      5010.55147  21932105.629    21932113.085
       234.000         190.000
  22948998.286    -2697294.41949  -2075596.70045  22948997.660    22949007.188
       217.000         160.000
  20485994.709     2081787.25649   1627602.56647  20485993.872    20486000.509
       243.000         208.000
  21254237.759     2916679.84949   2271553.37147  21254237.018    21254244.503
       235.000         193.000
  20896816.688     -385429.45049   -295354.89247  20896816.025    20896821.508
       242.000         207.000
  23628763.535    -1505031.82349  -1164453.19145  23628764.557    23628770.971
       217.000         154.000
  21439574.920    -2000253.62449  -1533724.52647  21439573.932    21439581.216
       241.000         201.000
 01  6 20 20 42 30.0000000  0 10G31G14G 3G23G29G15G17G18G 9G21
  23948204.669    -1766507.12249  -1357531.46445  23948202.354    23948212.332
       204.000         137.000
  22221530.570    -2172841.79049  -1678546.71546  22221529.795    22221537.059
       229.000         178.000
  21792408.949    -1844194.77449  -1422304.08147  21792408.340    21792415.696
       234.000         189.000
  21941817.022       61327.82149     44772.73447  21941816.477    21941823.115
       234.000         190.000
  22930080.174    -2796708.43449  -2153061.90545  22930078.597    22930089.131
       217.000         160.000
  20489786.942     2101715.39349   1643130.98347  20489785.946    20489792.435
       242.000         208.000
  21262715.091     2961228.85049   2306266.85847  21262714.369    21262721.725
       234.000         193.000
  20904001.657     -347672.43849   -265933.84747  20904000.671    20904006.300
       241.000         207.000
  23621326.856    -1544112.43449  -1194905.54145  23621325.687    23621333.905
       216.000         153.000
  21435073.139    -2023910.64449  -1552158.54247  21435072.428    21435079.386
       241.000         201.000
 01  6 20 20 43  0.0000000  0 10G31G14G 3G23G29G15G17G18G 9G21
  23933150.151    -1845618.19149  -1419176.37645  23933149.715    23933159.484
       211.000         142.000
  22203480.317    -2267696.78749  -1752459.57646  22203479.021    22203486.616
       229.000         179.000
  21787382.713    -1870608.02949  -1442885.83647  21787382.139    21787389.425
       234.000         189.000
  21951542.642      112436.16349     84597.39447  21951541.774    21951548.520
       232.000         190.000
  22911204.646    -2895898.85849  -2230352.91845  22911203.874    22911214.191
       218.000         161.000
  20493648.170     2122006.22349   1658942.02347  20493647.063    20493653.605
       241.000         208.000
  21271257.996     3006121.58749   2341248.18247  21271257.495    21271264.045
       235.000         193.000
  20911225.438     -309711.38549   -236353.81047  20911224.471    20911229.801
       241.000         207.000
  23613972.943    -1582758.19849  -1225019.01445  23613972.317    23613981.500
       215.000         155.000
  21430605.267    -2047389.59849  -1570453.80447  21430604.231    21430611.322
       240.000         202.000
 01  6 20 20 43 30.0000000  0 10G31G14G 3G23G29G15G17G18G 9G21
  23918168.802    -1924348.13749  -1480524.32645  23918168.606    23918177.112
       211.000         145.000
  22185489.741    -2362237.43849  -1826127.49746  22185488.746    22185496.480
       229.000         179.000
  21782462.528    -1896463.81149  -1463033.19347  21782461.975    21782469.126
       234.000         190.000
  21961283.198      163623.20249    124483.37347  21961282.600    21961289.542
       234.000         190.000
  22892371.936    -2994864.08049  -2307468.44645  22892371.421    22892381.494
       219.000         161.000
  20497578.357     2142659.83949   1675035.75047  20497577.223    20497583.825
       242.000         208.000
  21279866.225     3051357.85649   2376497.20447  21279865.436    21279872.789
       234.000         193.000
  20918487.737     -271547.80849   -206615.96847  20918487.213    20918492.552
       241.000         207.000
  23606701.849    -1620967.21549  -1254792.22845  23606701.061    23606709.798
       215.000         155.000
  21426171.071    -2070691.33949  -1588610.98547  21426170.301    21426177.283
       241.000         202.000
 01  6 20 20 44  0.0000000  0 10G31G14G 3G23G29G15G17G18G 9G21
  23903259.925    -2002695.00049  -1541573.73045  23903258.938    23903267.996
       212.000         147.000
  22167559.377    -2456461.80049  -1899548.95546  22167558.249    22167565.704
       229.000         179.000
  21777648.494    -1921761.66249  -1482745.80847  21777647.938    21777655.251
       234.000         190.000
  21971038.595      214887.82149    164429.82047  21971038.267    21971044.315
       234.000         191.000
  22873582.656    -3093602.15649  -2384406.97745  22873581.659    22873592.570
       219.000         161.000
  20501577.700     2163676.54549   1691412.40447  20501576.724    20501583.433
       241.000         208.000
  21288539.871     3096937.80849   2412014.02747  21288539.211    21288546.349
       235.000         193.000
  20925788.284     -233183.46049   -176721.67347  20925787.699    20925792.920
       241.000         207.000
  23599514.583    -1658737.06049  -1284223.17545  23599513.896    23599522.778
       215.000         155.000
  21421770.509    -2093816.44549  -1606630.51647  21421769.797    21421776.656
       241.000         202.000
 01  6 20 20 44 30.0000000  0 10G31G14G 3G23G29G15G17G18G 9G21
  23888424.620    -2080655.96549  -1602322.46845  23888424.008    23888432.180
       212.000         148.000
  22149689.786    -2550366.79049  -1972721.55246  22149688.909    22149696.509
       230.000         180.000
  21772940.973    -1946499.88449  -1502022.34247  21772940.597    21772948.296
       235.000         190.000
  21980808.715      266230.02049    204436.70947  21980807.933    21980815.008
       233.000         190.000
  22854837.015    -3192110.18349  -2461166.25245  22854836.326    22854845.677
       219.000         162.000
  20505646.384     2185057.44649   1708072.84347  20505645.537    20505651.927
       242.000         208.000
  21297279.100     3142862.44049   2447799.43347  21297278.311    21297285.465
       234.000         192.000
  20933126.957     -194618.84149   -146671.33247  20933126.378    20933131.506
       242.000         207.000
  23592411.385    -1696064.55249  -1313309.44145  23592410.074    23592418.064
       216.000         156.000
  21417403.630    -2116764.50349  -1624512.08847  21417402.841    21417409.806
       241.000         201.000
 01  6 20 20 45  0.0000000  0 10G31G14G 3G23G29G15G17G18G 9G21
  23873662.961    -2158228.31849  -1662768.38945  23873660.219    23873671.169
       210.000         147.000
  22131881.379    -2643950.00949  -2045643.42946  22131880.758    22131887.503
       230.000         180.000
  21768340.088    -1970677.94949  -1520862.39447  21768339.622    21768347.060
       234.000         191.000
  21990593.475      317649.01549    244503.44047  21990592.919    21990599.119
       234.000         190.000
  22836135.771    -3290385.96449  -2537744.54445  22836135.153    22836144.903
       219.000         162.000
  20509784.614     2206803.64349   1725017.93047  20509783.842    20509790.254
       242.000         208.000
  21306083.952     3189132.26249   2483853.81447  21306083.036    21306090.507
       233.000         192.000
  20940503.590     -155854.71249   -116465.52747  20940502.921    20940507.961
       241.000         207.000
  23585392.577    -1732947.19649  -1342049.11445  23585392.562    23585400.918
       216.000         156.000
  21413070.247    -2139536.53849  -1642256.49647  21413069.490    21413076.441
       241.000         202.000
 01  6 20 20 45 30.0000000  0 10G31G14G 3G23G29G15G17G18G 9G21
  23858975.294    -2235409.24149  -1722909.26445  23858973.536    23858982.998
       212.000         146.000
  22114134.816    -2737208.73749  -2118312.44546  22114133.404    22114141.215
       230.000         181.000
  21763845.974    -1994294.68749  -1539265.03747  21763845.134    21763852.695
       234.000         191.000
  22000392.696      369143.94449    284629.35047  22000392.026    22000398.770
       234.000         190.000
  22817479.089    -3388426.94849  -2614139.90346  22817477.779    22817488.081
       219.000         163.000
  20513992.529     2228916.05249   1742248.37447  20513991.609    20513997.882
       243.000         208.000
  21314954.565     3235747.67449   2520177.48047  21314954.314    21314960.813
       234.000         191.000
  20947917.909     -116892.20449    -86105.14047  20947917.269    20947922.266
       241.000         207.000
  23578459.330    -1769382.66549  -1370440.31845  23578457.583    23578465.806
       215.000         157.000
  21408770.293    -2162132.84049  -1659863.97347  21408769.417    21408776.644
       241.000         202.000
 01  6 20 20 46  0.0000000  0 10G31G14G 3G23G29G15G17G18G 9G21
  23844363.315    -2312196.44849  -1782743.40345  23844363.241    23844371.967
       215.000         146.000
  22096450.299    -2830140.83649  -2190726.94946  22096448.917    22096456.862
       230.000         181.000
  21759458.775    -2017349.47749  -1557229.80747  21759458.181    21759466.095
       234.000         190.000
  22010206.156      420713.81949    324813.64547  22010205.462    22010212.048
       234.000         190.000
  22798867.285    -3486231.35249  -2690350.90946  22798866.033    22798876.134
       218.000         163.000
  20518270.198     2251395.16049   1759764.55547  20518269.228    20518275.585
       242.000         208.000
  21323891.045     3282708.88649   2556770.60747  21323890.168    21323897.222
       232.000         191.000
  20955369.725      -77732.70649    -55591.25147  20955369.060    20955374.134
       242.000         206.000
  23571611.338    -1805368.48649  -1398481.13945  23571611.103    23571618.448
       213.000         155.000
  21404503.581    -2184554.41849  -1677335.30847  21404503.011    21404510.080
       241.000         202.000
 01  6 20 20 46 30.0000000  0 10G31G14G 3G23G29G15G17G18G 9G21
  23829826.679    -2388588.26449  -1842269.42245  23829826.844    23829836.160
       217.000         149.000
  22078828.261    -2922745.00349  -2262885.92546  22078827.536    22078835.250
       229.000         182.000
  21755178.644    -2039842.07949  -1574756.51047  21755177.624    21755185.597
       234.000         190.000
  22020033.652      472357.14349    365055.18347  22020032.569    22020039.650
       233.000         190.000
  22780300.842    -3583797.32649  -2766376.13446  22780300.366    22780309.804
       220.000         164.000
  20522617.605     2274240.80849   1777566.35847  20522616.368    20522622.893
       242.000         207.000
  21332893.236     3330015.65849   2593632.99347  21332892.546    21332899.562
       234.000         190.000
  20962858.722      -38377.79149    -24925.08547  20962858.025    20962863.190
       241.000         206.000
  23564849.033    -1840903.20049  -1426170.48945  23564847.995    23564856.785
       212.000         153.000
  21400270.019    -2206802.32149  -1694671.30147  21400269.192    21400276.163
       242.000         202.000
 01  6 20 20 47  0.0000000  0 10G31G14G 3G23G29G15G17G18G 9G21
  23815365.735    -2464582.23549  -1901485.43945  23815364.826    23815374.681
       217.000         152.000
  22061269.051    -3015018.61049  -2334787.32946  22061268.182    22061275.936
       231.000         182.000
  21751005.496    -2061772.03749  -1591844.77647  21751005.142    21751012.327
       235.000         190.000
  22029874.861      524073.31449    405353.46947  22029874.155    22029881.136
       233.000         189.000
  22761780.383    -3681122.80049  -2842213.95546  22761779.698    22761788.901
       220.000         165.000
  20527034.880     2297454.04149   1795654.58847  20527033.990    20527040.533
       242.000         207.000
  21341961.354     3377668.29649   2630764.88347  21341960.668    21341967.197
       233.000         190.000
  20970384.750        1171.48349      5892.52547  20970384.135    20970389.004
       241.000         206.000
  23558173.227    -1875984.41649  -1453506.40045  23558171.887    23558180.600
       212.000         154.000
  21396069.243    -2228877.23249  -1711872.50647  21396068.500    21396075.503
       242.000         202.000
 01  6 20 20 47 30.0000000  0 10G31G14G 3G23G29G15G17G18G 9G21
  23800980.864    -2540176.61649  -1960390.09145  23800979.884    23800989.013
       214.000         150.000
  22043773.226    -3106959.76749  -2406429.67046  22043772.204    22043780.062
       230.000         182.000
  21746939.496    -2083139.30049  -1608494.58247  21746938.818    21746946.188
       234.000         190.000
  22039729.823      575861.07249    445707.55747  22039729.173    22039735.699
       234.000         189.000
  22743306.030    -3778205.97949  -2917862.96646  22743304.868    22743314.722
       223.000         165.000
  20531522.164     2321034.92549   1814029.30047  20531520.894    20531527.976
       242.000         207.000
  21351095.101     3425666.76749   2668166.26847  21351093.995    21351101.595
       233.000         190.000
  20977947.389       40913.22749     36860.11847  20977946.670    20977952.027
       242.000         206.000
  23551584.197    -1910610.14849  -1480487.44645  23551584.847    23551590.868
       215.000         153.000
  21391901.227    -2250780.22949  -1728939.74747  21391900.515    21391907.411
       242.000         202.000
 01  6 20 20 48  0.0000000  0 10G31G14G 3G23G29G15G17G18G 9G21
  23786671.785    -2615368.55849  -2018981.12245  23786669.022    23786677.595
       207.000         147.000
  22026341.102    -3198565.76649  -2477810.86246  22026340.352    22026347.638
       231.000         183.000
  21742980.704    -2103942.59049  -1624704.92547  21742980.088    21742987.357
       233.000         190.000
  22049598.208      627720.00049    486117.09447  22049597.471    22049604.524
       232.000         189.000
  22724878.129    -3875044.29049  -2993321.19146  22724878.424    22724886.733
       222.000         166.000
  20536079.602     2344984.63949   1832691.41147  20536078.579    20536085.118
       242.000         207.000
  21360294.945     3474011.78349   2705837.68547  21360294.206    21360301.463
       232.000         190.000
  20985546.519       80847.15849     67977.45647  20985545.749    20985551.144
       241.000         206.000
  23545082.370    -1944777.52449  -1507111.30845  23545081.689    23545090.899
       215.000         153.000
  21387765.955    -2272511.13749  -1745872.89447  21387765.148    21387772.378
       241.000         202.000
 01  6 20 20 48 30.0000000  0 10G31G14G 3G23G29G15G17G18G 9G21
  23772439.795    -2690153.96149  -2077255.37645  23772439.343    23772448.334
       215.000         145.000
  22008973.546    -3289832.41549  -2548927.61946  22008971.966    22008979.949
       230.000         182.000
  21739129.834    -2124179.50749  -1640473.94947  21739129.734    21739137.008
       234.000         191.000
  22059480.331      679651.03249    526582.81647  22059479.440    22059486.424
       233.000         188.000
  22706497.763    -3971633.80949  -3068585.56246  22706496.470    22706506.363
       220.000         166.000
  20540707.806     2369305.39949   1851642.63647  20540707.104    20540713.391
       242.000         207.000
  21369560.998     3522705.25949   2743780.62447  21369560.551    21369567.433
       233.000         189.000
  20993182.358      120973.67249     99244.86147  20993181.613    20993186.775
       241.000         206.000
  23538668.647    -1978482.49749  -1533374.87945  23538668.349    23538676.128
       214.000         155.000
  21383663.719    -2294068.74549  -1762671.00547  21383663.088    21383670.015
       242.000         202.000
 01  6 20 20 49  0.0000000  0 10G31G14G 3G23G29G15G17G18G 9G21
  23758286.603    -2764532.93449  -2135212.98845  23758287.220    23758294.171
       216.000         147.000
  21991670.520    -3380759.84849  -2619780.05246  21991669.864    21991677.063
       230.000         183.000
  21735386.273    -2143851.71249  -1655802.93047  21735385.806    21735392.807
       236.000         191.000
  22069375.644      731651.08549    567102.32147  22069375.020    22069381.753
       234.000         189.000
  22688164.587    -4067974.70449  -3143656.18046  22688163.651    22688172.807
       220.000         166.000
  20545406.238     2393995.67549   1870881.81147  20545404.972    20545411.455
       242.000         207.000
  21378893.094     3571745.25949   2781993.58047  21378892.401    21378899.744
       233.000         190.000
  21000854.193      161289.30449    130659.63647  21000853.512    21000858.939
       242.000         206.000
  23532342.837    -2011725.10149  -1559278.12745  23532343.927    23532350.635
       219.000         154.000
  21379593.830    -2315456.20049  -1779336.52847  21379592.656    21379599.758
       240.000         202.000
 01  6 20 20 49 30.0000000  0 10G31G14G 3G23G29G15G17G18G 9G21
  23744210.483    -2838503.44849  -2192852.29245  23744209.536    23744218.995
       213.000         149.000
  21974432.501    -3471346.14749  -2690366.66746  21974431.887    21974438.730
       230.000         183.000
  21731750.387    -2162958.83349  -1670691.59447  21731750.132    21731757.222
       236.000         191.000
  22079283.930      783719.12549    607674.80047  22079283.370    22079289.796
       233.000         189.000
  22669878.887    -4164065.02849  -3218531.58046  22669877.630    22669886.674
       219.000         166.000
  20550175.045     2419055.89649   1890409.25447  20550174.071    20550180.360
       242.000         207.000
  21388291.039     3621131.73949   2820476.52347  21388290.355    21388297.607
       234.000         189.000
  21008561.759      201792.98349    162220.94347  21008561.146    21008566.125
       241.000         205.000
  23526105.390    -2044502.99949  -1584819.30545  23526102.908    23526111.776
       211.000         154.000
  21375556.072    -2336674.44149  -1795870.19547  21375555.411    21375562.148
       242.000         202.000
 01  6 20 20 50  0.0000000  0 10G31G14G 3G23G29G15G17G18G 9G21
  23730212.648    -2912061.50949  -2250170.18645  23730212.046    23730220.843
       211.000         149.000
  21957260.041    -3561587.35049  -2760684.37646  21957258.816    21957266.503
       230.000         184.000
  21728222.377    -2181498.85349  -1685138.35347  21728221.815    21728228.895
       234.000         192.000
  22089205.285      835855.91749    648300.84947  22089204.792    22089211.142
       233.000         189.000
  22651641.704    -4259901.02149  -3293208.78846  22651640.566    22651649.503
       220.000         167.000
  20555014.680     2444488.17849   1910226.60447  20555013.860    20555020.141
       242.000         207.000
  21397755.368     3670866.71549   2859231.01247  21397754.503    21397761.861
       233.000         189.000
  21016305.215      242485.12849    193929.10247  21016304.455    21016309.650
       241.000         205.000
  23519956.915    -2076812.76049  -1609995.66745  23519956.263    23519963.896
       216.000         154.000
  21371550.824    -2357722.44349  -1812271.20947  21371549.854    21371557.294
       241.000         202.000
 01  6 20 20 50 30.0000000  0 10G31G14G 3G23G29G15G17G18G 9G21
  23716293.791    -2985205.55649  -2307165.47145  23716291.393    23716301.531
       209.000         147.000
  21940153.531    -3651482.33749  -2830732.31646  21940152.419    21940159.712
       231.000         184.000
  21724802.115    -2199472.31749  -1699143.63847  21724801.333    21724808.907
       235.000         192.000
  22099139.427      888059.75149    688979.15047  22099138.745    22099145.832
       233.000         189.000
  22633453.189    -4355481.61049  -3367686.97546  22633451.737    22633460.989
       219.000         166.000
  20559925.012     2470292.10249   1930333.56347  20559924.011    20559930.575
       241.000         207.000
  21407285.719     3720949.22449   2898256.32847  21407284.995    21407292.337
       233.000         189.000
  21024084.115      283363.35949    225782.26747  21024083.410    21024088.547
       241.000         204.000
  23513897.695    -2108653.09749  -1634806.28845  23513897.937    23513905.091
       218.000         154.000
  21367577.616    -2378601.50649  -1828540.58347  21367576.704    21367583.766
       241.000         202.000
 01  6 20 20 51  0.0000000  0 10G31G14G 3G23G29G15G17G18G 9G21
  23702453.999    -3057933.07349  -2363836.18445  23702453.693    23702460.839
       209.000         146.000
  21923113.328    -3741028.52549  -2900508.46646  21923112.365    21923120.034
       231.000         184.000
  21721489.891    -2216878.22149  -1712706.67247  21721489.346    21721496.668
       235.000         192.000
  22109086.157      940330.08149    729709.26147  22109085.439    22109092.021
       233.000         189.000
  22615313.563    -4450804.30949  -3441964.21046  22615312.915    22615322.292
       220.000         166.000
  20564906.270     2496468.64649   1950730.87047  20564905.392    20564911.817
       242.000         207.000
  21416882.423     3771379.89549   2937552.91847  21416882.401    21416888.649
       233.000         189.000
  21031898.292      324426.97149    257779.87347  21031897.560    21031903.069
       240.000         204.000
  23507928.683    -2140021.57149  -1659249.18145  23507926.371    23507935.924
       211.000         153.000
  21363636.557    -2399311.99549  -1844678.60147  21363635.753    21363642.712
       242.000         203.000
 01  6 20 20 51 30.0000000  0 10G31G14G 3G23G29G15G17G18G 9G21
  23688694.107    -3130241.64249  -2420180.45445  23688693.968    23688702.286
       211.000         146.000
  21906140.087    -3830223.50249  -2970010.93846  21906139.016    21906146.698
       231.000         185.000
  21718285.778    -2233716.19449  -1725827.16547  21718284.984    21718292.677
       235.000         192.000
  22119045.495      992666.47949    770490.85747  22119044.574    22119050.824
       232.000         188.000
  22597223.700    -4545866.88349  -3516038.76146  22597222.598    22597232.433
       219.000         166.000
  20569958.633     2523018.72249   1971419.22747  20569957.345    20569963.979
       241.000         207.000
  21426545.438     3822159.02449   2977121.03347  21426545.281    21426552.081
       233.000         189.000
  21039747.578      365675.21649    289921.36247  21039746.996    21039752.218
       240.000         204.000
  23502049.544    -2170915.67949  -1683322.47845  23502049.899    23502057.936
       217.000         156.000
  21359727.492    -2419854.32149  -1860685.58347  21359726.579    21359733.547
       241.000         203.000
 01  6 20 20 52  0.0000000  0 10G31G14G 3G23G29G15G17G18G 9G21
  23675014.505    -3202130.00149  -2476197.30845  23675014.229    23675021.671
       213.000         148.000
  21889233.862    -3919065.88249  -3039238.66646  21889232.580    21889240.479
       232.000         185.000
  21715189.655    -2249986.37049  -1738505.20847  21715188.818    21715196.442
       235.000         192.000
  22129016.966     1045067.31149    811322.66246  22129016.331    22129023.446
       232.000         187.000
  22579183.479    -4640667.98249  -3589909.56746  22579182.347    22579192.235
       220.000         166.000
  20575081.911     2549942.15549   1992398.52347  20575080.978    20575087.686
       242.000         207.000
  21436274.642     3873286.04049   3016960.23247  21436273.936    21436281.041
       232.000         189.000
  21047631.689      407106.32149    322205.33847  21047631.208    21047636.089
       241.000         204.000
  23496261.068    -2201334.11549  -1707025.09545  23496260.877    23496267.404
       215.000         154.000
  21355850.145    -2440229.95449  -1876562.67747  21355849.423    21355856.136
       242.000         203.000
 01  6 20 20 52 30.0000000  0 10G31G14G 3G23G29G15G17G18G 9G21
  23661415.099    -3273595.70049  -2531884.80845  23661413.304    23661422.882
       208.000         149.000
  21872395.166    -4007553.42849  -3108189.89046  21872394.257    21872401.299
       232.000         186.000
  21712201.636    -2265688.62249  -1750740.72047  21712201.086    21712208.614
       235.000         192.000
  22139000.644     1097531.76949    852204.03046  22138999.899    22139006.714
       231.000         187.000
  22561193.359    -4735205.46949  -3663574.96646  22561192.372    22561202.316
       218.000         167.000
  20580276.420     2577239.37149   2013669.08147  20580275.452    20580282.353
       242.000         207.000
  21446070.069     3924761.31149   3057070.80447  21446069.085    21446076.709
       232.000         189.000
  21055550.412      448719.10649    354630.88747  21055549.686    21055554.744
       240.000         204.000
  23490563.654    -2231274.67449  -1730355.34445  23490562.932    23490572.046
       214.000         156.000
  21352004.408    -2460439.54349  -1892310.37847  21352003.566    21352010.488
       241.000         203.000
 01  6 20 20 53  0.0000000  0 10G31G14G 3G23G29G15G17G18G 9G21
  23647896.216    -3344635.19849  -2587240.16145  23647894.044    23647904.807
       208.000         147.000
  21855624.712    -4095682.48449  -3176861.77846  21855623.866    21855630.988
       232.000         186.000
  21709321.985    -2280821.23349  -1762532.35447  21709321.100    21709328.338
       234.000         192.000
  22148996.598     1150060.51249    893135.51246  22148995.939    22149002.505
       232.000         187.000
  22543253.962    -4829475.98349  -3737032.34146  22543253.540    22543262.435
       221.000         168.000
  20585542.491     2604912.39749   2035232.47247  20585541.396    20585548.025
       242.000         207.000
  21455932.079     3976586.30849   3097453.89947  21455931.268    21455938.416
       232.000         188.000
  21063503.666      490513.76649    387198.16247  21063502.730    21063508.151
       240.000         203.000
  23484957.520    -2260733.87449  -1753310.54145  23484957.862    23484964.642
       218.000         155.000
  21348190.319    -2480482.35749  -1907928.12847  21348189.156    21348196.173
       241.000         203.000
 01  6 20 20 53 30.0000000  0 10G31G14G 3G23G29G15G17G18G 9G21
  23634459.241    -3415247.07349  -2642262.31045  23634458.605    23634468.543
       211.000         148.000
  21838922.661    -4183452.18249  -3245253.65146  21838921.799    21838929.109
       232.000         186.000
  21706550.626    -2295384.53649  -1773880.37347  21706549.878    21706557.234
       234.000         192.000
  22159004.429     1202651.99949    934115.87546  22159003.791    22159010.707
       231.000         186.000
  22525365.938    -4923478.45249  -3810280.83446  22525365.044    22525374.578
       220.000         168.000
  20590879.872     2632960.77949   2057088.34447  20590878.871    20590885.673
       242.000         207.000
  21465860.464     4028760.28849   3138108.92447  21465860.004    21465867.015
       232.000         188.000
  21071491.076      532487.95449    419905.31847  21071490.491    21071495.584
       240.000         203.000
  23479443.712    -2289710.59949  -1775889.73245  23479442.850    23479450.523
       217.000         156.000
  21344407.815    -2500359.44449  -1923416.74147  21344406.855    21344413.808
       242.000         203.000
 01  6 20 20 54  0.0000000  0 10G31G14G 3G23G29G15G17G18G 9G21
  23621103.991    -3485430.30449  -2696950.48545  23621103.960    23621111.039
       212.000         151.000
  21822289.220    -4270861.04449  -3313364.35846  21822288.264    21822295.614
       233.000         187.000
  21703887.504    -2309379.19549  -1784785.29847  21703886.822    21703894.519
       234.000         192.000
  22169023.883     1255304.46149    975143.74046  22169023.035    22169030.133
       232.000         186.000
  22507529.020    -5017211.62449  -3883319.49946  22507528.023    22507538.003
       221.000         169.000
  20596288.658     2661384.00949   2079236.30347  20596287.787    20596294.524
       242.000         207.000
  21475855.135     4081282.28849   3179035.13146  21475854.605    21475861.904
       231.000         187.000
  21079512.363      574640.05249    452751.11547  21079511.408    21079516.882
       240.000         202.000
  23474021.554    -2318203.46549  -1798091.96245  23474022.542    23474028.525
       218.000         153.000
  21340656.520    -2520072.63849  -1938777.64047  21340655.731    21340662.621
       241.000         202.000
 01  6 20 20 54 30.0000000  0 10G31G14G 3G23G29G15G17G18G 9G21
  23607830.618    -3555181.95449  -2751302.36045  23607829.690    23607838.811
       213.000         152.000
  21805725.116    -4357906.08049  -3381191.55546  21805724.071    21805731.356
       233.000         187.000
  21701332.784    -2322803.97049  -1795246.15747  21701332.410    21701339.749
       235.000         192.000
  22179054.996     1308017.95549   1016219.17346  22179054.030    22179060.330
       232.000         186.000
  22489743.823    -5110672.84049  -3956146.25646  22489742.925    22489752.804
       221.000         170.000
  20601769.025     2690183.55949   2101677.49847  20601768.053    20601775.089
       241.000         207.000
  21485916.098     4134153.20749   3220233.21346  21485915.400    21485922.408
       232.000         187.000
  21087567.484      616970.11649    485735.58047  21087566.861    21087571.908
       240.000         203.000
  23468692.220    -2346210.04849  -1819915.22145  23468690.973    23468699.103
       215.000         156.000
  21336936.350    -2539622.07549  -1954010.93747  21336935.397    21336942.752
       241.000         203.000
 01  6 20 20 55  0.0000000  0 10G31G14G 3G23G29G15G17G18G 9G21
  23594640.021    -3624498.85549  -2805315.46745  23594638.941    23594647.781
       212.000         151.000
  21789230.674    -4444584.43149  -3448733.02646  21789229.850    21789237.090
       232.000         187.000
  21698886.813    -2335657.86949  -1805262.17347  21698886.314    21698893.989
       235.000         192.000
  22189097.684     1360792.58549   1057342.24646  22189097.378    22189103.432
       232.000         186.000
  22472010.915    -5203859.12449  -4028758.77946  22472009.512    22472019.540
       221.000         170.000
  20607321.211     2719360.74749   2124412.97447  20607320.359    20607327.016
       242.000         207.000
  21496043.692     4187374.04349   3261703.95346  21496042.569    21496050.329
       232.000         187.000
  21095656.429      659477.64749    518858.33847  21095655.801    21095660.619
       241.000         203.000
  23463455.655    -2373727.42049  -1841357.29545  23463455.278    23463462.497
       216.000         157.000
  21333247.508    -2559007.11049  -1969116.12947  21333246.571    21333253.830
       241.000         203.000
 01  6 20 20 55 30.0000000  0 10G31G14G 3G23G29G15G17G18G 9G21
  23581532.433    -3693379.78749  -2858988.86145  23581531.116    23581540.598
       214.000         150.000
  21772806.199    -4530894.76149  -3515987.73547  21772805.360    21772812.580
       233.000         188.000
  21696549.386    -2347941.46749  -1814833.80647  21696548.922    21696556.242
       235.000         192.000
  22199151.735     1413626.67549   1098511.65846  22199150.948    22199157.795
       232.000         186.000
  22454330.725    -5296769.23749  -4101156.09646  22454329.641    22454338.942
       223.000         171.000
  20612945.300     2748914.93849   2147442.20347  20612944.765    20612950.785
       242.000         207.000
  21506237.757     4240944.08349   3303446.80146  21506237.162    21506244.685
       231.000         187.000
  21103778.715      702160.55649    552117.74647  21103777.689    21103783.298
       240.000         203.000
  23458312.538    -2400754.23549  -1862417.13245  23458311.589    23458320.325
       212.000         153.000
  21329589.592    -2578229.36049  -1984094.47447  21329588.533    21329595.446
       241.000         203.000
 01  6 20 20 56  0.0000000  0 10G31G14G 3G23G29G15G17G18G 9G21
  23568508.355    -3761821.70249  -2912320.17345  23568507.772    23568516.024
       215.000         152.000
  21756452.501    -4616834.12249  -3582953.37247  21756451.772    21756458.919
       233.000         188.000
  21694320.627    -2359653.76949  -1823960.26547  21694319.875    21694327.351
       236.000         192.000
  22209217.034     1466520.54549   1139727.63846  22209216.449    22209223.025
       231.000         186.000
  22436703.501    -5389400.33449  -4173336.02546  22436703.104    22436711.949
       223.000         172.000
  20618641.344     2778847.73349   2170766.44747  20618640.252    20618647.005
       241.000         206.000
  21516498.517     4294864.52649   3345462.70546  21516498.038    21516505.669
       231.000         187.000
  21111934.290      745018.56149    585513.59047  21111933.842    21111939.044
       240.000         203.000
  23453263.346    -2427287.69549  -1883092.49945  23453262.904    23453270.744
       216.000         154.000
  21325962.814    -2597288.09149  -1998945.40047  21325961.794    21325968.849
       241.000         203.000
 01  6 20 20 56 30.0000000  0 10G31G14G 3G23G29G15G17G18G 9G21
  23555567.959    -3829823.77649  -2965308.73545  23555566.900    23555575.204
       214.000         153.000
  21740169.277    -4702402.03749  -3649629.57647  21740168.485    21740175.044
       234.000         188.000
  21692200.339    -2370795.93449  -1832642.46847  21692199.863    21692206.949
       236.000         192.000
  22219293.417     1519472.15349   1180988.60946  22219292.324    22219299.654
       231.000         186.000
  22419129.615    -5481751.68449  -4245297.95446  22419128.280    22419137.590
       223.000         173.000
  20624409.210     2809158.24549   2194385.01847  20624408.679    20624415.040
       241.000         206.000
  21526825.656     4349133.77349   3387750.40346  21526825.109    21526832.173
       232.000         187.000
  21120122.904      788049.55849    619044.24147  21120122.164    21120127.474
       240.000         203.000
  23448308.142    -2453327.23949  -1903383.02945  23448306.046    23448316.025
       210.000         151.000
  21322366.635    -2616185.79449  -2013670.85447  21322365.753    21322372.748
       241.000         203.000
 01  6 20 20 57  0.0000000  0 10G31G14G 3G23G29G15G17G18G 9G21
  23542711.658    -3897382.54949  -3017951.87345  23542710.810    23542719.916
       215.000         154.000
  21723957.633    -4787594.90949  -3716013.53747  21723956.608    21723963.476
       234.000         188.000
  21690188.841    -2381366.44149  -1840879.22747  21690188.435    21690195.467
       235.000         192.000
  22229380.927     1572482.10849   1222295.04846  22229380.460    22229387.059
       231.000         185.000
  22401609.449    -5573820.16749  -4317039.48446  22401609.129    22401617.537
       224.000         173.000
  20630249.471     2839848.47449   2218299.46747  20630248.666    20630255.139
       242.000         206.000
  21537219.477     4403753.38049   3430311.09446  21537219.063    21537226.076
       233.000         187.000
  21128344.372      831253.64249    652709.75647  21128343.762    21128349.090
       241.000         202.000
  23443447.535    -2478869.48849  -1923286.02045  23443446.979    23443455.681
       216.000         152.000
  21318801.297    -2634921.74649  -2028270.26947  21318800.621    21318807.331
       241.000         203.000
 01  6 20 20 57 30.0000000  0 10G31G14G 3G23G29G15G17G18G 9G21
  23529940.496    -3964496.90849  -3070248.74645  23529939.262    23529948.342
       213.000         154.000
  21707817.511    -4872411.49849  -3782104.29147  21707817.131    21707823.776
       232.000         188.000
  21688286.024    -2391365.81349  -1848670.94747  21688285.113    21688292.953
       235.000         192.000
  22239479.270     1625549.18849   1263646.00346  22239478.789    22239485.686
       231.000         185.000
  22384143.413    -5665604.37149  -4388559.49546  22384142.441    22384151.698
       223.000         173.000
  20636161.763     2870917.89449   2242509.39647  20636160.633    20636167.551
       241.000         206.000
  21547679.867     4458722.52649   3473144.16246  21547679.242    21547686.381
       232.000         187.000
  21136598.462      874629.09849    686508.80947  21136597.678    21136603.046
       240.000         203.000
  23438681.840    -2503913.22349  -1942800.57845  23438680.729    23438689.504
       215.000         150.000
  21315266.422    -2653497.52749  -2042744.87747  21315265.649    21315272.720
       240.000         203.000
 01  6 20 20 58  0.0000000  0 10G31G14G 3G23G29G15G17G18G 9G21
  23517253.658    -4031164.87849  -3122197.75245  23517251.775    23517261.348
       212.000         153.000
  21691749.243    -4956850.14349  -3847900.53947  21691748.285    21691755.928
       234.000         189.000
  21686491.832    -2400794.23849  -1856017.77547  21686491.814    21686498.900
       236.000         191.000
  22249588.292     1678672.35549   1305040.64846  22249587.701    22249594.704
       230.000         185.000
  22366731.602    -5757102.59049  -4459856.66646  22366730.645    22366739.964
       223.000         173.000
  20642146.218     2902366.64149   2267014.89647  20642145.450    20642152.082
       241.000         206.000
  21558206.642     4514041.10449   3516249.50846  21558205.705    21558212.971
       231.000         186.000
  21144884.862      918174.42149    720440.21647  21144884.301    21144889.543
       241.000         202.000
  23434011.545    -2528456.89649  -1961925.46345  23434011.192    23434019.046
       213.000         153.000
  21311762.076    -2671912.93949  -2057094.52447  21311761.225    21311768.181
       240.000         203.000
 01  6 20 20 58 30.0000000  0 10G31G14G 3G23G29G15G17G18G 9G21
  23504652.560    -4097383.66749  -3173796.76845  23504652.248    23504660.587
       215.000         153.000
  21675753.604    -5040907.65749  -3913399.80647  21675752.349    21675759.730
       234.000         189.000
  21684806.486    -2409650.84549  -1862919.03447  21684805.601    21684812.794
       235.000         191.000
  22259707.977     1731851.72749   1346479.11446  22259707.315    22259714.124
       231.000         184.000
  22349374.812    -5848312.05749  -4530928.83946  22349374.310    22349382.687
       224.000         173.000
  20648203.212     2934196.04649   2291817.01647  20648202.337    20648209.123
       242.000         206.000
  21568800.085     4569709.94349   3559627.78646  21568799.561    21568806.960
       231.000         186.000
  21153203.649      961889.80149    754504.13647  21153202.852    21153208.265
       240.000         202.000
  23429436.426    -2552497.60649  -1980658.48445  23429435.609    23429444.279
       213.000         150.000
  21308288.186    -2690168.32149  -2071319.47247  21308287.559    21308294.349
       241.000         203.000
 01  6 20 20 59  0.0000000  0 10G31G14G 3G23G29G15G17G18G 9G21
  23492137.592    -4163151.41849  -3225044.31345  23492137.472    23492145.462
       214.000         154.000
  21659830.731    -5124582.31049  -3978600.75147  21659829.922    21659836.612
       234.000         189.000
  21683229.903    -2417935.74149  -1869374.79647  21683229.533    21683236.867
       235.000         191.000
  22269838.201     1785086.38549   1387960.65046  22269837.392    22269843.737
       230.000         183.000
  22332073.437    -5939231.04249  -4601774.66846  22332072.838    22332081.272
       223.000         173.000
  20654332.703     2966406.35149   2316915.93847  20654331.864    20654338.264
       241.000         206.000
  21579460.136     4625728.85749   3603278.85046  21579459.011    21579466.847
       231.000         186.000
  21161554.466     1005773.50449    788699.22447  21161553.751    21161559.007
       240.000         203.000
  23424957.622    -2576034.20649  -1998998.60245  23424957.549    23424964.699
       213.000         150.000
  21304844.543    -2708264.85449  -2085420.63847  21304843.873    21304850.716
       241.000         203.000
 01  6 20 20 59 30.0000000  0 10G31G14G 3G23G29G15G17G18G 9G21
  23479708.645    -4228466.34649  -3275939.01945  23479706.847    23479716.167
       212.000         153.000
  21643981.125    -5207872.70349  -4043502.26047  21643980.314    21643987.340
       235.000         190.000
  21681762.121    -2425649.17149  -1875385.26847  21681761.749    21681768.997
       235.000         191.000
  22279978.791     1838375.34449   1429484.48846  22279977.872    22279985.208
       229.000         184.000
  22314827.643    -6029858.07049  -4672393.00146  22314827.696    22314836.210
       223.000         174.000
  20660534.603     2998997.45149   2342311.58447  20660533.580    20660540.312
       242.000         206.000
  21590186.761     4682097.45049   3647202.38746  21590186.215    21590193.668
       231.000         186.000
  21169937.109     1049824.44849    823024.62347  21169936.458    21169941.795
       239.000         202.000
  23420574.882    -2599065.13749  -2016944.75445  23420574.404    23420582.414
       213.000         149.000
  21301431.027    -2726203.08849  -2099398.45847  21301430.167    21301437.151
       241.000         204.000
 01  6 20 21  0  0.0000000  0 10G31G14G 3G23G29G15G17G18G 9G21
  23467365.751    -4293326.34749  -3326479.19545  23467364.392    23467373.567
       213.000         152.000
  21628204.945    -5290776.77549  -4108102.73147  21628203.766    21628210.466
       234.000         190.000
  21680403.030    -2432791.12349  -1880950.42747  21680402.310    21680410.093
       235.000         191.000
  22290129.623     1891718.04949   1471050.20246  22290128.845    22290136.136
       231.000         184.000
  22297637.799    -6120190.76649  -4742781.98846  22297637.237    22297645.745
       224.000         174.000
  20666809.039     3031969.87349   2368004.35847  20666808.116    20666814.790
       242.000         206.000
  21600980.004     4738815.86349   3691398.51946  21600979.613    21600986.996
       231.000         186.000
  21178351.353     1094041.72549    857479.62847  21178350.463    21178355.825
       240.000         202.000
  23416289.029    -2621588.52149  -2034495.42145  23416287.282    23416295.790
       214.000         151.000
  21298047.484    -2743983.81249  -2113253.54747  21298046.769    21298053.675
       241.000         204.000
 01  6 20 21  0 30.0000000  0 10G31G14G 3G23G29G15G17G18G 9G21
  23455110.382    -4357728.95049  -3376663.00045  23455110.075    23455117.306
       214.000         152.000
  21612502.668    -5373291.85849  -4172400.10547  21612502.046    21612508.449
       235.000         190.000
  21679152.771    -2439361.28349  -1886070.04347  21679152.235    21679159.956
       235.000         192.000
  22300290.652     1945114.30149   1512657.64546  22300289.831    22300296.453
       230.000         183.000
  22280504.475    -6210227.13549  -4812940.06146  22280504.248    22280512.772
       225.000         175.000
  20673156.253     3065324.42249   2393994.89347  20673155.382    20673161.820
       242.000         206.000
  21611839.907     4795884.43749   3735867.48346  21611839.295    21611846.776
       230.000         186.000
  21186797.142     1138424.60249    892063.67547  21186796.726    21186801.692
       240.000         201.000
  23412099.870    -2643601.84949  -2051648.62645  23412101.190    23412105.982
       218.000         150.000
  21294693.981    -2761606.62949  -2126985.58647  21294693.231    21294700.147
       241.000         204.000
 01  6 20 21  1  0.0000000  0 10G31G14G 3G23G29G15G17G18G 9G21
  23442942.218    -4421673.22449  -3426489.65345  23442941.559    23442950.605
       215.000         154.000
  21596874.687    -5455416.83049  -4236393.49947  21596873.775    21596881.242
       235.000         190.000
  21678011.133    -2445360.68949  -1890744.91347  21678010.266    21678018.190
       235.000         192.000
  22310461.518     1998562.61149   1554305.65746  22310461.129    22310467.859
       230.000         182.000
  22263427.723    -6299965.88849  -4882866.23446  22263427.320    22263436.188
       225.000         176.000
  20679576.084     3099060.64149   2420282.83947  20679575.048    20679581.633
       242.000         206.000
  21622766.160     4853302.44549   3780608.74746  21622765.591    21622773.110
       230.000         186.000
  21195274.112     1182971.22849    926775.32047  21195273.507    21195278.953
       240.000         201.000
  23408008.276    -2665104.37849  -2068403.77845  23408006.474    23408014.715
       213.000         149.000
  21291370.205    -2779072.80649  -2140595.57047  21291369.222    21291376.388
       241.000         204.000
 01  6 20 21  1 30.0000000  0 10G31G14G 3G23G29G15G17G18G 9G21
  23430861.794    -4485156.14849  -3475956.80345  23430860.943    23430869.359
       212.000         154.000
  21581321.551    -5537149.01949  -4300080.82447  21581320.573    21581327.230
       236.000         190.000
  21676978.287    -2450788.46549  -1894974.35347  21676977.661    21676985.161
       235.000         193.000
  22320642.411     2052063.14649   1595994.35846  22320642.171    22320648.735
       230.000         182.000
  22246408.024    -6389404.40049  -4952558.46446  22246407.083    22246415.258
       225.000         176.000
  20686068.723     3133179.59949   2446869.02347  20686067.683    20686074.563
       241.000         206.000
  21633759.081     4911070.43749   3825622.72046  21633758.201    21633766.461
       230.000         185.000
  21203782.237     1227681.62849    961614.59247  21203781.617    21203786.867
       240.000         201.000
  23404013.948    -2686093.26249  -2084758.73045  23404013.988    23404021.328
       214.000         149.000
  21288076.248    -2796382.59549  -2154083.69647  21288075.672    21288082.339
       241.000         204.000
 01  6 20 21  2  0.0000000  0 10G31G14G 3G23G29G15G17G18G 9G21
  23418869.299    -4548175.83549  -3525062.98945  23418868.375    23418876.158
       213.000         152.000
  21565843.453    -5618486.70549  -4363460.75447  21565842.528    21565849.735
       237.000         191.000
  21676054.186    -2455644.84849  -1898758.55247  21676053.880    21676061.347
       236.000         192.000
  22330833.046     2105615.00649   1637723.05146  22330832.566    22330838.978
       230.000         183.000
  22229445.718    -6478541.04449  -5022015.45746  22229445.845    22229453.436
       226.000         176.000
  20692634.210     3167681.56849   2473753.66247  20692633.258    20692639.707
       242.000         205.000
  21644818.577     4969188.25849   3870909.28146  21644817.994    21644825.132
       230.000         185.000
  21212321.277     1272554.26049    996580.27347  21212320.636    21212326.119
       240.000         201.000
  23400118.012    -2706567.21149  -2100712.42245  23400116.806    23400125.318
       215.000         153.000
  21284811.942    -2813536.78349  -2167450.57347  21284811.022    21284818.087
       241.000         204.000
 01  6 20 21  2 30.0000000  0 10G31G14G 3G23G29G15G17G18G 9G21
  23406965.651    -4610730.45349  -3573806.80145  23406965.325    23406972.709
       216.000         153.000
  21550440.886    -5699428.05749  -4426531.83947  21550440.181    21550446.714
       237.000         191.000
  21675238.865    -2459929.96749  -1902097.61147  21675238.385    21675246.099
       236.000         193.000
  22341033.281     2159217.56649   1679491.25346  22341032.825    22341039.686
       230.000         182.000
  22212541.525    -6567373.71349  -5091235.59046  22212540.998    22212549.703
       225.000         176.000
  20699272.795     3202566.93949   2500937.04947  20699271.802    20699278.612
       242.000         206.000
  21655944.713     5027655.90849   3916468.43846  21655943.802    21655951.600
       231.000         185.000
  21220891.002     1317588.35049   1031671.76447  21220890.353    21220895.616
       240.000         200.000
  23396320.093    -2726524.58149  -2116263.62945  23396318.945    23396326.334
       213.000         150.000
  21281577.173    -2830535.53249  -2180696.33547  21281576.231    21281583.208
       240.000         204.000
 01  6 20 21  3  0.0000000  0 10G31G14G 3G23G29G15G17G18G 9G21
  23395150.920    -4672818.42049  -3622186.99245  23395150.235    23395158.428
       215.000         155.000
  21535113.977    -5779971.39449  -4489292.78947  21535113.141    21535119.612
       237.000         192.000
  21674532.081    -2463644.35649  -1904991.94947  21674531.654    21674538.681
       236.000         193.000
  22351243.003     2212870.02149   1721298.34846  22351242.407    22351249.342
       229.000         181.000
  22195695.201    -6655900.93649  -5160217.72046  22195694.580    22195703.166
       224.000         176.000
  20705984.225     3237835.65349   2528419.14547  20705983.136    20705990.020
       241.000         206.000
  21667137.326     5086473.01449   3962299.89746  21667136.763    21667144.004
       231.000         184.000
  21229491.197     1362782.67049   1066888.11047  21229490.649    21229495.917
       239.000         200.000
  23392620.963    -2745963.95849  -2131411.11445  23392620.346    23392628.494
       216.000         149.000
  21278371.672    -2847380.53749  -2193822.28447  21278371.090    21278377.803
       241.000         204.000
 01  6 20 21  3 30.0000000  0 10G31G14G 3G23G29G15G17G18G 9G21
  23383425.196    -4734437.89749  -3670202.09945  23383424.422    23383433.344
       214.000         156.000
  21519863.243    -5860114.61949  -4551741.96547  21519862.459    21519869.090
       236.000         192.000
  21673933.908    -2466787.92749  -1907441.49647  21673933.328    21673940.818
       235.000         193.000
  22361462.149     2266571.87449   1763143.92746  22361461.582    22361468.426
       230.000         181.000
  22178907.390    -6744120.87749  -5228960.41046  22178906.533    22178915.088
       225.000         176.000
  20712768.679     3273488.14549   2556200.29147  20712767.679    20712774.337
       241.000         205.000
  21678396.392     5145639.39149   4008403.52346  21678396.039    21678403.090
       228.000         184.000
  21238121.688     1408136.24649   1102228.55047  21238120.925    21238126.330
       239.000         200.000
  23389020.617    -2764883.78849  -2146153.82345  23389020.558    23389028.453
       215.000         151.000
  21275195.474    -2864071.74549  -2206828.39947  21275194.579    21275201.680
       241.000         204.000
 01  6 20 21  4  0.0000000  0 10G31G14G 3G23G29G15G17G18G 9G21
  23371788.801    -4795586.16749  -3717850.03445  23371788.398    23371796.602
       216.000         157.000
  21504688.948    -5939855.48149  -4613877.61347  21504688.044    21504694.937
       237.000         192.000
  21673444.421    -2469360.09649  -1909445.79547  21673443.917    21673451.234
       236.000         193.000
  22371690.779     2320323.26749   1805028.10946  22371689.961    22371697.091
       230.000         182.000
  22162178.676    -6832030.92549  -5297461.62146  22162178.203    22162186.569
       226.000         177.000
  20719626.365     3309525.47449   2584281.30847  20719625.312    20719632.034
       241.000         205.000
  21689722.021     5205155.71949   4054779.83346  21689720.939    21689728.705
       229.000         183.000
  21246782.409     1453648.68749   1137692.78047  21246781.809    21246787.018
       240.000         201.000
  23385519.622    -2783281.63649  -2160489.81745  23385518.532    23385527.026
       212.000         153.000
  21272048.515    -2880608.99049  -2219714.54047  21272047.568    21272054.548
       241.000         204.000
 01  6 20 21  4 30.0000000  0 10G31G14G 3G23G29G15G17G18G 9G21
  23360242.668    -4856261.99349  -3765129.84945  23360241.771    23360249.946
       216.000         158.000
  21489591.563    -6019192.58149  -4675698.63947  21489590.316    21489597.125
       237.000         193.000
  21673063.591    -2471361.64249  -1911005.44947  21673062.971    21673070.394
       237.000         193.000
  22381928.574     2374122.88149   1846949.86646  22381927.094    22381934.624
       229.000         182.000
  22145509.048    -6919629.75949  -5365720.33446  22145508.394    22145516.371
       226.000         177.000
  20726557.210     3345947.13749   2612661.80947  20726556.394    20726562.824
       242.000         205.000
  21701114.102     5265021.32349   4101428.31446  21701113.502    21701120.553
       229.000         183.000
  21255473.108     1499318.43149   1173279.58947  21255472.283    21255477.625
       239.000         200.000
  23382118.153    -2801156.28649  -2174418.09545  23382117.507    23382124.672
       214.000         149.000
  21268930.661    -2896993.33949  -2232481.54047  21268929.876    21268936.525
       241.000         204.000
 01  6 20 21  5  0.0000000  0 10G31G14G 3G23G29G15G17G18G 9G21
  23348786.786    -4916462.69149  -3812039.42945  23348785.622    23348794.536
       218.000         158.000
  21474571.450    -6098123.02449  -4737202.80147  21474570.384    21474577.405
       236.000         193.000
  21672791.373    -2472792.42949  -1912120.36247  21672790.879    21672797.952
       237.000         192.000
  22392175.497     2427970.91249   1888909.33446  22392174.630    22392181.041
       230.000         181.000
  22128899.253    -7006914.85649  -5433734.56746  22128899.022    22128906.465
       226.000         177.000
  20733561.454     3382754.29849   2641342.69347  20733560.505    20733567.030
       241.000         205.000
  21712572.749     5325236.80449   4148349.41546  21712571.869    21712579.349
       228.000         182.000
  21264193.710     1545145.36149   1208988.87347  21264193.035    21264198.517
       240.000         200.000
  23378816.643    -2818505.50049  -2187936.88945  23378816.642    23378822.948
       214.000         149.000
  21265841.957    -2913224.84949  -2245129.44847  21265841.324    21265848.006
       242.000         204.000
 01  6 20 21  5 30.0000000  0 10G31G14G 3G23G29G15G17G18G 9G21
  23337421.685    -4976187.36349  -3858578.08445  23337420.610    23337429.316
       217.000         159.000
  21459628.935    -6176646.28849  -4798389.66747  21459627.979    21459634.898
       236.000         193.000
  21672627.542    -2473653.42949  -1912791.28647  21672627.013    21672634.266
       236.000         192.000
  22402431.402     2481865.96849   1930905.47846  22402430.770    22402437.078
       230.000         180.000
  22112349.309    -7093885.47449  -5501503.75346  22112348.769    22112356.450
       226.000         178.000
  20740638.856     3419946.27449   2670323.44147  20740637.735    20740644.523
       241.000         205.000
  21724097.745     5385800.91849   4195542.17246  21724097.061    21724104.730
       228.000         182.000
  21272943.845     1591127.40549   1244819.01647  21272943.198    21272948.523
       240.000         201.000
  23375615.256    -2835328.73149  -2201045.90045  23375615.158    23375622.250
       215.000         152.000
  21262782.066    -2929304.56049  -2257659.06647  21262781.223    21262788.002
       242.000         204.000
 01  6 20 21  6  0.0000000  0 10G31G14G 3G23G29G15G17G18G 9G21
  23326147.436    -5035432.97449  -3904743.43845  23326145.925    23326156.151
       218.000         159.000
  21444764.377    -6254759.59649  -4859257.09447  21444763.609    21444770.271
       237.000         194.000
  21672572.197    -2473944.25949  -1913017.91247  21672571.611    21672578.856
       236.000         192.000
  22412696.350     2535808.24849   1972938.39646  22412695.424    22412702.320
       230.000         181.000
  22095859.571    -7180538.56449  -5569025.52146  22095859.015    22095867.217
       226.000         178.000
  20747789.718     3457524.30449   2699605.00047  20747788.835    20747795.496
       241.000         205.000
  21735689.286     5446714.56349   4243007.29546  21735688.866    21735696.138
       228.000         182.000
  21281723.574     1637264.82949   1280770.24347  21281722.890    21281727.925
       239.000         200.000
  23372514.565    -2851623.50149  -2213743.08545  23372514.075    23372520.796
       213.000         153.000
  21259751.138    -2945232.22849  -2270070.21547  21259750.351    21259756.964
       241.000         204.000
 01  6 20 21  6 30.0000000  0 10G31G14G 3G23G29G15G17G18G 9G21
  23314964.817    -5094198.43749  -3950534.66245  23314964.176    23314971.682
       217.000         160.000
  21429978.191    -6332461.42949  -4919803.88147  21429977.186    21429983.963
       238.000         194.000
  21672625.243    -2473665.64749  -1912800.82547  21672624.944    21672632.076
       236.000         192.000
  22422970.105     2589796.91449   2015007.45746  22422968.652    22422976.331
       228.000         180.000
  22079430.434    -7266873.17149  -5636299.12246  22079429.639    22079437.651
       226.000         179.000
  20755014.003     3495487.93049   2729187.02447  20755012.964    20755019.645
       240.000         205.000
  21747347.257     5507977.17049   4290744.34446  21747346.625    21747354.507
       228.000         182.000
  21290532.551     1683556.05449   1316841.30847  21290531.812    21290536.887
       239.000         200.000
  23369514.425    -2867388.80649  -2226027.73745  23369514.082    23369522.013
       213.000         152.000
  21256748.876    -2961009.20349  -2282363.93247  21256747.930    21256754.817
       241.000         204.000
 01  6 20 21  7  0.0000000  0 10G31G14G 3G23G29G15G17G18G 9G21
  23303873.796    -5152481.81749  -3995950.23145  23303872.934    23303881.452
       217.000         160.000
  21415270.604    -6409749.87349  -4980028.55047  21415269.607    21415276.598
       238.000         195.000
  21672786.594    -2472817.67649  -1912140.08147  21672785.813    21672793.245
       235.000         192.000
  22433252.532     2643831.51749   2057112.31546  22433251.893    22433258.766
       229.000         180.000
  22063062.400    -7352887.15849  -5703322.89046  22063061.181    22063069.998
       226.000         179.000
  20762311.668     3533837.66249   2759069.91447  20762310.512    20762317.513
       240.000         204.000
  21759071.562     5569588.66949   4338753.25746  21759070.339    21759078.523
       228.000         182.000
  21299370.613     1730000.45149   1353031.73447  21299369.843    21299375.198
       239.000         199.000
  23366615.421    -2882623.24749  -2237898.67345  23366613.050    23366621.148
       210.000         147.000
  21253775.266    -2976635.61149  -2294540.33147  21253774.768    21253781.277
       241.000         204.000
 01  6 20 21  7 30.0000000  0 10G31G14G 3G23G29G15G17G18G 9G21
  23292874.899    -5210281.17649  -4040988.64545  23292874.479    23292882.385
       219.000         160.000
  21400642.106    -6486622.94949  -5039929.54247  21400641.174    21400647.687
       237.000         195.000
  21673056.209    -2471400.39549  -1911035.72547  21673055.806    21673063.200
       236.000         192.000
  22443543.685     2697911.75849   2099252.74046  22443543.048    22443549.805
       229.000         180.000
  22046755.621    -7438578.43749  -5770095.19646  22046755.379    22046763.189
       227.000         179.000
  20769682.917     3572573.98449   2789254.04447  20769682.048    20769688.768
       240.000         204.000
  21770862.358     5631549.06349   4387034.02846  21770861.686    21770868.973
       229.000         182.000
  21308237.653     1776597.09749   1389340.79547  21308236.775    21308242.497
       239.000         199.000
  23363817.773    -2897325.04949  -2249354.59645  23363818.175    23363825.103
       217.000         151.000
  21250830.227    -2992112.07349  -2306599.88247  21250829.547    21250836.179
       242.000         204.000
 01  6 20 21  8  0.0000000  0 10G31G14G 3G23G29G15G17G18G 9G21
  23281968.411    -5267595.53649  -4085649.13845  23281967.219    23281975.305
       216.000         159.000
  21386092.814    -6563079.88449  -5099506.26747  21386091.857    21386098.717
       236.000         195.000
  21673434.057    -2469415.28049  -1909488.89347  21673433.544    21673440.997
       236.000         192.000
  22453843.176     2752036.06449   2141427.50246  22453842.508    22453849.445
       228.000         180.000
  22030510.696    -7523946.34049  -5836615.51846  22030509.626    22030518.117
       227.000         180.000
  20777127.670     3611696.31949   2819738.96447  20777127.064    20777133.215
       241.000         204.000
  21782719.250     5693857.31449   4435585.86746  21782718.538    21782725.899
       227.000         181.000
  21317133.273     1823344.07949   1425767.00147  21317132.636    21317137.776
       239.000         199.000
  23361121.922    -2911493.41549  -2260394.87445  23361120.553    23361129.272
       213.000         154.000
  21247913.467    -3007439.49649  -2318543.30547  21247912.776    21247919.177
       241.000         204.000
 01  6 20 21  8 30.0000000  0 10G31G14G 3G23G29G15G17G18G 9G21
  23271154.450    -5324422.43949  -4129929.80645  23271153.945    23271161.944
       218.000         158.000
  21371623.138    -6639117.88949  -5158756.57547  21371622.164    21371629.056
       237.000         196.000
  21673920.027    -2466861.71349  -1907499.12047  21673919.328    21673926.977
       236.000         192.000
  22464151.188     2806204.98149   2183637.02346  22464150.932    22464157.161
       227.000         180.000
  22014327.687    -7608987.92649  -5902881.58146  22014326.679    22014335.410
       226.000         180.000
  20784646.183     3651205.75849   2850525.52247  20784645.589    20784652.017
       241.000         205.000
  21794642.451     5756514.09249   4484409.27346  21794641.404    21794649.330
       227.000         180.000
  21326057.628     1870241.70649   1462310.59147  21326057.188    21326062.073
       239.000         199.000
  23358527.478    -2925126.05249  -2271017.71745  23358527.078    23358533.829
       213.000         150.000
  21245025.140    -3022617.76749  -2330370.51147  21245024.486    21245031.124
       241.000         204.000
 01  6 20 21  9  0.0000000  0 10G31G14G 3G23G29G15G17G18G 9G21
  23260434.004    -5380759.40849  -4173828.70945  23260433.067    23260441.866
       219.000         159.000
  21357233.700    -6714734.72149  -5217678.68947  21357232.665    21357239.388
       238.000         196.000
  21674514.204    -2463739.55049  -1905066.28647  21674513.756    21674520.974
       236.000         192.000
  22474467.740     2860418.52549   2225881.31646  22474467.150    22474473.947
       228.000         180.000
  21998207.188    -7693701.03649  -5968891.69146  21998206.718    21998215.201
       227.000         181.000
  20792238.419     3691103.03749   2881614.28247  20792237.533    20792244.257
       241.000         204.000
  21806632.009     5819519.65549   4533504.47846  21806630.614    21806638.589
       227.000         180.000
  21335010.575     1917289.50849   1498971.19447  21335009.770    21335015.233
       239.000         199.000
  23356035.491    -2938221.05149  -2281221.55045  23356033.435    23356042.879
       212.000         148.000
  21242165.223    -3037646.78249  -2342081.40447  21242164.645    21242171.243
       241.000         204.000
 01  6 20 21  9 30.0000000  0 10G31G14G 3G23G29G15G17G18G 9G21
  23249806.779    -5436605.42749  -4217345.04745  23249805.874    23249815.563
       218.000         159.000
  21342924.584    -6789929.38149  -5276271.84147  21342923.841    21342930.302
       237.000         196.000
  21675216.309    -2460050.16649  -1902191.46647  21675215.900    21675223.153
       236.000         192.000
  22484792.522     2914675.39649   2268159.36346  22484792.122    22484798.428
       228.000         180.000
  21982149.477    -7778084.62549  -6034645.02946  21982149.145    21982157.091
       228.000         181.000
  20799904.298     3731387.55749   2913004.79747  20799903.167    20799909.859
       241.000         204.000
  21818687.693     5882873.01649   4582870.67246  21818687.637    21818694.588
       227.000         180.000
  21343991.766     1964485.74949   1535747.46847  21343991.222    21343996.476
       239.000         199.000
  23353645.816    -2950778.00349  -2291006.18445  23353646.847    23353652.727
       212.000         149.000
  21239333.353    -3052528.20449  -2353677.29647  21239332.626    21239338.959
       241.000         204.000
 01  6 20 21 10  0.0000000  0 10G31G14G 3G23G29G15G17G18G 9G21
  23239273.292    -5491959.52449  -4260478.07845  23239272.337    23239279.699
       219.000         159.000
  21328696.055    -6864700.61449  -5334535.03647  21328694.792    21328701.625
       236.000         196.000
  21676026.198    -2455794.39849  -1898875.30447  21676025.760    21676033.155
       236.000         192.000
  22495125.388     2968974.69649   2310470.48346  22495124.679    22495131.504
       229.000         180.000
  21966154.751    -7862137.39149  -6100140.57746  21966154.977    21966162.303
       228.000         182.000
  20807643.864     3772059.13249   2944696.91347  20807643.058    20807649.657
       241.000         204.000
  21830809.677     5946573.66549   4632507.48046  21830808.965    21830817.145
       227.000         180.000
  21353000.906     2011829.03049   1572638.32647  21353000.196    21353005.146
       239.000         199.000
  23351359.105    -2962795.74949  -2300370.66145  23351358.891    23351366.782
       214.000         153.000
  21236529.509    -3067262.45649  -2365158.50947  21236528.937    21236535.321
       241.000         204.000
 01  6 20 21 10 30.0000000  0 10G31G14G 3G23G29G15G17G18G 9G21
  23228833.786    -5546819.16149  -4303225.79945  23228832.874    23228839.926
       220.000         159.000
  21314548.415    -6939046.09049  -5392466.48047  21314547.406    21314553.967
       238.000         196.000
  21676943.790    -2450972.27749  -1895117.82247  21676943.095    21676950.701
       236.000         192.000
  22505466.291     3023316.40249   2352814.64346  22505465.870    22505472.568
       229.000         181.000
  21950223.368    -7945857.24249  -6165376.70946  21950222.957    21950230.954
       228.000         181.000
  20815457.193     3813118.32549   2976691.06247  20815456.130    20815462.913
       241.000         204.000
  21842997.599     6010621.77249   4682415.05546  21842997.148    21843004.379
       227.000         180.000
  21362038.004     2059319.17449   1609643.62147  21362037.289    21362042.735
       238.000         199.000
  23349175.066    -2974272.73349  -2309313.79645  23349173.883    23349181.355
       211.000         151.000
  21233753.655    -3081849.48749  -2376525.00147  21233752.829    21233759.784
       241.000         204.000
 01  6 20 21 11  0.0000000  0 10G31G14G 3G23G29G15G17G18G 9G21
  23218488.676    -5601182.31449  -4345586.66545  23218487.755    23218495.842
       218.000         158.000
  21300482.255    -7012963.83049  -5450064.62647  21300481.174    21300487.854
       237.000         196.000
  21677969.129    -2445583.95549  -1890919.15647  21677968.655    21677976.200
       236.000         192.000
  22515815.321     3077700.76649   2395192.03846  22515815.275    22515822.063
       227.000         181.000
  21934355.690    -8029241.87849  -6230351.64546  21934355.302    21934362.961
       228.000         182.000
  20823344.467     3854565.78849   3008987.75847  20823343.609    20823350.361
       241.000         204.000
  21855251.842     6075017.52549   4732593.49746  21855251.464    21855258.338
       227.000         180.000
  21371102.953     2106955.57549   1646762.87447  21371102.354    21371107.582
       239.000         198.000
  23347094.352    -2985207.09949  -2317834.03145  23347094.403    23347099.428
       218.000         151.000
  21231005.785    -3096289.37249  -2387776.84247  21231005.051    21231011.658
       241.000         204.000
 01  6 20 21 11 30.0000000  0 10G31G14G 3G23G29G15G17G18G 9G21
  23208238.432    -5655047.80549  -4387559.72845  23208236.982    23208246.195
       220.000         159.000
  21286497.708    -7086452.46449  -5507328.40747  21286496.905    21286503.353
       238.000         196.000
  21679102.175    -2439630.38949  -1886280.03447  21679101.990    21679108.703
       237.000         192.000
  22526172.219     3132126.81549   2437601.90646  22526171.666    22526178.092
       226.000         179.000
  21918552.173    -8112290.07849  -6295064.43446  21918551.173    21918559.311
       228.000         182.000
  20831305.552     3896401.41349   3041586.92347  20831304.748    20831311.046
       241.000         204.000
  21867571.968     6139760.22449   4783042.30446  21867570.986    21867578.787
       227.000         180.000
  21380195.525     2154737.15649   1683995.26347  21380194.849    21380200.022
       239.000         198.000
  23345117.191    -2995597.98749  -2325930.74645  23345115.683    23345123.804
       210.000         149.000
  21228285.811    -3110583.10549  -2398914.79347  21228285.004    21228291.581
       241.000         204.000
 01  6 20 21 12  0.0000000  0 10G31G14G 3G23G29G15G17G18G 9G21
  23198083.171    -5708413.51649  -4429143.36945  23198082.712    23198089.669
       220.000         158.000
  21272595.293    -7159510.15449  -5564256.37047  21272594.419    21272600.573
       237.000         196.000
  21680342.575    -2433112.09549  -1881200.86647  21680341.962    21680349.194
       236.000         192.000
  22536536.973     3186594.39149   2480044.13946  22536535.551    22536543.167
       226.000         178.000
  21902812.873    -8194999.75649  -6359513.43446  21902812.159    21902820.087
       228.000         183.000
  20839340.602     3938625.57849   3074488.85047  20839339.635    20839346.223
       241.000         204.000
  21879958.254     6204849.95349   4833761.51146  21879958.230    21879965.118
       228.000         180.000
  21389315.528     2202663.18649   1721340.19547  21389314.925    21389319.821
       238.000         198.000
  23343243.372    -3005443.69849  -2333602.77645  23343243.809    23343250.774
       214.000         151.000
  21225593.570    -3124730.91849  -2409939.04047  21225592.718    21225599.298
       241.000         204.000
 01  6 20 21 12 30.0000000  0 10G31G14G 3G23G29G15G17G18G 9G21
  23188023.474    -5761278.24049  -4470336.62545  23188023.026    23188030.587
       217.000         158.000
  21258775.070    -7232135.57149  -5620847.50747  21258774.257    21258780.482
       237.000         196.000
  21681690.354    -2426029.50449  -1875681.99447  21681689.888    21681697.222
       235.000         192.000
  22546909.692     3241102.75749   2522518.15846  22546909.270    22546916.116
       227.000         178.000
  21887138.397    -8277369.59449  -6423697.62146  21887137.810    21887145.644
       229.000         183.000
  20847449.425     3981237.77049   3107693.12947  20847448.512    20847455.092
       241.000         204.000
  21892410.438     6270286.01749   4884750.59246  21892409.450    21892417.423
       227.000         180.000
  21398462.927     2250732.74349   1758796.98847  21398462.193    21398467.244
       239.000         198.000
  23341473.796    -3014743.45749  -2340849.32145  23341471.645    23341481.303
       211.000         153.000
  21222928.950    -3138733.35049  -2420850.00547  21222928.133    21222934.803
       241.000         204.000
 01  6 20 21 13  0.0000000  0 10G31G14G 3G23G29G15G17G18G 9G21
  23178059.073    -5813639.99949  -4511137.93745  23178057.385    23178066.879
       217.000         158.000
  21245037.470    -7304326.79149  -5677100.30247  21245036.597    21245043.121
       237.000         196.000
  21683145.363    -2418383.27949  -1869723.92147  21683144.691    21683152.387
       235.000         191.000
  22557290.144     3295651.63949   2565023.74846  22557289.284    22557296.306
       227.000         178.000
  21871528.905    -8359397.73749  -6487615.55246  21871528.486    21871536.090
       228.000         183.000
  20855632.252     4024238.49949   3141200.15847  20855631.377    20855638.226
       241.000         204.000
  21904928.436     6336068.38449   4936009.52546  21904927.854    21904934.945
       227.000         180.000
  21407637.395     2298944.89649   1796364.88347  21407636.861    21407641.887
       239.000         198.000
  23339808.240    -3023495.67649  -2347669.27245  23339808.307    23339815.309
       217.000         153.000
  21220292.007    -3152590.93249  -2431648.10347  21220291.458    21220297.972
       242.000         205.000
 01  6 20 21 13 30.0000000  0 10G31G14G 3G23G29G15G17G18G 9G21
  23168191.019    -5865497.30349  -4551546.18345  23168189.806    23168199.527
       217.000         159.000
  21231382.761    -7376082.39249  -5733013.65947  21231381.740    21231388.094
       238.000         197.000
  21684707.536    -2410174.01949  -1863327.12247  21684707.180    21684714.082
       235.000         191.000
  22567678.072     3350240.54149   2607560.52146  22567677.962    22567684.246
       227.000         178.000
  21855984.784    -8441082.54549  -6551265.95046  21855984.187    21855992.126
       229.000         184.000
  20863888.969     4067627.68749   3175009.88847  20863888.231    20863894.622
       241.000         203.000
  21917512.244     6402196.49649   4987537.88046  21917511.313    21917518.739
       227.000         179.000
  21416838.903     2347298.59349   1834043.07347  21416838.092    21416843.237
       239.000         198.000
  23338247.324    -3031699.40049  -2354061.72345  23338245.519    23338253.195
       214.000         150.000
  21217682.492    -3166304.18649  -2442333.73447  21217681.735    21217688.222
       241.000         205.000
 01  6 20 21 14  0.0000000  0 10G31G14G 3G23G29G15G17G18G 9G21
  23158418.987    -5916848.78149  -4591560.26145  23158418.431    23158426.106
       221.000         160.000
  21217811.340    -7447400.58849  -5788586.17947  21217810.465    21217816.623
       238.000         197.000
  21686376.675    -2401402.75949  -1856492.39847  21686375.854    21686383.576
       236.000         191.000
  22578073.570     3404869.01249   2650128.12646  22578072.995    22578079.863
       227.000         178.000
  21840506.187    -8522422.57149  -6614647.69746  21840504.883    21840513.309
       230.000         184.000
  20872219.660     4111405.26649   3209122.25747  20872218.654    20872225.169
       240.000         203.000
  21930161.752     6468670.03649   5039335.38246  21930160.756    21930168.675
       226.000         178.000
  21426067.084     2395793.33149   1871831.16747  21426066.543    21426071.445
       239.000         197.000
  23336790.754    -3039353.38049  -2360025.86345  23336791.525    23336797.488
       215.000         148.000
  21215100.357    -3179873.40349  -2452907.13147  21215099.442    21215106.033
       241.000         205.000
 01  6 20 21 14 30.0000000  0 10G31G14G 3G23G29G15G17G18G 9G21
  23148743.811    -5967693.11149  -4631179.18145  23148742.599    23148750.354
       218.000         160.000
  21204323.331    -7518280.18949  -5843816.94347  21204322.653    21204328.642
       238.000         197.000
  21688152.586    -2392070.45649  -1849220.49547  21688152.005    21688159.368
       236.000         191.000
  22588476.519     3459536.47849   2692726.11946  22588475.584    22588483.192
       227.000         178.000
  21825093.469    -8603416.28849  -6677759.58946  21825092.673    21825100.886
       228.000         184.000
  20880624.132     4155571.27049   3243537.30447  20880623.185    20880630.080
       240.000         203.000
  21942876.812     6535488.46249   5091401.62546  21942876.603    21942884.657
       225.000         178.000
  21435321.965     2444427.92149   1909728.24247  21435321.316    21435326.314
       239.000         197.000
  23335439.199    -3046456.89349  -2365561.05345  23335438.382    23335446.215
       217.000         155.000
  21212545.418    -3193299.55149  -2463369.04247  21212544.671    21212550.917
       241.000         204.000
 01  6 20 21 15  0.0000000  0 10G31G14G 3G23G29G15G17G18G 9G21
  23139165.316    -6018028.55849  -4670401.57145  23139164.500    23139172.624
       221.000         160.000
  21190919.188    -7588719.39849  -5898704.53347  21190918.273    21190924.431
       238.000         198.000
  21690035.258    -2382177.38149  -1841511.63147  21690034.582    21690041.765
       236.000         191.000
  22598886.787     3514242.68549   2735354.29846  22598885.877    22598892.818
       227.000         178.000
  21809747.110    -8684061.73349  -6740600.09546  21809746.357    21809754.067
       230.000         185.000
  20889102.673     4200126.07749   3278255.31047  20889101.466    20889107.849
       240.000         203.000
  21955657.633     6602651.74449   5143736.58646  21955656.965    21955664.805
       226.000         178.000
  21444603.353     2493201.74949   1947733.81047  21444602.471    21444607.744
       239.000         197.000
  23334192.428    -3053008.59749  -2370666.26445  23334190.796    23334199.013
       212.000         153.000
  21210017.701    -3206582.92749  -2473719.70447  21210016.971    21210023.519
       242.000         205.000
 01  6 20 21 15 30.0000000  0 10G31G14G 3G23G29G15G17G18G 9G21
  23129683.839    -6067853.53349  -4709226.17245  23129683.054    23129691.137
       221.000         161.000
  21177599.177    -7658716.39549  -5953247.56447  21177598.104    21177604.413
       239.000         198.000
  21692024.462    -2371724.03449  -1833366.19247  21692023.824    21692031.250
       235.000         191.000
  22609304.412     3568987.41549   2778012.49846  22609303.575    22609310.792
       227.000         178.000
  21794467.370    -8764357.21049  -6803167.90546  21794466.415    21794474.498
       230.000         185.000
  20897655.095     4245069.79849   3313276.36747  20897654.125    20897661.001
       240.000         202.000
  21968504.055     6670159.65149   5196340.09846  21968502.772    21968511.174
       224.000         177.000
  21453911.107     2542114.32549   1985847.49447  21453910.877    21453915.567
       239.000         197.000
  23333050.665    -3059007.09949  -2375340.44045  23333050.146    23333057.864
       212.000         149.000
  21207517.135    -3219723.37249  -2483958.99147  21207516.402    21207522.757
       242.000         205.000
 01  6 20 21 16  0.0000000  0 10G31G14G 3G23G29G15G17G18G 9G21
  23120300.090    -6117166.06349  -4747651.48546  23120299.490    23120307.973
       221.000         163.000
  21164363.544    -7728269.54849  -6007444.74547  21164362.926    21164368.850
       238.000         199.000
  21694120.110    -2360711.05549  -1824784.67747  21694119.643    21694127.075
       237.000         191.000
  22619729.290     3623770.47449   2820700.55146  22619728.348    22619735.635
       227.000         177.000
  21779254.497    -8844300.87149  -6865461.57646  21779253.956    21779261.662
       230.000         185.000
  20906281.695     4290402.87649   3348600.81947  20906280.923    20906287.786
       240.000         203.000
  21981415.888     6738012.02649   5249212.02146  21981415.373    21981422.999
       226.000         177.000
  21463245.218     2591164.94149   2024068.74947  21463244.255    21463249.727
       238.000         197.000
  23332014.673    -3064451.20949  -2379582.59645  23332013.493    23332020.995
       214.000         149.000
  21205043.647    -3232721.47249  -2494087.36547  21205042.724    21205049.282
       241.000         205.000
 01  6 20 21 16 30.0000000  0 10G31G14G 3G23G29G15G17G18G 9G21
  23111013.886    -6165965.43249  -4785676.92445  23111013.029    23111020.856
       221.000         162.000
  21151212.653    -7797377.86349  -6061295.29147  21151211.901    21151217.550
       239.000         199.000
  21696322.190    -2349139.69749  -1815768.05647  21696321.709    21696329.343
       236.000         191.000
  22630161.296     3678590.85549   2863417.69546  22630160.346    22630167.566
       227.000         178.000
  21764108.706    -8923891.81149  -6927480.40146  21764108.201    21764115.834
       231.000         185.000
  20914982.274     4336124.44849   3384227.98947  20914981.530    20914988.060
       240.000         203.000
  21994393.299     6806207.84449   5302351.56246  21994392.669    21994400.589
       226.000         177.000
  21472605.202     2640352.21249   2062396.47647  21472604.465    21472609.452
       237.000         196.000
  23331084.276    -3069340.65949  -2383392.50845  23331083.897    23331091.116
       218.000         152.000
  21202597.027    -3245578.49049  -2504105.80147  21202596.148    21202602.777
       241.000         205.000
 01  6 20 21 17  0.0000000  0 10G31G14G 3G23G29G15G17G18G 9G21
  23101825.494    -6214250.12749  -4823301.31845  23101824.060    23101832.495
       220.000         161.000
  21138146.687    -7866039.94849  -6114798.13447  21138145.806    21138151.703
       239.000         199.000
  21698630.183    -2337011.10549  -1806317.22647  21698629.182    21698637.093
       236.000         191.000
  22640600.455     3733448.44149   2906163.84646  22640600.169    22640607.042
       228.000         178.000
  21749030.465    -9003128.50849  -6989223.19446  21749030.440    21749037.275
       230.000         186.000
  20923756.723     4382234.51649   3420157.89147  20923755.615    20923762.506
       240.000         203.000
  22007435.859     6874746.57949   5355758.31546  22007435.110    22007443.115
       225.000         176.000
  21481991.050     2689675.33949   2100830.07247  21481990.368    21481995.761
       237.000         196.000
  23330259.783    -3073674.18749  -2386769.27245  23330260.487    23330266.746
       215.000         156.000
  21200177.224    -3258294.60549  -2514014.44747  21200176.253    21200182.957
       242.000         205.000
 01  6 20 21 17 30.0000000  0 10G31G14G 3G23G29G15G17G18G 9G21
  23092735.440    -6262018.46149  -4860523.35745  23092733.753    23092742.538
       219.000         161.000
  21125165.876    -7934254.11849  -6167951.96147  21125164.913    21125171.100
       239.000         200.000
  21701044.159    -2324325.96349  -1796432.73247  21701043.710    21701050.994
       236.000         191.000
  22651046.683     3788343.08949   2948938.86446  22651045.687    22651053.385
       227.000         177.000
  21734020.015    -9082008.96849  -7050688.39346  21734019.142    21734026.949
       231.000         186.000
  20932605.168     4428733.32649   3456390.71147  20932604.260    20932611.249
       240.000         202.000
  22020543.653     6943628.27849   5409432.30046  22020542.636    22020551.477
       224.000         176.000
  21491402.626     2739133.71749   2139369.05447  21491402.142    21491407.529
       238.000         195.000
  23329541.037    -3077450.47049  -2389711.88145  23329540.475    23329548.371
       211.000         153.000
  21197784.250    -3270869.65149  -2523813.17047  21197783.640    21197789.827
       242.000         205.000
 01  6 20 21 18  0.0000000  0 10G31G14G 3G23G29G15G17G18G 9G21
  23083744.158    -6309268.68849  -4897341.69045  23083743.757    23083751.205
       219.000         161.000
  21112270.704    -8002018.43049  -6220755.25147  21112269.730    21112275.512
       239.000         200.000
  21703563.922    -2311084.47949  -1786114.71847  21703563.526    21703570.945
       236.000         191.000
  22661499.758     3843274.55249   2991742.55746  22661499.001    22661506.006
       226.000         176.000
  21719077.576    -9160531.36149  -7111874.58146  21719076.856    21719085.241
       231.000         186.000
  20941527.728     4475621.49149   3492926.91847  20941526.953    20941533.442
       240.000         202.000
  22033716.652     7012852.74749   5463373.37446  22033715.786    22033723.858
       224.000         175.000
  21500839.895     2788726.86349   2178013.05547  21500839.009    21500844.722
       237.000         195.000
  23328928.800    -3080668.36149  -2392219.31245  23328928.329    23328936.136
       215.000         151.000
  21195418.172    -3283303.54349  -2533501.90247  21195417.378    21195423.811
       242.000         205.000
 01  6 20 21 18 30.0000000  0 10G31G14G 3G23G29G15G17G18G 9G21
  23074851.301    -6355999.68049  -4933755.40045  23074849.424    23074858.147
       216.000         160.000
  21099461.368    -8069331.74049  -6273207.11147  21099460.707    21099466.331
       240.000         200.000
  21706189.384    -2297287.99849  -1775364.23847  21706188.748    21706196.072
       236.000         191.000
  22671959.760     3898242.24549   3034574.48846  22671958.700    22671965.975
       225.000         176.000
  21704203.624    -9238694.48849  -7172780.81846  21704202.803    21704210.730
       232.000         187.000
  20950524.272     4522898.64249   3529766.22847  20950523.424    20950530.282
       239.000         202.000
  22046954.760     7082419.33049   5517581.04346  22046954.231    22046961.883
       225.000         175.000
  21510302.549     2838453.80449   2216761.30847  21510301.988    21510307.433
       237.000         194.000
  23328422.734    -3083327.18549  -2394291.09845  23328421.320    23328429.908
       212.000         149.000
  21193078.709    -3295597.36449  -2543081.48647  21193077.828    21193084.601
       241.000         205.000
 01  6 20 21 19  0.0000000  0 10G31G14G 3G23G29G15G17G18G 9G21
  23066057.797    -6402209.20549  -4969762.79845  23066057.531    23066065.682
       218.000         160.000
  21086738.317    -8136191.68749  -6325305.69547  21086737.336    21086743.449
       238.000         200.000
  21708920.351    -2282936.64349  -1764181.39447  21708919.917    21708927.103
       236.000         191.000
  22682426.746     3953246.89649   3077435.23046  22682425.653    22682432.693
       225.000         175.000
  21689398.412    -9316495.89249  -7233405.20746  21689398.212    21689405.446
       232.000         187.000
  20959594.980     4570565.56549   3566909.26047  20959594.155    20959600.985
       239.000         202.000
  22060258.100     7152328.28949   5572055.49046  22060257.462    22060265.380
       224.000         176.000
  21519790.791     2888314.77149   2255614.00247  21519790.149    21519795.223
       239.000         195.000
  23328023.313    -3085425.28549  -2395925.93945  23328023.286    23328030.015
       216.000         149.000
  21190765.896    -3307751.06649  -2552551.88847  21190765.079    21190771.917
       242.000         205.000
 01  6 20 21 19 30.0000000  0 10G31G14G 3G23G29G15G17G18G 9G21
  23057363.798    -6447896.95749  -5005363.60945  23057363.190    23057371.056
       220.000         161.000
  21074101.443    -8202598.07449  -6377050.86347  21074100.574    21074106.476
       239.000         200.000
  21711756.537    -2268032.60449  -1752567.88547  21711756.014    21711763.227
       236.000         191.000
  22692900.487     4008286.96949   3120323.56146  22692899.682    22692907.178
       226.000         175.000
  21674662.116    -9393935.19849  -7293747.42546  21674661.764    21674669.115
       232.000         187.000
  20968739.660     4618621.04549   3604355.06247  20968738.784    20968745.467
       239.000         201.000
  22073626.154     7222578.07149   5626795.50746  22073625.267    22073633.475
       222.000         175.000
  21529304.142     2938307.58349   2294569.43147  21529303.763    21529308.664
       239.000         195.000
  23327730.771    -3086962.86349  -2397124.03645  23327729.339    23327739.086
       209.000         152.000
  21188479.527    -3319765.92749  -2561914.10447  21188478.861    21188485.587
       241.000         205.000
 01  6 20 21 20  0.0000000  0 10G31G14G 3G23G29G15G17G18G 9G21
  23048769.164    -6493061.12249  -5040556.43445  23048767.840    23048776.101
       219.000         160.000
  21061551.424    -8268548.85649  -6428441.01147  21061550.482    21061556.480
       239.000         200.000
  21714697.736    -2252576.25549  -1740524.00647  21714697.188    21714704.976
       235.000         191.000
  22703380.984     4063362.60949   3163239.61746  22703380.697    22703386.787
       226.000         175.000
  21659995.091    -9471010.33749  -7353805.87246  21659994.538    21660002.417
       231.000         187.000
  20977958.393     4667065.53349   3642103.99247  20977957.312    20977964.259
       239.000         201.000
  22087059.091     7293168.77349   5681801.19346  22087058.997    22087067.351
       224.000         174.000
  21538842.676     2988432.31149   2333627.65447  21538842.200    21538847.151
       239.000         195.000
  23327544.876    -3087938.70049  -2397884.50745  23327545.236    23327552.734
       217.000         154.000
  21186219.666    -3331641.58949  -2571167.85247  21186218.816    21186225.370
       241.000         205.000
 01  6 20 21 20 30.0000000  0 10G31G14G 3G23G29G15G17G18G 9G21
  23040274.546    -6537700.72649  -5075340.51945  23040273.850    23040281.354
       219.000         161.000
  21049088.182    -8334043.05949  -6479475.38547  21049087.300    21049093.065
       239.000         200.000
  21717743.862    -2236568.99949  -1728050.83947  21717743.439    21717750.981
       235.000         191.000
  22713868.231     4118473.12049   3206182.84146  22713867.797    22713875.010
       226.000         175.000
  21645397.650    -9547720.18249  -7413579.67347  21645397.223    21645404.360
       231.000         188.000
  20987250.993     4715898.66349   3680155.76647  20987249.889    20987257.037
       239.000         201.000
  22100556.887     7364099.63149   5737071.92846  22100556.463    22100563.697
       223.000         174.000
  21548405.990     3038687.74749   2372787.72147  21548405.429    21548410.580
       238.000         195.000
  23327466.548    -3088352.16449  -2398206.65045  23327465.492    23327472.770
       219.000         156.000
  21183986.049    -3343379.18349  -2580314.01147  21183985.182    21183991.780
       242.000         205.000
 01  6 20 21 21  0.0000000  0 10G31G14G 3G23G29G15G17G18G 9G21
  23031880.058    -6581814.86749  -5109715.14745  23031878.972    23031887.574
       219.000         162.000
  21036712.062    -8399079.82949  -6530153.32647  21036711.028    21036717.081
       239.000         200.000
  21720894.517    -2220012.07049  -1715149.36147  21720894.138    21720901.497
       235.000         190.000
  22724361.924     4173617.75349   3249152.65546  22724361.072    22724367.727
       225.000         174.000
  21630869.842    -9624063.83949  -7473068.14247  21630868.951    21630877.033
       232.000         188.000
  20996617.495     4765119.90649   3718509.94947  20996616.815    20996623.413
       239.000         201.000
  22114119.172     7435369.57349   5792606.87246  22114118.235    22114126.188
       222.000         174.000
  21557993.955     3089072.83049   2412048.80847  21557993.362    21557998.112
       239.000         195.000
  23327494.913    -3088202.87549  -2398090.28745  23327493.402    23327501.703
       214.000         152.000
  21181778.687    -3354978.96649  -2589352.79147  21181778.200    21181784.384
       242.000         205.000
 01  6 20 21 21 30.0000000  0 10G31G14G 3G23G29G15G17G18G 9G21
  23023585.748    -6625401.22249  -5143678.49945  23023584.944    23023593.417
       218.000         162.000
  21024423.432    -8463656.66249  -6580472.87547  21024422.745    21024428.458
       239.000         201.000
  21724149.861    -2202905.78349  -1701819.81447  21724149.494    21724156.631
       236.000         190.000
  22734862.412     4228797.30249   3292149.67146  22734862.592    22734868.644
       226.000         174.000
  21616412.260    -9700038.72249  -7532269.26447  21616411.760    21616419.193
       233.000         188.000
  21006058.070     4814730.17549   3757167.26347  21006057.429    21006064.110
       239.000         201.000
  22127746.039     7506979.15949   5848406.47646  22127745.960    22127753.357
       222.000         173.000
  21567606.746     3139587.79849   2451411.10547  21567606.327    21567611.090
       238.000         195.000
  23327630.681    -3087489.04849  -2397534.06145  23327630.587    23327638.684
       212.000         150.000
  21179597.643    -3366440.55249  -2598283.89447  21179596.940    21179603.583
       242.000         205.000
 01  6 20 21 22  0.0000000  0 10G31G14G 3G23G29G15G17G18G 9G21
  23015392.210    -6668458.43449  -5177229.55045  23015391.766    23015399.032
       218.000         162.000
  21012222.633    -8527772.15949  -6630432.93247  21012221.881    21012227.757
       240.000         201.000
  21727509.441    -2185250.98149  -1688062.84747  21727508.939    21727516.275
       235.000         190.000
  22745369.390     4284011.50349   3335173.69746  22745367.740    22745375.946
       226.000         173.000
  21602025.172    -9775643.27149  -7591181.80447  21602024.600    21602031.981
       233.000         189.000
  21015572.761     4864729.50249   3796127.74747  21015572.062    21015578.569
       239.000         201.000
  22141437.509     7578927.89549   5904470.35946  22141437.092    22141445.615
       223.000         173.000
  21577244.026     3190231.92549   2490874.04247  21577243.215    21577248.272
       238.000         195.000
  23327874.033    -3086209.74149  -2396537.21945  23327873.419    23327881.608
       215.000         152.000
  21177442.917    -3377763.71049  -2607107.12147  21177442.302    21177448.508
       242.000         205.000
 01  6 20 21 22 30.0000000  0 10G31G14G 3G23G29G15G17G18G 9G21
  23007299.493    -6710985.65949  -5210367.63345  23007299.378    23007307.071
       218.000         162.000
  21000109.760    -8591425.43949  -6680032.83747  21000109.097    21000114.649
       239.000         201.000
  21730973.166    -2167049.03349  -1673879.54947  21730973.100    21730979.862
       235.000         190.000
  22755882.780     4339259.97449   3378224.44146  22755881.881    22755888.596
       225.000         172.000
  21587708.677    -9850876.33149  -7649804.87447  21587708.071    21587715.704
       233.000         189.000
  21025161.299     4915117.57149   3835391.14847  21025160.594    21025167.151
       239.000         201.000
  22155193.394     7651215.09049   5960797.97446  22155192.799    22155200.626
       222.000         172.000
  21586905.662     3241004.06949   2530436.73947  21586904.897    21586910.322
       239.000         195.000
  23328225.172    -3084364.69749  -2395099.51645  23328224.476    23328232.018
       216.000         156.000
  21175314.276    -3388949.84949  -2615823.57747  21175313.476    21175319.853
       241.000         205.000
 01  6 20 21 23  0.0000000  0 10G31G14G 3G23G29G15G17G18G 9G21
  22999307.920    -6752981.63049  -5243091.73945  22999306.941    22999316.311
       219.000         162.000
  20988085.119    -8654615.36949  -6729271.68047  20988084.392    20988089.952
       240.000         202.000
  21734540.840    -2148301.00149  -1659270.72547  21734540.361    21734547.990
       235.000         190.000
  22766402.639     4394542.26249   3421301.51246  22766401.418    22766409.183
       225.000         171.000
  21573463.140    -9925736.78249  -7708137.60347  21573462.653    21573470.096
       233.000         189.000
  21034823.772     4965894.00249   3874957.16347  21034822.845    21034829.688
       239.000         200.000
  22169013.401     7723839.91849   6017388.68046  22169012.932    22169020.519
       223.000         172.000
  21596591.498     3291903.61249   2570098.70947  21596590.172    21596595.737
       238.000         194.000
  23328684.086    -3081953.52449  -2393220.70845  23328683.399    23328691.138
       217.000         156.000
  21173211.578    -3399999.51349  -2624433.68847  21173210.911    21173217.441
       242.000         205.000
 01  6 20 21 23 30.0000000  0 10G31G14G 3G23G29G15G17G18G 9G21
  22991417.499    -6794446.05549  -5275401.65545  22991417.033    22991425.316
       220.000         162.000
  20976148.873    -8717340.76749  -6778148.55247  20976147.915    20976153.625
       240.000         202.000
  21738212.112    -2129008.57849  -1644237.70547  21738211.379    21738218.807
       235.000         190.000
  22776928.825     4449857.72949   3464404.43646  22776928.211    22776935.146
       224.000         171.000
  21559288.767   -10000223.45149  -7766179.07947  21559288.405    21559295.753
       234.000         190.000
  21044559.911     5017058.12049   3914825.28147  21044559.355    21044565.863
       241.000         200.000
  22182897.720     7796801.49749   6074241.79146  22182896.740    22182905.240
       223.000         172.000
  21606301.351     3342929.36749   2609859.00647  21606301.109    21606306.190
       239.000         194.000
  23329250.840    -3078975.68349  -2390900.29545  23329249.227    23329257.766
       215.000         154.000
  21171134.768    -3410913.19749  -2632937.84247  21171133.859    21171140.323
       241.000         205.000
 01  6 20 21 24  0.0000000  0 10G31G14G 3G23G29G15G17G18G 9G21
  22983628.710    -6835376.64949  -5307295.60345  22983627.436    22983635.832
       220.000         162.000
  20964301.342    -8779599.66749  -6826661.92747  20964300.297    20964306.195
       239.000         202.000
  21741986.863    -2109171.95449  -1628780.63547  21741986.696    21741994.068
       235.000         190.000
  22787461.386     4505206.80949   3507533.54346  22787460.849    22787468.422
       225.000         171.000
  21545185.964   -10074333.97849  -7823927.45747  21545185.329    21545192.336
       231.000         190.000
  21054370.266     5068610.83049   3954996.18947  21054369.403    21054376.265
       239.000         201.000
  22196846.033     7870100.18949   6131357.57446  22196845.364    22196852.859
       220.000         172.000
  21616035.403     3394081.60949   2649717.87547  21616034.950    21616040.073
       238.000         194.000
  23329925.553    -3075429.55549  -2388137.06245  23329925.049    23329932.195
       212.000         146.000
  21169083.963    -3421689.94449  -2641335.29747  21169083.189    21169089.732
       242.000         205.000
 01  6 20 21 24 30.0000000  0 10G31G14G 3G23G29G15G17G18G 9G21
  22975941.592    -6875772.27649  -5338772.69745  22975940.787    22975949.008
       219.000         162.000
  20952542.785    -8841390.83049  -6874810.83247  20952541.987    20952547.899
       239.000         202.000
  21745864.994    -2088792.57149  -1612900.63947  21745864.451    21745871.749
       235.000         190.000
  22798000.343     4560589.16249   3550688.58646  22797999.214    22798006.731
       224.000         171.000
  21531154.913   -10148067.20349  -7881381.82447  21531154.502    21531161.265
       233.000         190.000
  21064254.325     5120551.97249   3995469.78447  21064253.591    21064260.378
       239.000         200.000
  22210858.352     7943735.28749   6188735.49646  22210858.383    22210865.429
       222.000         171.000
  21625793.273     3445359.55249   2689674.68847  21625792.415    21625798.036
       238.000         194.000
  23330708.509    -3071314.78549  -2384930.74945  23330708.137    23330715.430
       217.000         151.000
  21167059.185    -3432330.55649  -2649626.66147  21167058.540    21167064.781
       242.000         206.000
 01  6 20 21 25  0.0000000  0 10G31G14G 3G23G29G15G17G18G 9G21
  22968356.608    -6915632.22949  -5369832.36645  22968355.978    22968363.946
       221.000         162.000
  20940873.434    -8902713.57449  -6922594.72147  20940872.715    20940878.413
       239.000         202.000
  21749846.079    -2067872.11749  -1596599.02047  21749845.545    21749853.259
       235.000         190.000
  22808545.496     4616004.25849   3593869.16846  22808544.743    22808551.431
       224.000         170.000
  21517195.936   -10221421.99949  -7938541.31147  21517195.416    21517202.623
       233.000         190.000
  21074212.199     5172880.74249   4036245.43147  21074211.107    21074217.837
       239.000         200.000
  22224934.450     8017705.74349   6246374.75346  22224933.069    22224941.454
       222.000         171.000
  21635574.848     3496762.08249   2729728.58947  21635574.404    21635579.167
       238.000         194.000
  23331599.890    -3066631.17549  -2381281.20145  23331599.570    23331607.823
       220.000         157.000
  21165060.177    -3442835.61449  -2657812.40047  21165059.614    21165065.893
       242.000         206.000
 01  6 20 21 25 30.0000000  0 10G31G14G 3G23G29G15G17G18G 9G21
  22960873.809    -6954955.21049  -5400473.62946  22960873.638    22960880.921
       220.000         163.000
  20929293.496    -8963566.39449  -6970012.45147  20929292.752    20929298.273
       239.000         202.000
  21753929.988    -2046411.43549  -1579876.45947  21753929.318    21753936.857
       235.000         190.000
  22819096.932     4671451.83449   3637075.04146  22819096.298    22819102.963
       226.000         171.000
  21503309.128   -10294397.08949  -7995404.93047  21503308.669    21503315.973
       233.000         190.000
  21084243.863     5225597.19049   4077323.15147  21084242.942    21084249.447
       239.000         200.000
  22239074.398     8092011.03149   6304274.89446  22239073.919    22239082.389
       223.000         171.000
  21645380.036     3548288.52449   2769879.04147  21645379.476    21645384.584
       238.000         193.000
  23332599.579    -3061378.16649  -2377187.91245  23332599.108    23332606.903
       219.000         159.000
  21163086.763    -3453206.02049  -2665893.22947  21163086.200    21163092.377
       242.000         205.000
 01  6 20 21 26  0.0000000  0 10G31G14G 3G23G29G15G17G18G 9G21
  22953493.138    -6993740.45649  -5430695.87346  22953492.088    22953500.909
       222.000         163.000
  20917803.190    -9023948.33249  -7017063.26047  20917802.217    20917808.124
       239.000         202.000
  21758116.260    -2024412.11549  -1562734.17347  21758115.860    21758123.757
       235.000         190.000
  22829654.484     4726931.67149   3680306.04446  22829654.149    22829660.682
       226.000         172.000
  21489494.903   -10366991.18249  -8051971.66047  21489494.533    21489501.549
       232.000         191.000
  21094349.217     5278700.83649   4118702.58247  21094348.077    21094355.063
       238.000         199.000
  22253277.951     8166650.47249   6362435.40946  22253277.367    22253285.047
       222.000         171.000
  21655208.713     3599938.26749   2810125.57647  21655208.081    21655213.334
       238.000         193.000
  23333707.593    -3055555.25449  -2372650.60745  23333707.021    23333714.920
       214.000         157.000
  21161138.994    -3463441.52249  -2673868.93347  21161138.269    21161144.580
       242.000         206.000
 01  6 20 21 26 30.0000000  0 10G31G14G 3G23G29G15G17G18G 9G21
  22946215.267    -7031986.18549  -5460497.70946  22946214.266    22946222.851
       222.000         164.000
  20906402.753    -9083857.62749  -7063745.76747  20906401.949    20906407.398
       239.000         202.000
  21762405.130    -2001874.70449  -1545172.60247  21762404.301    21762412.513
       235.000         190.000
  22840218.288     4782444.21649   3723562.54046  22840217.756    22840224.963
       226.000         172.000
  21475753.486   -10439202.31549  -8108239.97847  21475752.826    21475760.241
       233.000         191.000
  21104528.249     5332192.06549   4160384.04047  21104527.230    21104533.963
       239.000         199.000
  22267545.035     8241624.10549   6420856.35446  22267544.730    22267551.919
       222.000         171.000
  21665060.826     3651711.35649   2850468.22147  21665060.041    21665065.456
       237.000         193.000
  23334924.371    -3049161.21149  -2367668.25745  23334923.549    23334931.085
       213.000         154.000
  21159217.001    -3473541.87549  -2681739.32347  21159216.269    21159222.677
       242.000         206.000
 01  6 20 21 27  0.0000000  0 10G31G14G 3G23G29G15G17G18G 9G21
  22939040.058    -7069691.95649  -5489878.78446  22939038.404    22939047.490
       221.000         165.000
  20895092.402    -9143293.58549  -7110059.44147  20895091.439    20895097.157
       239.000         202.000
  21766795.868    -1978801.09349  -1527193.21547  21766795.481    21766803.088
       234.000         190.000
  22850788.142     4837988.63649   3766843.87246  22850787.809    22850794.920
       226.000         172.000
  21462085.185   -10511029.65149  -8164209.23247  21462084.838    21462091.967
       233.000         191.000
  21114780.955     5386070.09949   4202366.88147  21114780.252    21114786.905
       239.000         199.000
  22281875.513     8316930.72449   6479536.75446  22281875.589    22281883.092
       222.000         171.000
  21674936.049     3703606.26349   2890905.78647  21674935.444    21674940.066
       237.000         192.000
  23336249.659    -3042196.12349  -2362240.89445  23336249.021    23336254.443
       216.000         149.000
  21157320.406    -3483508.65349  -2689505.62947  21157319.512    21157326.085
       242.000         205.000
 01  6 20 21 27 30.0000000  0 10G31G14G 3G23G29G15G17G18G 9G21
  22931967.654    -7106856.82349  -5518838.39446  22931966.930    22931974.569
       221.000         165.000
  20883872.341    -9202255.36349  -7156003.62647  20883871.796    20883877.317
       240.000         203.000
  21771288.400    -1955192.85249  -1508797.23347  21771288.321    21771295.751
       235.000         190.000
  22861363.919     4893564.56449   3810149.75146  22861363.407    22861370.695
       226.000         172.000
  21448490.076   -10582472.22549  -8219878.67347  21448489.580    21448496.668
       234.000         192.000
  21125107.196     5440334.60149   4244650.86947  21125106.333    21125113.174
       239.000         199.000
  22296269.172     8392569.26749   6538475.80246  22296269.164    22296276.956
       223.000         171.000
  21684834.430     3755622.30049   2931437.73947  21684833.872    21684839.073
       238.000         192.000
  23337683.905    -3034659.81649  -2356368.42545  23337683.648    23337691.684
       220.000         155.000
  21155449.258    -3493341.62149  -2697167.66647  21155448.328    21155454.793
       242.000         205.000
 01  6 20 21 28  0.0000000  0 10G31G14G 3G23G29G15G17G18G 9G21
  22924998.819    -7143478.69949  -5547374.89346  22924998.494    22925005.940
       222.000         165.000
  20872742.881    -9260740.85349  -7201576.68147  20872742.241    20872747.832
       240.000         203.000
  21775882.533    -1931050.58849  -1489985.12747  21775882.490    21775889.567
       237.000         190.000
  22871945.826     4949172.70349   3853480.75146  22871944.852    22871952.806
       226.000         172.000
  21434968.579   -10653527.89049  -8275246.62547  21434968.130    21434975.099
       234.000         192.000
  21135507.034     5494986.16849   4287236.46347  21135506.074    21135513.232
       240.000         200.000
  22310726.037     8468540.16249   6597673.83846  22310724.976    22310733.930
       223.000         171.000
  21694755.928     3807759.86749   2972064.39147  21694755.413    21694760.285
       237.000         191.000
  23339227.083    -3026551.01349  -2350049.88345  23339225.660    23339234.091
       218.000         159.000
  21153603.670    -3503040.20749  -2704724.98747  21153602.835    21153609.155
       242.000         206.000
 01  6 20 21 28 30.0000000  0 10G31G14G 3G23G29G15G17G18G 9G21
  22918133.284    -7179557.37349  -5575488.10846  22918132.137    22918140.775
       220.000         166.000
  20861704.182    -9318749.65449  -7246778.28447  20861703.283    20861708.938
       240.000         203.000
  21780578.000    -1906376.36249  -1470758.52047  21780577.660    21780584.870
       235.000         190.000
  22882533.669     5004812.01149   3896836.01646  22882532.742    22882539.968
       226.000         172.000
  21421520.792   -10724195.96549  -8330312.56747  21421520.100    21421527.279
       234.000         192.000
  21145980.334     5550023.54649   4330122.70047  21145979.383    21145986.055
       238.000         199.000
  22325245.976     8544841.94349   6657129.68546  22325245.484    22325252.749
       223.000         171.000
  21704700.189     3860017.53249   3012784.62647  21704699.529    21704704.818
       237.000         191.000
  23340878.857    -3017869.92949  -2343285.43645  23340878.866    23340885.572
       217.000         157.000
  21151783.387    -3512605.85249  -2712178.71847  21151782.406    21151788.858
       241.000         205.000
 01  6 20 21 29  0.0000000  0 10G31G14G 3G23G29G15G17G18G 9G21
  22911371.237    -7215091.33649  -5603176.87846  22911369.869    22911378.597
       219.000         166.000
  20850756.407    -9376280.25249  -7291607.26247  20850755.582    20850761.052
       239.000         203.000
  21785374.455    -1881170.78549  -1451117.86647  21785374.039    21785381.695
       236.000         190.000
  22893127.522     5060482.93149   3940215.92346  22893126.209    22893133.994
       224.000         172.000
  21408147.087   -10794474.71449  -8385075.13047  21408146.419    21408153.762
       235.000         193.000
  21156527.127     5605447.27049   4373309.99547  21156526.382    21156533.065
       239.000         199.000
  22339828.711     8621474.49949   6716843.29246  22339827.599    22339835.830
       222.000         171.000
  21714667.333     3912395.10949   3053598.29947  21714666.939    21714672.217
       237.000         191.000
  23342640.053    -3008615.73349  -2336074.36845  23342640.117    23342646.209
       218.000         158.000
  21149988.503    -3522037.76749  -2719528.24947  21149987.668    21149994.451
       241.000         205.000
 01  6 20 21 29 30.0000000  0 10G31G14G 3G23G29G15G17G18G 9G21
  22904713.122    -7250080.13749  -5630440.85846  22904712.767    22904719.463
       219.000         166.000
  20839899.808    -9433331.86149  -7336063.00847  20839899.078    20839904.419
       240.000         203.000
  21790271.764    -1855435.56149  -1431064.50347  21790271.419    21790279.029
       235.000         190.000
  22903727.218     5116184.95649   3983620.06946  22903726.810    22903733.568
       225.000         172.000
  21394847.740   -10864363.34149  -8439533.70247  21394847.265    21394854.049
       235.000         193.000
  21167147.375     5661256.65049   4416797.79047  21167146.260    21167153.411
       237.000         199.000
  22354474.085     8698436.65949   6776813.72446  22354473.390    22354480.480
       222.000         170.000
  21724657.149     3964891.62149   3094504.65147  21724656.503    21724661.757
       237.000         191.000
  23344510.130    -2998788.21549  -2328416.61845  23344509.472    23344517.047
       217.000         156.000
  21148218.951    -3531336.79849  -2726774.23947  21148218.383    21148224.579
       242.000         205.000
 01  6 20 21 30  0.0000000  0 10G31G14G 3G23G29G15G17G18G 9G21
  22898158.886    -7284522.49349  -5657279.03946  22898158.105    22898166.798
       219.000         167.000
  20829134.673    -9489902.96149  -7380144.32747  20829133.921    20829139.353
       240.000         203.000
  21795269.637    -1829172.00049  -1410599.44247  21795269.079    21795276.815
       235.000         189.000
  22914332.970     5171918.30349   4027048.60646  22914332.388    22914339.417
       225.000         172.000
  21381622.932   -10933859.97449  -8493686.83447  21381622.251    21381629.176
       236.000         194.000
  21177840.953     5717451.95649   4460586.30347  21177839.976    21177846.899
       238.000         198.000
  22369182.268     8775728.14849   6837040.78446  22369182.018    22369190.301
       221.000         170.000
  21734669.523     4017506.93249   3135503.57947  21734668.672    21734673.853
       236.000         191.000
  23346489.371    -2988386.92149  -2320311.68745  23346489.841    23346495.627
       222.000         154.000
  21146474.686    -3540502.97249  -2733916.70447  21146474.191    21146480.320
       243.000         206.000
 01  6 20 21 30 30.0000000  0 10G31G14G 3G23G29G15G17G18G 9G21
  22891708.749    -7318417.62449  -5683690.79746  22891708.130    22891715.695
       221.000         167.000
  20818461.051    -9545992.93449  -7423850.74347  20818460.050    20818465.493
       239.000         203.000
  21800367.626    -1802381.80449  -1389724.01847  21800367.290    21800374.498
       235.000         189.000
  22924944.593     5227682.58249   4070501.25746  22924944.051    22924951.159
       224.000         171.000
  21368472.765   -11002963.77649  -8547533.86747  21368472.334    21368479.360
       235.000         194.000
  21188607.870     5774032.58749   4504675.07147  21188606.873    21188614.055
       237.000         198.000
  22383952.925     8853348.15349   6897523.81946  22383952.192    22383959.883
       220.000         169.000
  21744704.309     4070240.33449   3176594.51947  21744703.835    21744708.980
       237.000         190.000
  23348578.106    -2977411.55949  -2311759.38345  23348577.986    23348585.039
       221.000         154.000
  21144755.560    -3549536.94449  -2740956.15147  21144754.701    21144761.018
       242.000         206.000
 01  6 20 21 31  0.0000000  0 10G31G14G 3G23G29G15G17G18G 9G21
  22885362.938    -7351765.81449  -5709676.38546  22885362.453    22885369.583
       220.000         167.000
  20807878.971    -9601601.45349  -7467181.99947  20807878.096    20807883.848
       240.000         203.000
  21805565.515    -1775066.99749  -1368439.80347  21805565.061    21805572.470
       234.000         189.000
  22935561.882     5283476.96249   4113977.35846  22935561.081    22935568.512
       224.000         171.000
  21355397.545   -11071674.20049  -8601074.36147  21355397.246    21355404.366
       235.000         194.000
  21199448.000     5830997.40149   4549063.19347  21199447.308    21199453.952
       238.000         198.000
  22398785.668     8931295.06249   6958261.59846  22398785.953    22398793.314
       221.000         168.000
  21754761.368     4123090.31449   3217776.29447  21754760.763    21754766.142
       236.000         191.000
  23350775.796    -2965862.57049  -2302760.16145  23350775.015    23350782.487
       217.000         154.000
  21143061.395    -3558439.69349  -2747893.34047  21143060.574    21143067.224
       241.000         206.000
 01  6 20 21 31 30.0000000  0 10G31G14G 3G23G29G15G17G18G 9G21
  22879121.347    -7384565.21249  -5735234.34846  22879120.295    22879129.576
       219.000         167.000
  20797389.002    -9656726.59649  -7510136.60247  20797388.268    20797393.773
       240.000         204.000
  21810863.127    -1747228.15649  -1346747.25147  21810862.874    21810870.314
       235.000         189.000
  22946185.130     5339302.32449   4157477.60346  22946184.857    22946191.888
       223.000         170.000
  21342397.592   -11139989.23649  -8654306.76547  21342396.626    21342404.019
       235.000         195.000
  21210361.287     5888346.87049   4593751.05747  21210360.173    21210367.547
       237.000         197.000
  22413680.810     9009568.93949   7019254.15546  22413679.792    22413689.323
       221.000         168.000
  21764840.671     4176057.21149   3259049.17647  21764839.875    21764845.803
       236.000         191.000
  23353082.766    -2953738.86549  -2293313.15845  23353082.308    23353088.560
       213.000         153.000
  21141392.390    -3567210.16549  -2754727.45947  21141391.719    21141398.181
       242.000         206.000
 01  6 20 21 32  0.0000000  0 10G31G14G 3G23G29G15G17G18G 9G21
  22872984.347    -7416814.44549  -5760363.60546  22872983.993    22872991.579
       221.000         168.000
  20786991.310    -9711366.85649  -7552713.36847  20786990.506    20786995.994
       240.000         204.000
  21816260.292    -1718866.47949  -1324647.29047  21816259.798    21816267.526
       234.000         189.000
  22956814.307     5395158.83549   4201002.11246  22956814.328    22956821.295
       223.000         170.000
  21329473.167   -11207907.12649  -8707229.69747  21329472.334    21329479.549
       235.000         195.000
  21221347.714     5946080.90549   4638738.58247  21221347.027    21221353.261
       238.000         197.000
  22428638.075     9088169.56849   7080501.31946  22428637.098    22428645.779
       220.000         167.000
  21774942.132     4229140.78749   3300412.97947  21774941.412    21774946.958
       236.000         190.000
  23355499.231    -2941040.12749  -2283418.05645  23355498.215    23355505.516
       214.000         153.000
  21139748.556    -3575848.79449  -2761458.84147  21139747.807    21139754.526
       242.000         206.000
 01  6 20 21 32 30.0000000  0 10G31G14G 3G23G29G15G17G18G 9G21
  22866952.464    -7448512.90049  -5785063.70046  22866951.809    22866959.789
       220.000         168.000
  20776685.935    -9765521.67649  -7594911.87547  20776685.410    20776690.723
       239.000         204.000
  21821756.411    -1689984.04149  -1302141.53847  21821755.953    21821763.707
       234.000         189.000
  22967449.342     5451045.90249   4244550.44446  22967449.406    22967455.566
       223.000         170.000
  21316624.373   -11275427.34149  -8759842.75747  21316624.278    21316630.862
       235.000         195.000
  21232407.333     6004199.05749   4684025.40647  21232406.251    21232413.354
       237.000         197.000
  22443657.148     9167095.82249   7142002.22446  22443656.220    22443664.488
       221.000         166.000
  21785065.724     4282340.37049   3341867.17347  21785065.343    21785069.991
       236.000         190.000
  23358024.987    -2927766.13349  -2273074.70445  23358024.506    23358032.383
       217.000         156.000
  21138129.682    -3584355.93949  -2768087.77547  21138128.958    21138135.360
       242.000         206.000
 01  6 20 21 33  0.0000000  0 10G31G14G 3G23G29G15G17G18G 9G21
  22861025.221    -7479660.55849  -5809334.59346  22861024.372    22861031.669
       221.000         168.000
  20766473.044    -9819190.81749  -7636731.93247  20766472.260    20766477.693
       240.000         205.000
  21827351.291    -1660583.01249  -1279231.69147  21827350.979    21827358.473
       235.000         188.000
  22978089.995     5506962.71249   4288121.94546  22978089.729    22978096.617
       223.000         170.000
  21303851.494   -11342549.20749  -8812145.42547  21303851.111    21303857.654
       235.000         195.000
  21243539.760     6062700.46749   4729610.87747  21243538.984    21243545.874
       237.000         197.000
  22458738.150     9246346.20049   7203755.68146  22458737.370    22458745.178
       220.000         166.000
  21795211.112     4335654.43949   3383410.57547  21795210.500    21795215.781
       235.000         190.000
  23360660.461    -2913917.18749  -2262283.33545  23360660.731    23360667.845
       222.000         160.000
  21136535.693    -3592732.37849  -2774614.86147  21136535.081    21136541.121
       242.000         206.000
 01  6 20 21 33 30.0000000  0 10G31G14G 3G23G29G15G17G18G 9G21
  22855203.097    -7510256.61449  -5833175.66146  22855202.702    22855210.528
       220.000         168.000
  20756352.738    -9872373.56749  -7678172.97847  20756351.867    20756357.258
       240.000         205.000
  21833044.595    -1630664.81149  -1255918.85347  21833044.038    21833051.709
       235.000         188.000
  22988736.331     5562909.25949   4331716.62446  22988735.869    22988743.417
       223.000         169.000
  21291154.646   -11409271.64049  -8864136.84047  21291154.031    21291160.832
       235.000         195.000
  21254745.052     6121584.50349   4775494.50247  21254744.237    21254750.904
       237.000         197.000
  22473880.499     9325919.99549   7265761.15846  22473881.026    22473887.726
       221.000         165.000
  21805378.101     4389082.72049   3425042.96747  21805377.181    21805382.780
       235.000         190.000
  23363405.313    -2899493.72149  -2251044.28745  23363404.642    23363412.069
       220.000         160.000
  21134966.539    -3600978.40249  -2781040.32047  21134965.638    21134972.253
       241.000         205.000
 01  6 20 21 34  0.0000000  0 10G31G14G 3G23G29G15G17G18G 9G21
  22849486.033    -7540300.11749  -5856586.17846  22849484.821    22849493.155
       222.000         168.000
  20746325.166    -9925068.51649  -7719233.93247  20746324.169    20746329.696
       240.000         205.000
  21838836.046    -1600231.00449  -1232204.25047  21838835.699    21838842.702
       235.000         189.000
  22999388.304     5618885.60749   4375334.51346  22999388.065    22999394.301
       223.000         169.000
  21278533.924   -11475593.47349  -8915816.10747  21278533.248    21278540.426
       236.000         195.000
  21266023.117     6180850.95749   4821676.11247  21266022.189    21266029.124
       237.000         197.000
  22489084.433     9405816.54549   7328018.13346  22489083.981    22489091.129
       222.000         165.000
  21815566.784     4442624.49749   3466763.80047  21815566.198    21815571.429
       235.000         190.000
  23366259.424    -2884495.20449  -2239357.10845  23366259.025    23366266.217
       216.000         154.000
  21133422.082    -3609094.39849  -2787364.46747  21133421.347    21133427.763
       241.000         205.000
 01  6 20 21 34 30.0000000  0 10G31G14G 3G23G29G15G17G18G 9G21
  22843874.296    -7569790.17649  -5879565.44346  22843872.706    22843881.127
       221.000         168.000
  20736390.653    -9977274.37049  -7759913.76247  20736389.856    20736395.070
       241.000         205.000
  21844725.348    -1569282.81849  -1208088.81847  21844724.342    21844733.028
       234.000         188.000
  23010045.903     5674891.97049   4418975.79546  23010045.327    23010052.251
       223.000         169.000
  21265989.732   -11541512.99349  -8967181.88547  21265989.302    21265995.972
       235.000         196.000
  21277373.843     6240499.71549   4868155.63947  21277373.201    21277379.945
       237.000         196.000
  22504349.680     9486035.30849   7390526.19946  22504347.914    22504357.022
       219.000         164.000
  21825777.103     4496279.88049   3508573.17047  21825776.319    21825781.762
       236.000         189.000
  23369223.100    -2868921.07549  -2227221.40145  23369222.834    23369228.558
       213.000         147.000
  21131902.486    -3617079.92349  -2793586.93947  21131901.549    21131908.042
       241.000         206.000
 01  6 20 21 35  0.0000000  0 10G31G14G 3G23G29G15G17G18G 9G21
  22838367.875    -7598725.86549  -5902112.72946  22838366.628    22838375.663
       223.000         168.000
  20726549.433   -10028990.20949  -7800211.76747  20726548.569    20726553.991
       239.000         205.000
  21850712.175    -1537821.55849  -1183573.60047  21850711.857    21850719.583
       235.000         188.000
  23020709.440     5730928.69349   4462640.73046  23020708.585    23020717.033
       224.000         170.000
  21253522.376   -11607028.99549  -9018233.23447  21253521.923    21253528.771
       235.000         196.000
  21288797.462     6300530.72649   4914933.02347  21288796.373    21288803.265
       237.000         196.000
  22519676.118     9566575.86949   7453284.99546  22519675.643    22519684.222
       219.000         165.000
  21836009.043     4550048.59849   3550470.85847  21836008.806    21836013.921
       235.000         189.000
  23372296.255    -2852771.19649  -2214637.09545  23372295.826    23372303.519
       214.000         150.000
  21130407.756    -3624934.88549  -2799707.68047  21130406.844    21130413.180
       241.000         206.000
 01  6 20 21 35 30.0000000  0 10G31G14G 3G23G29G15G17G18G 9G21
  22832967.239    -7627106.87449  -5924227.79146  22832965.507    22832974.713
       221.000         167.000
  20716801.533   -10080215.48349  -7840127.51747  20716800.547    20716806.109
       240.000         206.000
  21856796.318    -1505849.23849  -1158660.15147  21856795.815    21856803.554
       235.000         188.000
  23031378.589     5786995.25049   4506328.90846  23031377.419    23031385.357
       223.000         170.000
  21241132.098   -11672140.61049  -9068969.47947  21241131.531    21241138.081
       236.000         196.000
  21300293.621     6360943.09649   4962007.55747  21300293.354    21300299.538
       238.000         196.000
  22535063.590     9647437.06849   7516293.63746  22535062.881    22535070.881
       220.000         165.000
  21846262.267     4603929.63449   3592456.04847  21846261.678    21846267.159
       236.000         190.000
  23375479.077    -2836045.59949  -2201604.21045  23375478.273    23375486.334
       217.000         155.000
  21128937.809    -3632659.50749  -2805726.86147  21128936.841    21128943.349
       242.000         206.000
 01  6 20 21 36  0.0000000  0 10G31G14G 3G23G29G15G17G18G 9G21
  22827672.169    -7654932.62449  -5945910.21546  22827671.232    22827678.698
       221.000         167.000
  20707147.151   -10130949.40149  -7879660.39147  20707146.271    20707151.656
       240.000         206.000
  21862977.522    -1473367.45749  -1133349.71347  21862976.906    21862984.640
       235.000         188.000
  23042053.437     5843091.63649   4550040.34146  23042052.879    23042059.969
       223.000         170.000
  21228818.872   -11736846.77049  -9119389.78047  21228818.155    21228824.869
       235.000         196.000
  21311862.369     6421736.72049   5009379.17647  21311861.295    21311868.333
       237.000         196.000
  22550511.869     9728617.98649   7579551.42746  22550511.276    22550519.145
       220.000         164.000
  21856536.883     4657922.49649   3634528.37247  21856536.105    21856541.779
       236.000         190.000
  23378771.425    -2818744.30149  -2188122.70545  23378770.504    23378778.713
       220.000         158.000
  21127492.616    -3640254.21749  -2811644.80747  21127491.842    21127497.973
       242.000         206.000
 01  6 20 21 36 30.0000000  0 10G31G14G 3G23G29G15G17G18G 9G21
  22822482.851    -7682202.22049  -5967159.25046  22822482.664    22822489.473
       222.000         167.000
  20697586.482   -10181190.92149  -7918809.58547  20697585.710    20697591.084
       240.000         206.000
  21869255.318    -1440377.91549  -1107643.60747  21869254.830    21869262.453
       234.000         188.000
  23052733.958     5899217.79649   4593774.96846  23052733.435    23052740.272
       223.000         169.000
  21216582.966   -11801146.32149  -9169493.25447  21216582.036    21216589.045
       235.000         196.000
  21323503.489     6482910.96849   5057047.36947  21323502.776    21323509.478
       237.000         196.000
  22566020.848     9810117.95949   7643057.82446  22566019.780    22566028.407
       217.000         163.000
  21866832.677     4712026.94549   3676687.65947  21866831.877    21866837.102
       237.000         189.000
  23382173.371    -2800867.24049  -2174192.52445  23382173.028    23382179.722
       222.000         160.000
  21126072.124    -3647718.97149  -2817461.49347  21126071.365    21126077.471
       242.000         206.000
 01  6 20 21 37  0.0000000  0 10G31G14G 3G23G29G15G17G18G 9G21
  22817399.590    -7708914.89449  -5987974.32346  22817399.713    22817406.712
       223.000         167.000
  20688119.674   -10230939.24149  -7957574.46147  20688118.893    20688124.037
       240.000         206.000
  21875629.335    -1406882.22949  -1081543.11447  21875628.927    21875636.767
       234.000         188.000
  23063420.095     5955373.73149   4637532.79446  23063419.627    23063426.799
       222.000         169.000
  21204424.635   -11865038.18649  -9219279.04647  21204424.253    21204430.754
       236.000         196.000
  21335216.938     6544465.42149   5105011.83547  21335215.847    21335222.926
       237.000         196.000
  22581590.412     9891936.09749   7706812.12646  22581588.691    22581598.128
       216.000         163.000
  21877149.678     4766242.46349   3718933.49647  21877149.295    21877154.515
       237.000         189.000
  23385684.912    -2782414.41449  -2159813.71545  23385684.378    23385692.244
       221.000         161.000
  21124676.296    -3655054.05949  -2823177.13947  21124675.531    21124681.741
       241.000         205.000
 01  6 20 21 37 30.0000000  0 10G31G14G 3G23G29G15G17G18G 9G21
  22812422.538    -7735069.96549  -6008354.89646  22812421.839    22812429.815
       221.000         167.000
  20678746.854   -10280193.78149  -7995954.56947  20678746.122    20678751.399
       241.000         207.000
  21882099.337    -1372882.43249  -1055049.79147  21882099.168    21882106.526
       234.000         188.000
  23074111.902     6011559.28049   4681313.71446  23074111.485    23074118.791
       224.000         170.000
  21192344.167   -11928521.50549  -9268746.48947  21192343.426    21192350.350
       235.000         196.000
  21347002.570     6606399.41049   5153272.04047  21347001.738    21347008.415
       237.000         196.000
  22597220.096     9974071.26549   7770813.47546  22597220.410    22597227.061
       220.000         163.000
  21887487.560     4820568.34649   3761265.32847  21887486.349    21887491.809
       236.000         189.000
  23389305.962    -2763386.20749  -2144986.55845  23389305.361    23389313.601
       218.000         158.000
  21123305.039    -3662259.90249  -2828792.07247  21123304.341    21123310.653
       242.000         206.000
 01  6 20 21 38  0.0000000  0 10G31G14G 3G23G29G15G17G18G 9G21
  22807551.578    -7760667.15449  -6028300.76046  22807551.381    22807559.045
       223.000         167.000
  20669468.075   -10328953.81349  -8033949.35247  20669467.276    20669472.653
       240.000         207.000
  21888664.879    -1338380.26849  -1028165.03547  21888664.143    21888672.058
       234.000         188.000
  23084809.219     6067774.08149   4725117.40946  23084808.080    23084815.471
       223.000         169.000
  21180341.483   -11991595.36349  -9317894.87347  21180340.995    21180348.086
       236.000         196.000
  21358860.418     6668712.36949   5201827.54947  21358859.879    21358866.961
       237.000         196.000
  22612910.258    10056522.62449   7835061.21846  22612909.958    22612918.397
       216.000         163.000
  21897846.342     4875004.08649   3803682.76047  21897845.197    21897850.964
       235.000         188.000
  23393036.456    -2743782.78449  -2129711.16445  23393035.618    23393042.807
       212.000         150.000
  21121958.392    -3669336.53949  -2834306.33647  21121957.763    21121964.151
       242.000         206.000
 01  6 20 21 38 30.0000000  0 10G31G14G 3G23G29G15G17G18G 9G21
  22802786.858    -7785706.21149  -6047811.71746  22802786.210    22802793.871
       220.000         166.000
  20660283.528   -10377218.71449  -8071558.32247  20660282.894    20660287.894
       241.000         207.000
  21895325.726    -1303377.40449  -1000890.11546  21895325.052    21895332.629
       234.000         187.000
  23095512.171     6124018.29249   4768944.01646  23095511.720    23095517.901
       222.000         169.000
  21168416.928   -12054258.90749  -9366723.54447  21168416.300    21168423.170
       236.000         197.000
  21370790.221     6731403.88949   5250678.04647  21370789.280    21370796.325
       236.000         195.000
  22628660.247    10139289.26849   7899554.62846  22628660.215    22628667.892
       219.000         163.000
  21908225.936     4929549.17449   3846185.40447  21908224.941    21908230.601
       235.000         188.000
  23396876.180    -2723603.95249  -2113987.40945  23396875.150    23396882.996
       215.000         146.000
  21120636.275    -3676284.53049  -2839720.34647  21120635.378    21120641.870
       242.000         205.000
 01  6 20 21 39  0.0000000  0 10G31G14G 3G23G29G15G17G18G 9G21
  22798128.322    -7810186.09649  -6066886.94846  22798127.435    22798135.153
       223.000         166.000
  20651193.489   -10424987.29849  -8108780.54347  20651192.467    20651197.837
       240.000         207.000
  21902081.674    -1267875.39749   -973226.25946  21902081.205    21902088.870
       233.000         187.000
  23106220.799     6180292.28649   4812793.84246  23106219.587    23106227.646
       223.000         168.000
  21156570.760   -12116510.59149  -9415231.28247  21156570.241    21156576.726
       236.000         197.000
  21382791.975     6794473.68849   5299823.31847  21382791.052    21382798.244
       237.000         195.000
  22644470.117    10222370.58049   7964293.23146  22644469.230    22644477.981
       217.000         163.000
  21918626.238     4984203.39949   3888773.08247  21918625.401    21918631.108
       236.000         189.000
  23400825.711    -2702849.64749  -2097815.24145  23400826.505    23400833.103
       217.000         150.000
  21119338.666    -3683103.28549  -2845033.65647  21119337.817    21119343.833
       242.000         205.000
 01  6 20 21 39 30.0000000  0 10G31G14G 3G23G29G15G17G18G 9G21
  22793576.509    -7834106.84549  -6085526.49546  22793576.016    22793583.195
       222.000         165.000
  20642197.850   -10472259.35649  -8145615.87247  20642197.014    20642202.522
       241.000         208.000
  21908931.942    -1231876.67249   -945175.34646  21908931.672    21908938.924
       232.000         186.000
  23116935.044     6236595.46449   4856666.39346  23116934.859    23116942.220
       223.000         169.000
  21144803.104   -12178350.02349  -9463417.78647  21144802.488    21144809.382
       236.000         197.000
  21394865.636     6857920.81749   5349262.59947  21394864.773    21394871.484
       236.000         195.000
  22660339.677    10305765.31949   8029276.05446  22660338.534    22660347.403
       218.000         163.000
  21929047.245     5038966.02149   3931445.23247  21929046.337    21929052.032
       235.000         188.000
  23404884.502    -2681520.44549  -2081195.10345  23404882.397    23404890.396
       218.000         152.000
  21118065.546    -3689793.60049  -2850246.88647  21118064.988    21118070.931
       242.000         206.000
 01  6 20 21 40  0.0000000  0 10G31G14G 3G23G29G15G17G18G 9G21
  22789130.990    -7857467.77749  -6103729.82846  22789129.824    22789137.961
       220.000         165.000
  20633296.939   -10519033.86249  -8182063.49547  20633296.176    20633301.187
       241.000         208.000
  21915876.463    -1195382.63749   -916738.48246  21915875.795    21915883.516
       233.000         186.000
  23127654.856     6292928.18749   4900561.97946  23127654.148    23127661.095
       223.000         169.000
  21133114.042   -12239776.00049  -9511282.11747  21133113.520    21133120.271
       236.000         197.000
  21407010.908     6921744.74849   5398995.49447  21407010.235    21407017.246
       236.000         195.000
  22676268.639    10389472.54849   8094502.39245  22676268.306    22676276.106
       218.000         162.000
  21939488.725     5093836.60749   3974201.49547  21939488.228    21939493.301
       235.000         188.000
  23409052.616    -2659616.41949  -2064127.02645  23409051.731    23409059.554
       222.000         155.000
  21116816.828    -3696355.65549  -2855360.17647  21116816.052    21116822.406
       242.000         206.000
 01  6 20 21 40 30.0000000  0 10G31G14G 3G23G29G15G17G18G 9G21
  22784792.175    -7880268.28449  -6121496.46146  22784792.157    22784799.295
       222.000         165.000
  20624490.837   -10565310.21449  -8218122.94947  20624489.833    20624495.177
       240.000         208.000
  21922914.992    -1158395.02249   -887917.01046  21922914.472    21922922.591
       233.000         186.000
  23138380.365     6349290.63749   4944480.72446  23138379.913    23138386.276
       223.000         169.000
  21121503.986   -12300787.36349  -9558823.36647  21121503.487    21121510.294
       237.000         197.000
  21419227.887     6985945.34149   5449021.88347  21419227.198    21419233.725
       236.000         194.000
  22692256.970    10473491.51849   8159971.65445  22692256.478    22692264.815
       216.000         162.000
  21949950.862     5148814.84949   4017041.65647  21949950.176    21949955.377
       236.000         188.000
  23413330.195    -2637137.66149  -2046611.10445  23413330.399    23413337.723
       223.000         160.000
  21115592.660    -3702788.72849  -2860372.96247  21115591.970    21115598.217
       242.000         206.000
 01  6 20 21 41  0.0000000  0 10G31G14G 3G23G29G15G17G18G 9G21
  22780560.037    -7902508.48149  -6138826.49246  22780558.937    22780567.278
       221.000         165.000
  20615779.601   -10611087.64749  -8253793.63647  20615778.913    20615784.137
       242.000         208.000
  21930047.123    -1120916.07949   -858712.69446  21930047.104    21930054.531
       234.000         186.000
  23149111.432     6405682.67149   4988422.52746  23149110.384    23149118.429
       223.000         169.000
  21109972.893   -12361383.49149  -9606041.06547  21109972.300    21109978.825
       237.000         197.000
  21431516.491     7050521.75249   5499341.11247  21431515.600    21431522.754
       236.000         194.000
  22708304.399    10557821.26349   8225683.05845  22708304.398    22708312.557
       218.000         161.000
  21960433.369     5203900.35949   4059965.40847  21960432.899    21960437.839
       237.000         188.000
  23417717.207    -2614084.40249  -2028647.55245  23417715.553    23417724.497
       217.000         161.000
  21114392.951    -3709093.38649  -2865285.67347  21114392.021    21114398.536
       242.000         206.000
 01  6 20 21 41 30.0000000  0 10G31G14G 3G23G29G15G17G18G 9G21
  22776434.545    -7924187.60149  -6155719.30546  22776433.433    22776441.237
       222.000         165.000
  20607163.467   -10656365.68349  -8289075.18247  20607162.698    20607167.877
       240.000         208.000
  21937272.315    -1082947.60949   -829126.92546  21937271.833    21937279.743
       233.000         186.000
  23159848.042     6462104.28149   5032387.37246  23159847.571    23159854.617
       223.000         168.000
  21098520.941   -12421563.31249  -9652934.36447  21098520.228    21098526.909
       236.000         198.000
  21443876.447     7115473.64249   5549952.93347  21443875.354    21443882.734
       236.000         194.000
  22724410.946    10642460.80449   8291635.86345  22724410.478    22724418.958
       217.000         162.000
  21970936.092     5259092.61949   4102972.34547  21970935.288    21970940.895
       236.000         188.000
  23422213.241    -2590457.10049  -2010236.72645  23422212.590    23422219.822
       214.000         158.000
  21113217.531    -3715270.04949  -2870098.65247  21113216.624    21113223.191
       242.000         206.000
 01  6 20 21 42  0.0000000  0 10G31G14G 3G23G29G15G17G18G 9G21
  22772416.116    -7945305.52549  -6172174.83746  22772415.465    22772423.051
       221.000         166.000
  20598642.408   -10701144.12149  -8323967.42247  20598641.577    20598647.019
       240.000         208.000
  21944590.218    -1044491.74549   -799161.37246  21944589.557    21944597.508
       232.000         186.000
  23170590.234     6518555.18149   5076375.04846  23170589.135    23170596.692
       223.000         168.000
  21087148.287   -12481326.41049  -9699502.94547  21087147.721    21087154.491
       237.000         198.000
  21456307.609     7180799.87849   5600856.45047  21456306.878    21456313.601
       236.000         193.000
  22740576.071    10727408.68649   8357828.93345  22740575.947    22740583.740
       218.000         162.000
  21981459.002     5314391.12549   4146062.06446  21981458.393    21981464.007
       236.000         187.000
  23426818.680    -2566256.12149  -1991378.85845  23426817.732    23426825.801
       216.000         157.000
  21112066.477    -3721318.75649  -2874811.91947  21112065.691    21112072.049
       242.000         206.000
 01  6 20 21 42 30.0000000  0 10G31G14G 3G23G29G15G17G18G 9G21
  22768504.365    -7965861.70949  -6188192.63846  22768503.623    22768511.633
       223.000         166.000
  20590216.506   -10745422.03249  -8358469.64547  20590215.580    20590220.861
       240.000         208.000
  21952000.615    -1005550.23149   -768817.39846  21952000.426    21952007.876
       234.000         186.000
  23181338.128     6575035.67249   5120385.77546  23181337.684    23181344.674
       223.000         168.000
  21075855.302   -12540671.52849  -9745745.82847  21075854.899    21075861.493
       237.000         199.000
  21468810.013     7246500.12249   5652051.39947  21468809.153    21468816.301
       235.000         193.000
  22756799.776    10812664.33449   8424261.82445  22756798.616    22756807.358
       217.000         162.000
  21992002.056     5369795.40449   4189234.20046  21992000.955    21992007.018
       235.000         187.000
  23431533.032    -2541481.77249  -1972074.18745  23431531.668    23431539.270
       216.000         155.000
  21110939.851    -3727239.24149  -2879425.27447  21110939.041    21110945.733
       242.000         206.000
 01  6 20 21 43  0.0000000  0 10G31G14G 3G23G29G15G17G18G 9G21
  22764699.710    -7985855.40449  -6203772.13746  22764699.466    22764706.959
       222.000         167.000
  20581886.129   -10789198.41649  -8392581.07247  20581885.277    20581890.857
       240.000         208.000
  21959503.199     -966124.53849   -738096.14146  21959502.493    21959510.265
       233.000         186.000
  23192091.740     6631545.89149   5164419.66946  23192090.670    23192098.154
       221.000         167.000
  21064642.046   -12599597.56449  -9791662.14847  21064641.522    21064648.013
       238.000         199.000
  21481383.482     7312574.11049   5703537.57147  21481382.418    21481389.704
       235.000         193.000
  22773081.910    10898227.02049   8490933.93945  22773081.184    22773090.172
       217.000         161.000
  22002565.209     5425305.30449   4232488.64646  22002564.621    22002569.698
       235.000         186.000
  23436356.374    -2516133.85049  -1952322.57945  23436355.779    23436364.656
       217.000         154.000
  21109837.622    -3733031.34849  -2883938.59847  21109836.674    21109843.248
       242.000         206.000
 01  6 20 21 43 30.0000000  0 10G31G14G 3G23G29G15G17G18G 9G21
  22761002.007    -8005286.72449  -6218913.41846  22761000.987    22761009.112
       221.000         167.000
  20573651.197   -10832472.96249  -8426301.45547  20573650.398    20573655.632
       240.000         208.000
  21967097.316     -926216.91549   -706999.35446  21967096.895    21967104.836
       233.000         186.000
  23202850.945     6688085.58149   5208476.54346  23202850.431    23202857.974
       220.000         167.000
  21053508.617   -12658103.73549  -9837251.31247  21053507.920    21053514.504
       237.000         199.000
  21494027.986     7379021.13349   5755314.41947  21494026.885    21494034.315
       235.000         193.000
  22789422.257    10984095.57849   8557844.42045  22789422.241    22789430.625
       217.000         162.000
  22013148.468     5480920.27049   4275824.96146  22013147.955    22013152.813
       235.000         186.000
  23441288.979    -2490213.08749  -1932124.56645  23441288.923    23441295.880
       221.000         156.000
  21108759.778    -3738695.51449  -2888352.23047  21108759.130    21108765.334
       242.000         206.000
 01  6 20 21 44  0.0000000  0 10G31G14G 3G23G29G15G17G18G 9G21
  22757411.529    -8024155.09849  -6233616.05346  22757410.493    22757418.808
       222.000         167.000
  20565511.928   -10875245.05249  -8459630.31447  20565511.093    20565516.423
       240.000         208.000
  21974782.856     -885829.49349   -675528.69946  21974782.285    21974790.411
       232.000         185.000
  23213615.783     6744655.15949   5252556.70146  23213615.139    23213622.007
       220.000         165.000
  21042455.266   -12716189.32049  -9882512.73847  21042454.662    21042461.278
       238.000         200.000
  21506743.277     7445840.50249   5807381.41247  21506742.072    21506749.441
       235.000         192.000
  22805820.597    11070269.10149   8624992.53845  22805819.630    22805828.628
       216.000         161.000
  22023751.632     5536640.05749   4319242.94646  22023750.505    22023756.573
       235.000         186.000
  23446330.666    -2463719.82949  -1911480.46445  23446329.364    23446337.531
       220.000         156.000
  21107706.267    -3744231.83849  -2892666.23847  21107705.540    21107711.822
       242.000         206.000
 01  6 20 21 44 30.0000000  0 10G31G14G 3G23G29G15G17G18G 9G21
  22753928.163    -8042460.58549  -6247880.07446  22753927.804    22753934.850
       222.000         168.000
  20557468.238   -10917514.45649  -8492567.47947  20557467.391    20557472.556
       240.000         208.000
  21982559.298     -844964.15149   -643685.63946  21982558.811    21982566.852
       233.000         185.000
  23224386.306     6801254.29349   5296659.88046  23224385.662    23224392.272
       218.000         164.000
  21031482.078   -12773853.64949  -9927445.91647  21031481.658    21031487.810
       237.000         200.000
  21519529.302     7513031.26449   5859737.79247  21519528.400    21519535.437
       236.000         192.000
  22822276.848    11156746.26049   8692377.24945  22822276.107    22822283.640
       217.000         160.000
  22034374.580     5592464.08849   4362742.16446  22034374.310    22034379.670
       235.000         186.000
  23451480.944    -2436654.65149  -1890390.73945  23451480.908    23451487.761
       221.000         158.000
  21106676.977    -3749640.55349  -2896880.81547  21106676.082    21106682.610
       241.000         206.000
 01  6 20 21 45  0.0000000  0 10G31G14G 3G23G29G15G17G18G 9G21
  22750551.838    -8060203.01449  -6261705.33946  22750550.941    22750559.039
       222.000         168.000
  20549520.360   -10959280.94949  -8525112.75747  20549519.534    20549524.803
       242.000         208.000
  21990426.269     -803623.30649   -611472.05146  21990425.575    21990433.443
       233.000         184.000
  23235162.466     6857883.10249   5340786.17446  23235161.852    23235169.119
       220.000         164.000
  21020589.171   -12831095.91149  -9972050.21047  21020588.669    21020595.064
       238.000         200.000
  21532385.929     7580592.75549   5912383.06347  21532385.300    21532392.178
       235.000         192.000
  22838790.396    11243525.82649   8759997.60145  22838789.095    22838798.637
       216.000         159.000
  22045017.369     5648391.88549   4406322.23746  22045016.493    22045021.884
       235.000         186.000
  23456740.056    -2409018.27149  -1868855.89845  23456739.807    23456746.614
       222.000         161.000
  21105671.991    -3754921.84649  -2900996.09947  21105671.298    21105677.774
       242.000         206.000
 01  6 20 21 45 30.0000000  0 10G31G14G 3G23G29G15G17G18G 9G21
  22747282.679    -8077382.14949  -6275091.66246  22747281.435    22747289.739
       223.000         169.000
  20541668.314   -11000543.58349  -8557265.41747  20541667.370    20541672.767
       241.000         209.000
  21998383.472     -761808.42849   -578889.09146  21998383.116    21998390.483
       232.000         184.000
  23245944.277     6914541.88749   5384935.83746  23245943.618    23245950.794
       220.000         163.000
  21009776.743   -12887915.28349 -10016324.98347  21009776.504    21009782.846
       237.000         200.000
  21545312.980     7648524.62649   5965316.93647  21545312.171    21545319.703
       235.000         192.000
  22855361.395    11330607.20149   8827853.14145  22855360.993    22855369.437
       217.000         159.000
  22055679.791     5704423.29749   4449983.04846  22055679.421    22055684.413
       235.000         186.000
  23462107.810    -2380810.70949  -1846875.99545  23462107.561    23462113.957
       219.000         160.000
  21104691.351    -3760075.23249  -2905011.72047  21104690.647    21104696.805
       242.000         206.000
 01  6 20 21 46  0.0000000  0 10G31G14G 3G23G29G15G17G18G 9G21
  22744121.039    -8093997.05049  -6288038.34246  22744120.603    22744128.639
       222.000         170.000
  20533912.307   -11041301.52649  -8589024.81547  20533911.409    20533916.766
       242.000         209.000
  22006430.507     -719521.09549   -545937.98946  22006429.786    22006438.015
       232.000         184.000
  23256731.905     6971231.13549   5429109.21846  23256731.620    23256738.825
       222.000         164.000
  20999045.098   -12944310.33849 -10060269.12147  20999044.474    20999051.068
       238.000         200.000
  21558310.475     7716826.43849   6018539.08147  21558309.523    21558316.861
       236.000         192.000
  22871989.717    11417989.63249   8895943.25945  22871988.922    22871997.809
       215.000         158.000
  22066362.036     5760558.42149   4493724.68346  22066361.896    22066366.692
       235.000         186.000
  23467584.233    -2352031.85449  -1824450.93045  23467583.870    23467591.088
       218.000         158.000
  21103735.089    -3765100.39449  -2908927.42347  21103734.309    21103740.568
       242.000         206.000
 01  6 20 21 46 30.0000000  0 10G31G14G 3G23G29G15G17G18G 9G21
  22741066.455    -8110048.85149  -6300546.23646  22741065.868    22741073.711
       220.000         170.000
  20526252.289   -11081555.31049  -8620391.36547  20526251.502    20526256.725
       242.000         209.000
  22014566.797     -676764.70149   -512621.38946  22014566.663    22014574.008
       232.000         184.000
  23267525.269     7027949.86149   5473305.57846  23267524.658    23267532.688
       221.000         164.000
  20988394.098   -13000281.35649 -10103882.84147  20988393.627    20988400.098
       238.000         200.000
  21571378.058     7785496.70749   6072048.32947  21571376.966    21571384.337
       234.000         191.000
  22888675.199    11505671.20349   8964266.46345  22888675.040    22888683.137
       216.000         158.000
  22077063.759     5816795.98149   4537546.12246  22077062.777    22077068.293
       234.000         186.000
  23473169.080    -2322683.33149  -1801581.97645  23473168.194    23473176.950
       218.000         160.000
  21102802.905    -3769998.95849  -2912744.48347  21102802.254    21102808.658
       242.000         206.000
 01  6 20 21 47  0.0000000  0 10G31G14G 3G23G29G15G17G18G 9G21
  22738119.091    -8125537.01849  -6312614.95146  22738119.298    22738126.695
       223.000         170.000
  20518688.365   -11121303.92649  -8651364.26947  20518687.468    20518692.543
       241.000         209.000
  22022792.123     -633540.69149   -478940.40546  22022791.948    22022799.557
       233.000         184.000
  23278324.261     7084698.63649   5517525.34446  23278323.212    23278331.119
       221.000         163.000
  20977823.995   -13055827.25449 -10147165.29847  20977823.695    20977829.757
       238.000         200.000
  21584515.568     7854535.14349   6125844.46747  21584515.161    21584521.445
       235.000         191.000
  22905417.126    11593651.18949   9032822.22645  22905415.511    22905424.204
       215.000         157.000
  22087784.867     5873135.80749   4581447.25246  22087783.955    22087789.308
       233.000         185.000
  23478862.312    -2292765.15349  -1778269.14345  23478861.852    23478870.281
       218.000         162.000
  21101895.019    -3774770.19149  -2916462.32447  21101894.183    21101900.293
       242.000         206.000
 01  6 20 21 47 30.0000000  0 10G31G14G 3G23G29G15G17G18G 9G21
  22735279.151    -8140461.72649  -6324244.59146  22735278.764    22735286.066
       223.000         171.000
  20511220.506   -11160547.58649  -8681943.70847  20511219.638    20511224.805
       242.000         209.000
  22031105.869     -589851.78649   -444897.15946  22031105.013    22031112.801
       232.000         184.000
  23289128.835     7141477.17549   5561768.30446  23289127.672    23289135.629
       220.000         163.000
  20967334.938   -13110947.56349 -10190116.13047  20967334.436    20967341.015
       238.000         201.000
  21597723.043     7923940.34649   6179926.38247  21597722.218    21597729.116
       234.000         191.000
  22922215.763    11681928.15149   9101609.39045  22922214.561    22922225.181
       215.000         157.000
  22098525.379     5929577.26849   4625427.58446  22098525.039    22098530.066
       233.000         185.000
  23484663.766    -2262278.44349  -1754513.32346  23484663.256    23484671.294
       219.000         164.000
  21101011.209    -3779414.55849  -2920081.30847  21101010.424    21101016.913
       242.000         206.000
 01  6 20 21 48  0.0000000  0 10G31G14G 3G23G29G15G17G18G 9G21
  22732546.342    -8154822.52849  -6335434.82846  22732545.077    22732553.527
       224.000         171.000
  20503848.850   -11199285.58549  -8712129.12547  20503848.041    20503853.399
       241.000         209.000
  22039507.901     -545699.44949   -410492.81346  22039507.596    22039515.351
       231.000         184.000
  23299939.166     7198286.08749   5606034.94646  23299938.428    23299946.019
       221.000         163.000
  20956926.995   -13165641.26649 -10232734.54547  20956926.392    20956933.331
       238.000         201.000
  21611000.141     7993712.25349   6234294.04947  21610999.336    21611006.681
       234.000         190.000
  22939070.779    11770501.45749   9170627.46345  22939070.362    22939079.079
       216.000         156.000
  22109285.192     5986120.56349   4669487.27246  22109285.100    22109290.173
       232.000         185.000
  23490573.410    -2231223.36049  -1730314.56346  23490573.304    23490581.345
       220.000         163.000
  21100151.673    -3783931.46149  -2923600.97047  21100151.039    21100157.305
       241.000         206.000
 01  6 20 21 48 30.0000000  0 10G31G14G 3G23G29G15G17G18G 9G21
  22729920.919    -8168619.85949  -6346186.00946  22729920.903    22729928.193
       224.000         172.000
  20496573.501   -11237517.74149  -8741920.37847  20496572.498    20496577.851
       241.000         209.000
  22047997.534     -501086.27149   -375729.35246  22047997.059    22048004.919
       231.000         184.000
  23310755.252     7255124.82149   5650324.82946  23310755.240    23310762.448
       220.000         163.000
  20946600.350   -13219907.97349 -10275020.23547  20946600.190    20946606.279
       239.000         201.000
  21624346.907     8063849.83249   6288946.65447  21624345.947    21624353.455
       234.000         190.000
  22955981.815    11859369.40349   9239875.13745  22955982.074    22955989.150
       218.000         156.000
  22120064.190     6042764.97849   4713625.74846  22120063.029    22120068.682
       232.000         184.000
  23496590.935    -2199600.95149  -1705673.73045  23496590.199    23496598.525
       218.000         160.000
  21099316.274    -3788321.38049  -2927021.67847  21099315.488    21099321.856
       242.000         206.000
 01  6 20 21 49  0.0000000  0 10G31G14G 3G23G29G15G17G18G 9G21
  22727402.751    -8181853.05049  -6356497.59346  22727401.837    22727410.255
       224.000         172.000
  20489394.490   -11275243.31849  -8771316.90147  20489393.638    20489398.871
       242.000         209.000
  22056574.457     -456014.07149   -340608.21546  22056573.792    22056582.223
       232.000         184.000
  23321577.141     7311994.01449   5694638.43945  23321575.409    23321584.445
       219.000         161.000
  20936355.181   -13273746.55849 -10316972.32347  20936354.753    20936360.973
       238.000         201.000
  21637763.181     8134352.72649   6343883.91947  21637762.289    21637769.173
       234.000         190.000
  22972948.992    11948531.32549   9309351.87945  22972947.599    22972958.150
       214.000         156.000
  22130862.419     6099510.28949   4757842.83846  22130861.314    22130867.028
       232.000         183.000
  23502716.351    -2167411.46949  -1680591.04245  23502715.918    23502723.250
       215.000         157.000
  21098505.103    -3792584.08349  -2930343.26047  21098504.369    21098510.678
       242.000         206.000
 01  6 20 21 49 30.0000000  0 10G31G14G 3G23G29G15G17G18G 9G21
  22724991.942    -8194521.97349  -6366369.49446  22724991.176    22724998.677
       225.000         172.000
  20482311.964   -11312462.06349  -8800318.48747  20482311.041    20482316.185
       241.000         209.000
  22065238.395     -410485.07449   -305131.14146  22065237.884    22065246.152
       231.000         183.000
  23332404.734     7368893.75049   5738975.85245  23332403.103    23332411.307
       217.000         159.000
  20926191.494   -13327156.68449 -10358590.54147  20926191.009    20926197.445
       238.000         201.000
  21651248.966     8205220.23449   6399105.29947  21651248.423    21651255.086
       234.000         190.000
  22989971.612    12037986.07649   9379056.80245  22989971.044    22989979.907
       214.000         155.000
  22141679.828     6156356.41549   4802138.49146  22141678.605    22141684.527
       231.000         183.000
  23508949.586    -2134655.29949  -1655066.77945  23508949.863    23508956.997
       217.000         156.000
  21097718.210    -3796719.17249  -2933565.39747  21097717.324    21097723.887
       242.000         206.000
 01  6 20 21 50  0.0000000  0 10G31G14G 3G23G29G15G17G18G 9G21
  22722688.434    -8206627.09549  -6375802.05746  22722687.361    22722695.507
       224.000         172.000
  20475325.898   -11349173.88649  -8828925.06847  20475325.037    20475330.358
       241.000         209.000
  22073988.814     -364501.38049   -269299.76146  22073988.616    22073996.655
       231.000         183.000
  23343238.239     7425824.18049   5783337.17945  23343236.464    23343244.982
       218.000         159.000
  20916109.538   -13380137.48349 -10399874.22547  20916108.779    20916115.443
       238.000         202.000
  21664803.866     8276451.46749   6454610.10747  21664802.909    21664809.906
       234.000         189.000
  23007049.854    12127732.47549   9448988.96245  23007047.612    23007058.419
       212.000         155.000
  22152516.463     6213302.99149   4846512.41546  22152516.072    22152521.165
       232.000         183.000
  23515290.583    -2101333.57149  -1629101.80545  23515290.443    23515298.214
       219.000         156.000
  21096955.546    -3800726.72749  -2936688.15947  21096954.772    21096961.052
       242.000         206.000
 01  6 20 21 50 30.0000000  0 10G31G14G 3G23G29G15G17G18G 9G21
  22720492.176    -8218168.31149  -6384795.23846  22720492.101    22720498.969
       224.000         172.000
  20468436.375   -11385378.39349  -8857136.34747  20468435.657    20468440.892
       241.000         209.000
  22082825.384     -318065.18449   -233115.79146  22082825.148    22082832.851
       232.000         183.000
  23354077.695     7482785.50449   5827722.57445  23354077.169    23354085.139
       219.000         160.000
  20906109.448   -13432688.27049 -10440822.83147  20906109.262    20906115.420
       238.000         202.000
  21678427.809     8348045.38249   6510397.52847  21678426.468    21678433.718
       233.000         189.000
  23024183.241    12217769.48649   9519147.57845  23024183.180    23024191.973
       215.000         153.000
  22163372.128     6270349.48249   4890964.19346  22163371.197    22163376.371
       232.000         183.000
  23521739.144    -2067446.70849  -1602696.46245  23521739.249    23521746.360
       218.000         155.000
  21096217.135    -3804607.09949  -2939711.82747  21096216.233    21096222.893
       241.000         206.000
 01  6 20 21 51  0.0000000  0 10G31G14G 3G23G29G15G17G18G 9G21
  22718403.253    -8229145.94249  -6393349.25946  22718402.277    22718410.564
       225.000         172.000
  20461643.456   -11421075.45749  -8884952.21447  20461642.720    20461647.983
       241.000         209.000
  22091747.599     -271179.07249   -196581.21846  22091747.422    22091755.884
       230.000         183.000
  23364922.982     7539777.58749   5872131.93845  23364922.071    23364929.171
       218.000         160.000
  20896191.215   -13484808.84549 -10481436.20747  20896190.748    20896196.938
       238.000         201.000
  21692120.530     8420001.05949   6566466.83247  21692119.728    21692126.984
       233.000         189.000
  23041371.963    12308095.71949   9589531.57345  23041372.320    23041380.879
       213.000         153.000
  22174246.717     6327495.63649   4935493.62446  22174246.409    22174251.859
       232.000         182.000
  23528294.961    -2032995.84249  -1575851.62345  23528293.491    23528302.037
       215.000         152.000
  21095503.012    -3808359.89049  -2942636.08047  21095502.338    21095508.448
       242.000         205.000
 01  6 20 21 51 30.0000000  0 10G31G14G 3G23G29G15G17G18G 9G21
  22716421.529    -8239559.53349  -6401463.75646  22716420.439    22716428.518
       223.000         172.000
  20454947.199   -11456264.53349  -8912372.24647  20454946.405    20454951.410
       241.000         210.000
  22100755.137     -223844.75049   -159697.41446  22100754.896    22100762.659
       231.000         183.000
  23375774.183     7596800.94449   5916565.66545  23375773.269    23375781.003
       219.000         160.000
  20886355.011   -13536497.99949 -10521713.41747  20886354.618    20886360.602
       238.000         202.000
  21705882.001     8492317.87949   6622817.53947  21705881.161    21705888.629
       233.000         189.000
  23058615.425    12398710.39949   9660140.30845  23058614.014    23058623.206
       213.000         151.000
  22185140.284     6384741.34649   4980100.63546  22185139.847    22185145.245
       232.000         183.000
  23534957.909    -1997981.32349  -1548567.58745  23534957.758    23534965.775
       215.000         153.000
  21094813.150    -3811985.29149  -2945461.06647  21094812.215    21094818.759
       242.000         206.000
 01  6 20 21 52  0.0000000  0 10G31G14G 3G23G29G15G17G18G 9G21
  22714547.199    -8249409.51149  -6409139.08546  22714546.317    22714554.149
       225.000         172.000
  20448347.567   -11490945.77049  -8939396.55847  20448346.774    20448351.836
       242.000         210.000
  22109847.538     -176064.70749   -122466.29346  22109847.331    22109855.201
       231.000         183.000
  23386631.339     7653855.34749   5961023.57945  23386630.762    23386638.225
       219.000         160.000
  20876601.007   -13587755.67049 -10561654.40947  20876600.570    20876607.009
       239.000         202.000
  21719712.032     8564994.85449   6679448.88747  21719711.637    21719718.814
       233.000         188.000
  23075913.266    12489611.93749   9730972.60645  23075911.919    23075922.449
       212.000         150.000
  22196052.716     6442086.19249   5024784.88646  22196051.813    22196057.887
       232.000         182.000
  23541728.137    -1962404.35849  -1520845.29045  23541728.121    23541736.190
       215.000         154.000
  21094147.447    -3815483.42649  -2948186.89347  21094146.856    21094152.979
       243.000         206.000
 01  6 20 21 52 30.0000000  0 10G31G14G 3G23G29G15G17G18G 9G21
  22712779.985    -8258696.51649  -6416375.74546  22712779.280    22712786.639
       223.000         171.000
  20441844.512   -11525119.39149  -8966025.32847  20441843.796    20441848.929
       242.000         210.000
  22119023.935     -127841.94649    -84890.19246  22119023.828    22119031.387
       232.000         182.000
  23397494.367     7710940.36849   6005505.35045  23397493.862    23397501.085
       220.000         160.000
  20866929.068   -13638581.96949 -10601259.26847  20866928.426    20866934.903
       239.000         202.000
  21733610.371     8638030.83149   6736359.97947  21733609.715    21733617.173
       232.000         188.000
  23093265.964    12580798.55949   9802026.97245  23093267.474    23093274.974
       212.000         151.000
  22206983.794     6499529.22349   5069545.65446  22206983.475    22206988.592
       231.000         182.000
  23548605.130    -1926266.09249  -1492685.64745  23548604.760    23548612.974
       212.000         156.000
  21093506.014    -3818854.51249  -2950813.70747  21093505.450    21093511.648
       242.000         206.000
 01  6 20 21 53  0.0000000  0 10G31G14G 3G23G29G15G17G18G 9G21
  22711119.772    -8267420.25549  -6423173.48146  22711119.809    22711126.529
       224.000         171.000
  20435438.222   -11558784.61749  -8992257.94447  20435437.261    20435442.287
       242.000         210.000
  22128284.480      -79178.20749    -46970.46746  22128283.968    22128292.018
       230.000         182.000
  23408363.275     7768056.79349   6050011.58145  23408362.538    23408369.981
       219.000         161.000
  20857339.422   -13688975.66049 -10640527.02847  20857338.845    20857345.137
       239.000         202.000
  21747576.896     8711425.41249   6793550.50947  21747575.517    21747583.412
       232.000         188.000
  23110672.416    12672269.64949   9873303.06845  23110670.816    23110680.923
       210.000         151.000
  22217933.573     6557070.67949   5114383.12246  22217932.735    22217938.461
       231.000         182.000
  23555588.763    -1889566.94049  -1464088.94945  23555588.006    23555596.183
       212.000         156.000
  21092888.804    -3822098.03449  -2953341.12547  21092888.027    21092894.325
       242.000         206.000
 01  6 20 21 53 30.0000000  0 10G31G14G 3G23G29G15G17G18G 9G21
  22709567.020    -8275580.43849  -6429532.09446  22709566.075    22709574.519
       225.000         172.000
  20429128.860   -11591940.63349  -9018093.77247  20429128.129    20429133.113
       241.000         210.000
  22137628.413      -30075.16249     -8708.43246  22137627.330    22137636.414
       229.000         182.000
  23419238.332     7825205.21649   6094542.74945  23419237.569    23419245.234
       217.000         160.000
  20847832.334   -13738935.39149 -10679456.64247  20847831.976    20847838.130
       239.000         203.000
  21761611.554     8785178.11249   6851020.09547  21761610.451    21761618.132
       233.000         188.000
  23128132.641    12764024.51849   9944800.28445  23128131.808    23128140.521
       210.000         151.000
  22228902.113     6614710.86449   5159297.51246  22228901.302    22228906.822
       230.000         181.000
  23562678.798    -1852307.24949  -1435055.46245  23562677.738    23562686.039
       213.000         157.000
  21092295.902    -3825213.63449  -2955768.87047  21092295.068    21092301.415
       241.000         206.000
 01  6 20 21 54  0.0000000  0 10G31G14G 3G23G29G15G17G18G 9G21
  22708121.405    -8283177.90449  -6435452.23046  22708120.385    22708128.604
       224.000         172.000
  20422916.197   -11624588.29049  -9043533.47747  20422915.470    20422920.685
       242.000         210.000
  22147055.572       19464.36449     29893.71446  22147055.263    22147063.395
       230.000         182.000
  23430119.349     7882385.27449   6139098.59745  23430117.817    23430127.013
       217.000         159.000
  20838407.821   -13788461.60849 -10718048.44947  20838407.161    20838413.667
       239.000         203.000
  21775714.203     8859287.53449   6908767.62546  21775713.317    21775720.989
       232.000         187.000
  23145646.882    12856061.53149  10016517.31345  23145647.422    23145655.629
       214.000         151.000
  22239889.259     6672448.93949   5204288.17846  22239888.815    22239894.453
       230.000         181.000
  23569875.395    -1814488.42849  -1405586.28245  23569874.705    23569883.234
       217.000         160.000
  21091727.269    -3828201.81449  -2958097.31747  21091726.332    21091732.903
       242.000         206.000
 01  6 20 21 54 30.0000000  0 10G31G14G 3G23G29G15G17G18G 9G21
  22706782.497    -8290213.44649  -6440934.50846  22706782.741    22706789.416
       226.000         172.000
  20416800.195   -11656728.03849  -9068577.40747  20416799.374    20416804.386
       242.000         210.000
  22156565.121       69437.30749     68833.59546  22156564.799    22156572.834
       231.000         182.000
  23441006.231     7939596.58149   6183678.79145  23441005.560    23441013.744
       220.000         160.000
  20829065.719   -13837554.27049 -10756302.42347  20829065.148    20829071.346
       240.000         203.000
  21789884.276     8933752.14649   6966791.94046  21789883.248    21789890.942
       233.000         187.000
  23163214.642    12948378.51849  10088452.54045  23163214.091    23163223.170
       213.000         151.000
  22250894.892     6730283.91449   5249354.34746  22250894.406    22250900.080
       232.000         181.000
  23577178.320    -1776111.96749  -1375682.57445  23577178.399    23577185.723
       217.000         161.000
  21091182.745    -3831063.17149  -2960326.94147  21091181.999    21091188.179
       243.000         206.000
 01  6 20 21 55  0.0000000  0 10G31G14G 3G23G29G15G17G18G 9G21
  22705550.774    -8296686.83249  -6445978.73046  22705549.845    22705557.668
       225.000         172.000
  20410781.004   -11688358.93649  -9093224.83047  20410780.201    20410785.333
       240.000         210.000
  22166157.002      119842.02749    108109.92646  22166157.289    22166164.718
       229.000         182.000
  23451899.311     7996839.92949   6228283.95445  23451899.058    23451906.717
       221.000         162.000
  20819806.386   -13886212.31749 -10794217.73547  20819805.698    20819811.911
       239.000         203.000
  21804122.042     9008571.60849   7025092.76046  21804120.841    21804128.985
       231.000         187.000
  23180835.273    13040975.07749  10160605.59545  23180834.602    23180843.850
       211.000         151.000
  22261919.125     6788216.37149   5294496.48346  22261918.465    22261923.804
       231.000         181.000
  23584587.337    -1737178.09449  -1345344.52945  23584587.020    23584594.902
       216.000         160.000
  21090662.597    -3833796.55949  -2962456.84847  21090661.679    21090668.162
       242.000         206.000
 01  6 20 21 55 30.0000000  0 10G31G14G 3G23G29G15G17G18G 9G21
  22704425.778    -8302598.60849  -6450585.34446  22704425.233    22704432.962
       226.000         172.000
  20404858.608   -11719481.06049  -9117475.81147  20404857.861    20404862.878
       241.000         210.000
  22175830.540      170676.16049    147720.86146  22175829.852    22175838.078
       229.000         181.000
  23462798.594     8054115.13649   6272913.92446  23462798.463    23462806.151
       223.000         163.000
  20810629.756   -13934435.50649 -10831794.19947  20810629.231    20810635.583
       239.000         203.000
  21818427.028     9083744.77249   7083669.20146  21818426.488    21818434.008
       232.000         187.000
  23198508.701    13133849.66149  10232975.31945  23198508.327    23198517.114
       212.000         150.000
  22272961.796     6846245.73849   5339714.13446  22272960.720    22272966.535
       230.000         180.000
  23592102.051    -1697688.19949  -1314573.22945  23592101.048    23592108.891
       215.000         159.000
  21090166.730    -3836402.43049  -2964487.39547  21090166.092    21090172.511
       243.000         206.000
 01  6 20 21 56  0.0000000  0 10G31G14G 3G23G29G15G17G18G 9G21
  22703407.761    -8307948.63649  -6454754.22146  22703407.198    22703415.261
       224.000         172.000
  20399033.104   -11750094.22149  -9141330.19647  20399032.564    20399037.372
       242.000         210.000
  22185585.214      221937.23449    187664.48146  22185585.069    22185592.952
       229.000         181.000
  23473704.000     8111422.61549   6317569.02845  23473703.233    23473710.776
       220.000         161.000
  20801536.028   -13982223.09449 -10869031.22747  20801535.327    20801541.655
       239.000         203.000
  21832799.341     9159271.21349   7142520.91746  21832798.328    21832805.860
       233.000         187.000
  23216234.754    13227001.24849  10305560.87045  23216233.586    23216243.550
       213.000         151.000
  22284022.905     6904372.08549   5385007.35346  22284022.043    22284027.826
       230.000         180.000
  23599722.398    -1657643.05149  -1283369.25845  23599722.192    23599729.541
       218.000         160.000
  21089695.225    -3838880.48049  -2966418.34647  21089694.578    21089700.919
       243.000         206.000
 01  6 20 21 56 30.0000000  0 10G31G14G 3G23G29G15G17G18G 9G21
  22702496.558    -8312736.59249  -6458485.12546  22702495.260    22702504.067
       223.000         171.000
  20393304.583   -11780197.85849  -9164787.54547  20393303.800    20393308.974
       241.000         210.000
  22195420.734      273623.46149    227939.39946  22195420.240    22195428.647
       229.000         181.000
  23484615.591     8168763.39149   6362250.10645  23484614.750    23484622.961
       219.000         158.000
  20792525.408   -14029573.91049 -10905927.91747  20792525.184    20792531.572
       239.000         203.000
  21847238.743     9235150.48549   7201647.56846  21847237.802    21847245.394
       232.000         186.000
  23234013.751    13320429.24149  10378361.79945  23234014.127    23234022.702
       213.000         153.000
  22295102.553     6962595.73649   5430376.39046  22295101.802    22295107.228
       229.000         180.000
  23607448.325    -1617042.99949  -1251732.86846  23607448.144    23607456.041
       221.000         163.000
  21089248.160    -3841229.92149  -2968249.08147  21089247.438    21089253.803
       242.000         206.000
 01  6 20 21 57  0.0000000  0 10G31G14G 3G23G29G15G17G18G 9G21
  22701692.130    -8316964.05449  -6461779.28346  22701691.306    22701699.244
       224.000         171.000
  20387672.806   -11809792.85049  -9187848.54147  20387672.108    20387677.039
       241.000         210.000
  22205336.712      325731.70449    268543.15246  22205335.876    22205344.457
       228.000         180.000
  23495533.409     8226136.62449   6406956.48845  23495532.771    23495541.079
       220.000         161.000
  20783597.793   -14076488.80349 -10942484.92847  20783597.245    20783603.450
       239.000         203.000
  21861744.945     9311380.52349   7261047.54446  21861744.040    21861751.873
       232.000         186.000
  23251844.862    13414131.36449  10451376.32945  23251844.253    23251852.890
       211.000         153.000
  22306200.420     7020915.40549   5475820.25346  22306200.239    22306205.949
       230.000         179.000
  23615279.660    -1575889.92549  -1219665.55246  23615278.933    23615287.214
       218.000         163.000
  21088825.420    -3843451.54749  -2969980.21347  21088824.461    21088830.956
       242.000         206.000
 01  6 20 21 57 30.0000000  0 10G31G14G 3G23G29G15G17G18G 9G21
  22700994.324    -8320631.06949  -6464636.72446  22700993.569    22701001.880
       223.000         171.000
  20382137.902   -11838878.99849  -9210513.03847  20382137.250    20382141.961
       241.000         210.000
  22215332.433      378259.53149    309473.85746  22215332.246    22215340.911
       229.000         181.000
  23506457.461     8283542.68949   6451688.43345  23506456.998    23506464.203
       220.000         162.000
  20774753.276   -14122966.94249 -10978701.61447  20774752.918    20774759.170
       239.000         203.000
  21876317.583     9387960.35749   7320720.08546  21876316.921    21876324.008
       233.000         186.000
  23269727.623    13508106.28149  10524603.42745  23269726.963    23269736.156
       213.000         152.000
  22317316.645     7079331.06249   5521338.90846  22317316.363    22317321.473
       232.000         180.000
  23623215.891    -1534184.72249  -1187168.01645  23623214.889    23623222.622
       213.000         158.000
  21088427.040    -3845545.00949  -2971611.49247  21088426.486    21088432.349
       242.000         206.000
 01  6 20 21 58  0.0000000  0 10G31G14G 3G23G29G15G17G18G 9G21
  22700403.188    -8323737.30849  -6467057.20446  22700402.498    22700410.752
       224.000         171.000
  20376699.930   -11867455.63549  -9232780.52147  20376699.165    20376704.114
       240.000         211.000
  22225407.781      431205.21149    350730.15746  22225407.131    22225415.257
       229.000         180.000
  23517387.887     8340982.47849   6496446.68545  23517387.072    23517395.206
       218.000         162.000
  20765991.992   -14169007.42949 -11014577.27247  20765991.573    20765997.872
       240.000         204.000
  21890956.941     9464890.18049   7380665.32546  21890956.296    21890963.732
       233.000         186.000
  23287662.436    13602353.60849  10598042.80445  23287662.107    23287671.691
       214.000         153.000
  22328451.243     7137843.18249   5566932.72446  22328451.135    22328455.897
       230.000         180.000
  23631256.904    -1491927.82749  -1154240.61345  23631256.102    23631264.526
       211.000         152.000
  21088053.146    -3847509.86149  -2973142.54647  21088052.525    21088058.630
       243.000         206.000
 01  6 20 21 58 30.0000000  0 10G31G14G 3G23G29G15G17G18G 9G21
  22699918.554    -8326284.76149  -6469042.26246  22699918.364    22699925.249
       224.000         171.000
  20371358.690   -11895524.10849  -9254652.02847  20371357.792    20371362.751
       239.000         211.000
  22235561.865      484565.10949    392309.23046  22235561.281    22235570.050
       229.000         180.000
  23528324.627     8398455.04549   6541230.44945  23528324.310    23528332.488
       221.000         162.000
  20757313.967   -14214611.00449 -11050112.47447  20757313.421    20757319.399
       239.000         204.000
  21905662.448     9542167.65249   7440881.47246  21905661.386    21905668.666
       233.000         186.000
  23305648.512    13696870.92649  10671692.56845  23305647.916    23305656.509
       216.000         154.000
  22339603.835     7196450.47149   5612600.70646  22339603.414    22339609.154
       230.000         179.000
  23639402.790    -1449121.50749  -1120885.06545  23639403.292    23639410.132
       215.000         151.000
  21087703.533    -3849347.23649  -2974574.25747  21087702.517    21087708.769
       242.000         206.000
 01  6 20 21 59  0.0000000  0 10G31G14G 3G23G29G15G17G18G 9G21
  22699540.272    -8328273.00449  -6470591.58346  22699539.756    22699547.390
       223.000         171.000
  20366114.268   -11923083.63549  -9276126.95947  20366113.643    20366118.381
       239.000         210.000
  22245794.472      538337.41849    434209.64946  22245794.547    22245802.635
       229.000         180.000
  23539267.825     8455961.28549   6586040.45246  23539267.094    23539275.277
       221.000         164.000
  20748719.156   -14259776.55849 -11085306.37747  20748718.821    20748724.673
       239.000         204.000
  21920434.006     9619792.39749   7501368.21246  21920432.940    21920440.476
       233.000         185.000
  23323685.831    13791657.56449  10745552.19145  23323685.469    23323695.570
       213.000         155.000
  22350774.756     7255153.46749   5658343.26746  22350774.731    22350779.450
       230.000         179.000
  23647653.225    -1405766.28249  -1087101.77945  23647652.831    23647659.944
       214.000         152.000
  21087378.336    -3851055.98149  -2975905.75347  21087377.662    21087383.963
       242.000         206.000
 01  6 20 21 59 30.0000000  0 10G31G14G 3G23G29G15G17G18G 9G21
  22699268.024    -8329703.55149  -6471706.31246  22699267.034    22699275.472
       223.000         171.000
  20360966.433   -11950135.47949  -9297206.28847  20360965.697    20360970.649
       239.000         210.000
  22256104.869      592518.51449    476428.61646  22256103.840    22256112.820
       228.000         180.000
  23550217.234     8513500.26249   6630875.96646  23550216.295    23550224.146
       221.000         164.000
  20740207.660   -14304504.83349 -11120159.53147  20740207.113    20740213.136
       239.000         204.000
  21935271.227     9697762.21949   7562123.85846  21935269.999    21935277.536
       232.000         184.000
  23341774.013    13886710.92149  10819619.63445  23341772.817    23341781.970
       211.000         154.000
  22361963.493     7313950.52749   5704159.12546  22361963.285    22361968.432
       229.000         179.000
  23656007.610    -1361864.30949  -1052892.48545  23656006.068    23656014.686
       209.000         151.000
  21087077.532    -3852636.78849  -2977137.55247  21087077.000    21087083.055
       242.000         206.000
 01  6 20 22  0  0.0000000  0 10G31G14G 3G23G29G15G17G18G 9G21
  22699102.239    -8330575.46349  -6472385.74946  22699101.909    22699109.819
       224.000         170.000
  20355915.448   -11976678.41449  -9317889.06847  20355914.703    20355919.588
       239.000         210.000
  22266492.826      647107.48249    518965.39846  22266492.278    22266501.565
       228.000         180.000
  23561173.083     8571073.59849   6675738.25145  23561171.700    23561180.565
       217.000         160.000
  20731779.634   -14348794.30449 -11154670.77047  20731779.198    20731785.259
       239.000         204.000
  21950174.158     9776077.61949   7623148.76846  21950173.461    21950180.949
       232.000         184.000
  23359912.863    13982031.05249  10893894.94245  23359912.389    23359922.092
       213.000         154.000
  22373170.440     7372843.06549   5750049.37446  22373169.737    22373174.726
       230.000         179.000
  23664465.673    -1317415.54749  -1018257.13945  23664465.012    23664472.267
       211.000         151.000
  21086801.433    -3854087.86649  -2978268.26847  21086800.622    21086806.973
       243.000         206.000
 01  6 20 22  0 30.0000000  0 10G31G14G 3G23G29G15G17G18G 9G21
  22699042.597    -8330889.34349  -6472630.37046  22699041.680    22699049.233
       224.000         171.000
  20350961.303   -12002712.39849  -9338175.26347  20350960.333    20350965.360
       240.000         210.000
  22276957.996      702102.00249    561818.19946  22276957.253    22276965.841
       228.000         179.000
  23572135.504     8628681.50849   6720627.49945  23572135.020    23572141.578
       218.000         158.000
  20723435.122   -14392644.67049 -11188839.84847  20723434.745    20723440.545
       240.000         204.000
  21965142.721     9854737.55249   7684442.15946  21965142.099    21965149.649
       233.000         185.000
  23378102.210    14077616.65049  10968377.11845  23378102.506    23378111.220
       214.000         153.000
  22384395.467     7431830.84049   5796013.84846  22384394.986    22384399.696
       230.000         178.000
  23673027.874    -1272421.08349   -983196.57745  23673026.785    23673035.794
       214.000         151.000
  21086549.835    -3855410.02349  -2979298.52247  21086549.276    21086555.398
       243.000         207.000
 01  6 20 22  1  0.0000000  0 10G31G14G 3G23G29G15G17G18G 9G21
  22699088.803    -8330646.41049  -6472441.10746  22699087.639    22699096.006
       225.000         171.000
  20346103.917   -12028238.15649  -9358065.43647  20346103.126    20346108.020
       239.000         211.000
  22287499.671      757498.86949    604984.50746  22287499.635    22287507.879
       227.000         179.000
  23583104.503     8686323.86149   6765543.54945  23583104.067    23583111.412
       222.000         160.000
  20715174.191   -14436056.06249 -11222666.86547  20715173.754    20715179.894
       240.000         204.000
  21980176.594     9933740.53549   7746002.85246  21980176.241    21980182.997
       232.000         184.000
  23396341.968    14173465.90949  11043064.73345  23396341.070    23396350.991
       212.000         153.000
  22395638.478     7490913.05149   5842051.90646  22395637.503    22395643.163
       229.000         178.000
  23681693.625    -1226882.78149   -947712.20745  23681694.054    23681700.348
       214.000         151.000
  21086322.767    -3856603.41749  -2980228.43647  21086321.853    21086328.171
       242.000         207.000
 01  6 20 22  1 30.0000000  0 10G31G14G 3G23G29G15G17G18G 9G21
  22699240.880    -8329847.30449  -6471818.47046  22699240.683    22699247.392
       224.000         171.000
  20341343.218   -12053255.77349  -9377559.65747  20341342.302    20341347.430
       239.000         211.000
  22298117.447      813295.66349    648462.44146  22298117.145    22298125.650
       228.000         179.000
  23594080.214     8744000.90549   6810486.64146  23594080.098    23594087.090
       222.000         163.000
  20706996.854   -14479028.13649 -11256151.55647  20706996.465    20707002.473
       242.000         205.000
  21995275.494    10013085.41549   7807829.96546  21995274.238    21995282.260
       231.000         184.000
  23414631.320    14269577.46049  11117956.76545  23414630.748    23414640.142
       216.000         154.000
  22406899.306     7550089.59449   5888163.46646  22406899.087    22406904.391
       230.000         177.000
  23690462.703    -1180801.71449   -911804.91545  23690462.774    23690469.156
       214.000         149.000
  21086120.254    -3857667.40349  -2981057.51747  21086119.283    21086125.551
       242.000         206.000
 01  6 20 22  2  0.0000000  0 10G31G14G 3G23G29G15G17G18G 9G21
  22699498.688    -8328492.73549  -6470763.00046  22699498.025    22699505.508
       223.000         171.000
  20336679.097   -12077765.58449  -9396658.19147  20336678.221    20336683.212
       239.000         211.000
  22308810.947      869489.65149    692249.88046  22308810.712    22308819.538
       228.000         179.000
  23605062.489     8801712.65949   6855456.80146  23605061.046    23605069.449
       221.000         164.000
  20698903.188   -14521560.74949 -11289293.81747  20698902.758    20698908.688
       241.000         205.000
  22010439.164    10092771.07949   7869922.60746  22010438.610    22010445.489
       231.000         183.000
  23432970.766    14365949.72349  11193051.91445  23432969.922    23432978.920
       211.000         153.000
  22418178.234     7609360.26549   5934348.37846  22418177.549    22418183.125
       229.000         178.000
  23699334.730    -1134179.16249   -875475.69845  23699334.382    23699343.077
       213.000         146.000
  21085942.407    -3858601.90949  -2981785.70847  21085941.596    21085947.926
       242.000         206.000
 01  6 20 22  2 30.0000000  0 11G31G14G 3G23G29G25G15G17G18G 9G21
  22699860.948    -8326588.50349  -6469279.20746  22699860.174    22699868.256
       223.000         171.000
  20332110.613   -12101773.37549  -9415365.53647  20332109.863    20332114.769
       238.000         211.000
  22319578.375      926072.61549    736340.41746  22319577.638    22319586.735
       228.000         179.000
  23616050.294     8859453.89349   6900449.92645  23616049.789    23616056.840
       217.000         161.000
  20690892.050   -14563659.27949 -11322097.82247  20690891.614    20690897.608
       242.000         205.000
  24596634.063    -5337229.13959  -4147042.80745  24596634.374    24596646.650
       201.000         137.000
  22025666.536    10172790.92649   7932275.67046  22025665.459    22025673.348
       231.000         183.000
  23451357.901    14462575.99949  11268345.01145  23451357.873    23451367.073
       211.000         151.000
  22429473.957     7668719.44049   5980602.25546  22429473.279    22429478.945
       228.000         177.000
  23708308.383    -1087022.09549   -838729.98345  23708308.460    23708317.091
       215.000         147.000
  21085788.268    -3859411.80749  -2982416.79747  21085787.293    21085793.916
       242.000         206.000
 01  6 20 22  3  0.0000000  0 11G31G14G 3G23G29G25G15G17G18G 9G21
  22700329.258    -8324127.38149  -6467361.49846  22700328.240    22700336.328
       225.000         171.000
  20327639.153   -12125271.02349  -9433675.37447  20327638.309    20327643.244
       239.000         211.000
  22330420.968      983050.26049    780738.50446  22330420.861    22330429.130
       228.000         179.000
  23627045.224     8917232.92549   6945472.50245  23627044.707    23627052.132
       218.000         157.000
  20682965.149   -14605315.32349 -11354557.03347  20682964.472    20682970.643
       241.000         205.000
  24577930.434    -5435519.66349  -4223632.47045  24577930.473    24577942.616
       206.000         138.000
  22040958.754    10253151.88749   7994894.51846  22040957.992    22040965.435
       231.000         183.000
  23469794.823    14559462.84449  11343841.14245  23469794.479    23469804.016
       209.000         150.000
  22440787.984     7728175.07349   6026931.28646  22440787.356    22440792.996
       228.000         177.000
  23717385.258    -1039323.44749   -801562.23345  23717385.186    23717393.960
       216.000         146.000
  21085659.245    -3860089.60049  -2982944.94847  21085658.562    21085664.855
       243.000         206.000
 01  6 20 22  3 30.0000000  0 11G31G14G 3G23G29G25G15G17G18G 9G21
  22700903.404    -8321111.37449  -6465011.39946  22700901.953    22700909.961
       224.000         172.000
  20323264.403   -12148260.48349  -9451589.21647  20323263.527    20323268.372
       239.000         211.000
  22341337.823     1040418.49949    825440.93646  22341337.144    22341345.766
       228.000         178.000
  23638047.227     8975048.42249   6990523.48645  23638046.551    23638053.457
       218.000         156.000
  20675122.129   -14646530.13049 -11386672.42247  20675121.421    20675127.663
       242.000         205.000
  24559214.909    -5533874.35349  -4300272.16645  24559213.230    24559225.336
       211.000         139.000
  22056315.293    10333851.36649   8057777.16046  22056313.812    22056321.998
       230.000         183.000
  23488280.904    14656607.31449  11419538.01445  23488280.672    23488289.867
       215.000         149.000
  22452120.085     7787725.41449   6073334.11346  22452119.091    22452124.629
       226.000         176.000
  23726564.382     -991086.36349   -763974.90245  23726562.822    23726571.644
       212.000         142.000
  21085555.089    -3860637.04049  -2983371.52447  21085554.504    21085560.368
       242.000         206.000
 01  6 20 22  4  0.0000000  0 11G31G14G 3G23G29G25G15G17G18G 9G21
  22701582.656    -8317541.69149  -6462229.86646  22701582.122    22701589.428
       224.000         172.000
  20318986.197   -12170742.26949  -9469107.46547  20318985.339    20318990.223
       238.000         211.000
  22352328.489     1098174.55949    870445.58146  22352327.865    22352336.737
       228.000         178.000
  23649056.195     9032900.35649   7035602.84945  23649055.589    23649063.483
       217.000         158.000
  20667363.099   -14687304.14749 -11418444.34647  20667362.703    20667368.531
       242.000         205.000
  24540486.821    -5632291.29349  -4376960.32545  24540482.947    24540496.145
       209.000         138.000
  22071736.047    10414887.84349   8120922.39246  22071736.035    22071742.695
       233.000         182.000
  23506815.850    14754007.55849  11495434.17745  23506816.060    23506824.000
       211.000         148.000
  22463469.932     7847369.64149   6119810.10346  22463469.234    22463475.246
       227.000         176.000
  23735845.657     -942312.44449   -725969.27245  23735844.847    23735852.787
       205.000         135.000
  21085475.827    -3861053.62149  -2983696.13147  21085475.119    21085481.226
       242.000         206.000
 01  6 20 22  4 30.0000000  0 11G31G14G 3G23G29G25G15G17G18G 9G21
  22702367.281    -8313418.96149  -6459017.38746  22702366.559    22702374.171
       224.000         172.000
  20314804.634   -12192716.49049  -9486230.20647  20314803.714    20314808.549
       239.000         211.000
  22363392.436     1156315.60049    915750.21046  22363392.396    22363400.814
       228.000         178.000
  23660072.108     9090789.23149   7080711.00845  23660070.624    23660078.337
       213.000         155.000
  20659688.066   -14727636.76549 -11449872.31347  20659687.656    20659693.189
       243.000         206.000
  24521746.219    -5730767.64849  -4453694.80245  24521744.150    24521758.221
       205.000         139.000
  22087220.939    10496260.34949   8184329.45746  22087219.896    22087227.099
       231.000         183.000
  23525398.822    14851662.40849  11571528.74645  23525396.447    23525407.194
       205.000         146.000
  22474837.875     7907108.42649   6166359.77346  22474837.814    22474843.102
       228.000         176.000
  23745228.928     -893002.68649   -687546.11545  23745228.650    23745236.069
       207.000         132.000
  21085421.534    -3861339.06349  -2983918.55447  21085420.617    21085426.876
       242.000         206.000
 01  6 20 22  5  0.0000000  0 11G31G14G 3G23G29G25G15G17G18G 9G21
  22703256.941    -8308743.60949  -6455374.30046  22703256.882    22703264.146
       226.000         172.000
  20310719.578   -12214183.35049  -9502957.60747  20310718.742    20310723.603
       239.000         211.000
  22374529.173     1214839.42249    961353.10246  22374528.906    22374537.809
       229.000         178.000
  23671095.000     9148715.54549   7125848.33145  23671094.322    23671101.011
       215.000         155.000
  20652096.992   -14767527.67549 -11480956.10747  20652096.401    20652102.571
       242.000         205.000
  24502994.675    -5829300.98949  -4530473.76545  24502994.530    24503006.943
       207.000         139.000
  22102769.392    10577967.88049   8247997.59046  22102768.812    22102776.065
       232.000         182.000
  23544029.737    14949570.67749  11647820.80345  23544029.358    23544039.113
       211.000         144.000
  22486223.718     7966941.29749   6212982.75846  22486223.002    22486229.082
       227.000         176.000
  23754713.894     -843158.65249   -648706.67444  23754715.343    23754722.410
       205.000         130.000
  21085392.252    -3861493.05649  -2984038.55647  21085391.567    21085397.969
       242.000         207.000
 01  6 20 22  5 30.0000000  0 11G31G14G 3G23G29G25G15G17G18G 9G21
  22704251.497    -8303518.00249  -6451302.42546  22704249.945    22704259.382
       224.000         171.000
  20306730.801   -12235144.37649  -9519290.84647  20306730.273    20306734.984
       240.000         211.000
  22385738.129     1273741.95449   1007251.08846  22385737.576    22385746.158
       227.000         178.000
  23682125.061     9206678.19749   7171013.96945  23682124.586    23682131.413
       217.000         157.000
  20644589.791   -14806978.18249 -11511696.72847  20644589.298    20644595.277
       243.000         206.000
  24484234.053    -5927890.10849  -4607296.16945  24484233.758    24484246.290
       212.000         138.000
  22118381.250    10660008.02749   8311924.90246  22118380.894    22118387.654
       231.000         182.000
  23562709.446    15047729.50349  11724308.04045  23562709.546    23562719.666
       206.000         144.000
  22497627.187     8026867.02049   6259678.09346  22497626.687    22497632.059
       228.000         175.000
  23764300.129     -792783.20549   -609453.13344  23764302.286    23764307.603
       206.000         131.000
  21085387.841    -3861516.27749  -2984056.65247  21085387.010    21085393.076
       243.000         206.000
 01  6 20 22  6  0.0000000  0 11G31G14G 3G23G29G25G15G17G18G 9G21
  22705350.350    -8297743.01249  -6446802.46946  22705349.404    22705357.640
       224.000         171.000
  20302838.240   -12255600.16849  -9535230.39847  20302837.498    20302842.044
       239.000         211.000
  22397018.443     1333020.49749   1053442.07946  22397018.257    22397027.768
       228.000         178.000
  23693162.028     9264677.34249   7216208.05145  23693161.416    23693170.133
       215.000         158.000
  20637166.424   -14845988.26249 -11542094.15747  20637165.867    20637171.896
       242.000         206.000
  24465463.787    -6026532.34249  -4684159.90845  24465460.184    24465473.426
       210.000         139.000
  22134056.085    10742379.62449   8376110.48646  22134055.572    22134062.708
       231.000         182.000
  23581435.697    15146137.37249  11800989.38845  23581435.692    23581444.207
       207.000         143.000
  22509048.247     8086885.14249   6306445.42346  22509047.850    22509052.939
       229.000         174.000
  23773987.178     -741877.81649   -569786.63645  23773987.741    23773994.009
       206.000         132.000
  21085408.145    -3861409.30349  -2983973.29647  21085407.336    21085413.485
       243.000         206.000
 01  6 20 22  6 30.0000000  0 11G31G14G 3G23G29G25G15G17G18G 9G21
  22706553.697    -8291418.91449  -6441874.64946  22706552.801    22706561.215
       224.000         171.000
  20299041.778   -12275550.51349  -9550776.09747  20299040.836    20299045.714
       239.000         211.000
  22408370.202     1392673.10949   1099924.54446  22408370.078    22408378.430
       227.000         177.000
  23704205.966     9322713.81949   7261431.24545  23704204.151    23704212.715
       213.000         154.000
  20629826.959   -14884557.30749 -11572147.92147  20629826.558    20629832.428
       242.000         206.000
  24446682.823    -6125224.66749  -4761062.71045  24446678.067    24446694.464
       204.000         139.000
  22149793.864    10825082.11449   8440553.91546  22149793.297    22149801.421
       232.000         182.000
  23600209.076    15244793.13449  11877863.90545  23600206.897    23600219.312
       203.000         140.000
  22520487.015     8146996.16649   6353285.14946  22520486.372    22520491.883
       228.000         174.000
  23783774.925     -690443.35949   -529707.87745  23783774.555    23783783.196
       207.000         134.000
  21085453.457    -3861171.19849  -2983787.76247  21085452.695    21085458.864
       242.000         206.000
 01  6 20 22  7  0.0000000  0 11G31G14G 3G23G29G25G15G17G18G 9G21
  22707861.652    -8284546.22449  -6436519.34446  22707860.555    22707868.371
       223.000         170.000
  20295341.529   -12294995.38349  -9565927.92247  20295340.558    20295345.485
       239.000         211.000
  22419792.330     1452697.49449   1146696.71146  22419792.201    22419800.495
       227.000         177.000
  23715257.028     9380788.38649   7306684.08145  23715257.169    23715264.523
       216.000         152.000
  20622571.484   -14922684.79449 -11601857.62147  20622570.891    20622577.064
       242.000         206.000
  24427892.107    -6223964.55349  -4838002.59745  24427890.044    24427903.095
       202.000         138.000
  22165594.659    10908114.76749   8505254.59346  22165593.769    22165601.885
       230.000         182.000
  23619029.761    15343695.99149  11954930.93645  23619028.976    23619039.328
       207.000         140.000
  22531943.445     8207200.36549   6400197.47446  22531942.551    22531948.276
       228.000         174.000
  23793663.183     -638480.78049   -489217.58345  23793662.190    23793670.818
       210.000         137.000
  21085523.924    -3860800.89849  -2983499.21347  21085523.086    21085529.128
       242.000         205.000
 01  6 20 22  7 30.0000000  0 11G31G14G 3G23G29G25G15G17G18G 9G21
  22709273.616    -8277126.34449  -6430737.64846  22709272.967    22709280.523
       224.000         170.000
  20291737.285   -12313935.60249  -9580686.52047  20291736.573    20291741.214
       238.000         211.000
  22431284.965     1513090.42849   1193756.02146  22431284.535    22431293.923
       227.000         177.000
  23726315.485     9438900.54349   7351966.18745  23726315.044    23726323.971
       219.000         155.000
  20615399.972   -14960371.25249 -11631223.66047  20615399.436    20615405.473
       242.000         206.000
  24409093.630    -6322750.03749  -4914977.98945  24409094.196    24409104.449
       203.000         138.000
  22181457.744    10991475.68349   8570211.07846  22181456.567    22181464.560
       230.000         181.000
  23637897.013    15442843.67849  12032188.72245  23637894.016    23637904.917
       200.000         138.000
  22543417.536     8267496.97449   6447181.80546  22543416.927    22543422.861
       227.000         174.000
  23803651.650     -585992.20049   -448317.44845  23803652.324    23803659.281
       213.000         141.000
  21085619.443    -3860298.81549  -2983107.97947  21085618.750    21085625.094
       241.000         205.000
 01  6 20 22  8  0.0000000  0 11G31G14G 3G23G29G25G15G17G18G 9G21
  22710789.460    -8269160.53349  -6424530.56346  22710787.849    22710797.239
       223.000         170.000
  20288228.950   -12332371.89049  -9595052.44047  20288228.042    20288232.956
       238.000         211.000
  22442846.987     1573848.81449   1241100.13446  22442846.451    22442855.680
       227.000         176.000
  23737381.197     9497050.34949   7397277.66545  23737381.313    23737388.645
       212.000         155.000
  20608312.335   -14997616.79449 -11660246.12847  20608311.743    20608317.604
       242.000         206.000
  24390287.383    -6421578.18249  -4991986.58245  24390287.106    24390298.972
       207.000         139.000
  22197382.911    11075163.38649   8635422.21346  22197381.752    22197389.263
       229.000         180.000
  23656810.212    15542234.60549  12109636.04845  23656810.801    23656820.419
       206.000         137.000
  22554909.104     8327885.51149   6494237.76646  22554908.602    22554913.505
       227.000         173.000
  23813739.719     -532979.28349   -407008.72545  23813738.872    23813746.385
       211.000         142.000
  21085739.982    -3859665.35449  -2982614.37647  21085739.296    21085745.368
       242.000         205.000
 01  6 20 22  8 30.0000000  0 11G31G14G 3G23G29G25G15G17G18G 9G21
  22712409.025    -8260649.66749  -6417898.75846  22712408.437    22712416.531
       223.000         170.000
  20284816.443   -12350304.61049  -9609025.97347  20284815.744    20284820.428
       239.000         211.000
  22454477.961     1634970.10749   1288727.01946  22454477.769    22454485.834
       228.000         176.000
  23748453.931     9555238.17349   7442618.83545  23748452.948    23748461.458
       211.000         152.000
  20601308.585   -15034421.44649 -11688925.05247  20601308.141    20601314.105
       242.000         207.000
  24371473.597    -6520446.95449  -5069026.84245  24371470.452    24371483.931
       208.000         139.000
  22213370.088    11159176.64649   8700887.02646  22213368.815    22213377.388
       229.000         180.000
  23675770.159    15641867.26649  12187271.78045  23675770.425    23675781.758
       206.000         140.000
  22566418.216     8388365.92349   6541365.31746  22566417.095    22566422.995
       227.000         173.000
  23823927.191     -479443.48849   -365292.57345  23823926.719    23823934.247
       210.000         140.000
  21085885.692    -3858899.84749  -2982017.87247  21085884.786    21085891.207
       242.000         206.000
 01  6 20 22  9  0.0000000  0 11G31G14G 3G23G29G25G15G17G18G 9G21
  22714132.299    -8251594.20749  -6410842.59746  22714131.464    22714138.771
       224.000         170.000
  20281499.728   -12367734.02749  -9622607.32847  20281498.930    20281503.746
       239.000         211.000
  22466177.670     1696451.97949   1336634.87146  22466177.139    22466185.244
       227.000         176.000
  23759534.124     9613464.56149   7487989.98345  23759533.937    23759539.185
       214.000         150.000
  20594388.848   -15070784.95449 -11717260.22947  20594388.601    20594394.250
       243.000         207.000
  24352651.633    -6619353.61749  -5146096.66745  24352649.691    24352662.831
       207.000         141.000
  22229419.140    11243514.50549   8766604.75246  22229418.744    22229426.266
       230.000         179.000
  23694775.320    15741740.46449  12265094.95045  23694775.318    23694784.986
       208.000         139.000
  22577944.910     8448938.74149   6588564.87246  22577944.594    22577950.588
       227.000         173.000
  23834213.972     -425386.11249   -323169.99145  23834213.467    23834220.241
       210.000         137.000
  21086056.587    -3858001.61849  -2981317.95847  21086056.057    21086061.917
       242.000         205.000
 01  6 20 22  9 30.0000000  0 11G31G14G 3G23G29G25G15G17G18G 9G21
  22715958.970    -8241994.90549  -6403362.66746  22715958.519    22715966.277
       224.000         170.000
  20278278.778   -12384660.16249  -9635796.51547  20278277.990    20278282.730
       239.000         212.000
  22477945.511     1758292.17649   1384821.91346  22477945.282    22477953.165
       227.000         175.000
  23770621.673     9671730.17849   7533391.70145  23770620.202    23770627.461
       213.000         148.000
  20587553.184   -15106706.55349 -11745251.05347  20587552.854    20587558.813
       243.000         207.000
  24333822.858    -6718295.06249  -5223193.61745  24333821.496    24333832.555
       207.000         142.000
  22245529.919    11328176.22449   8832574.82646  22245529.261    22245536.898
       227.000         179.000
  23713826.435    15841853.03749  12343104.59445  23713827.429    23713835.986
       208.000         140.000
  22589489.200     8509604.04449   6635836.48046  22589488.463    22589493.996
       227.000         173.000
  23844599.583     -370808.69049   -280642.13845  23844600.467    23844606.662
       210.000         134.000
  21086252.839    -3856970.11949  -2980514.19747  21086251.942    21086258.546
       242.000         205.000
 01  6 20 22 10  0.0000000  0 11G31G14G 3G23G29G25G15G17G18G 9G21
  22717888.872    -8231853.11849  -6395460.01346  22717889.572    22717896.014
       226.000         170.000
  20275153.453   -12401083.86549  -9648594.18647  20275152.474    20275157.582
       239.000         211.000
  22489780.875     1820487.59349   1433285.78446  22489780.069    22489789.242
       227.000         175.000
  23781716.654     9730035.16849   7578824.09245  23781715.851    23781724.591
       214.000         147.000
  20580801.451   -15142186.99649 -11772898.11647  20580801.228    20580806.807
       243.000         207.000
  24314988.864    -6817268.83049  -5300315.72945  24314988.654    24315000.019
       209.000         143.000
  22261701.743    11413160.38449   8898796.18146  22261700.845    22261709.273
       228.000         178.000
  23732922.815    15942203.07249  12421299.28045  23732922.620    23732932.630
       211.000         141.000
  22601050.949     8570361.43449   6683179.86246  22601049.899    22601056.125
       227.000         173.000
  23855083.893     -315712.90449   -237710.38444  23855082.230    23855089.517
       210.000         131.000
  21086474.480    -3855805.33049  -2979606.57247  21086473.908    21086480.033
       241.000         205.000
 01  6 20 22 10 30.0000000  0 11G31G14G 3G23G29G25G15G17G18G 9G21
  22719921.722    -8221170.68749  -6387136.09146  22719921.206    22719929.497
       225.000         170.000
  20272123.451   -12417006.55849  -9661001.46647  20272122.741    20272127.403
       239.000         211.000
  22501683.239     1883034.41049   1482023.45246  22501683.239    22501690.573
       227.000         175.000
  23792819.163     9788378.92449   7624286.66345  23792818.784    23792825.302
       215.000         147.000
  20574133.539   -15177226.93949 -11800201.93147  20574133.124    20574138.976
       243.000         207.000
  24296149.088    -6916273.51049  -5377461.90645  24296147.327    24296158.796
       210.000         143.000
  22277934.711    11498464.71249   8965267.00046  22277934.157    22277942.154
       228.000         177.000
  23752063.481    16042788.25449  12499677.25245  23752061.370    23752074.042
       208.000         140.000
  22612630.125     8631210.07449   6730594.34146  22612629.652    22612634.965
       228.000         173.000
  23865666.480     -260101.40749   -194376.76544  23865663.405    23865672.731
       203.000         129.000
  21086721.409    -3854507.84049  -2978595.54847  21086720.577    21086726.784
       242.000         205.000
 01  6 20 22 11  0.0000000  0 11G31G14G 3G23G29G25G15G17G18G 9G21
  22722057.450    -8209947.85649  -6378391.08146  22722056.657    22722064.465
       225.000         170.000
  20269188.901   -12432427.86449  -9673018.05447  20269188.013    20269192.805
       239.000         212.000
  22513652.178     1945930.70049   1531033.44646  22513651.403    22513659.879
       226.000         174.000
  23803929.395     9846762.51549   7669780.31045  23803928.733    23803936.318
       209.000         146.000
  20567549.602   -15211825.86049 -11827162.09147  20567548.842    20567555.045
       242.000         207.000
  24277303.360    -7015305.93249  -5454629.74545  24277300.664    24277314.152
       210.000         144.000
  22294228.485    11584088.50049   9031986.76146  22294227.667    22294235.195
       228.000         177.000
  23771248.952    16143607.74049  12578237.74145  23771251.295    23771259.011
       213.000         139.000
  22624226.746     8692150.45749   6778080.29646  22624226.614    22624232.040
       227.000         173.000
  23876346.973     -203975.17949   -150642.09344  23876346.569    23876353.136
       205.000         126.000
  21086993.710    -3853076.86049  -2977480.50247  21086993.028    21086999.259
       242.000         205.000
 01  6 20 22 11 30.0000000  0 11G31G14G 3G23G29G25G15G17G18G 9G21
  22724295.810    -8198185.20249  -6369225.42746  22724294.578    22724303.352
       224.000         170.000
  20266349.690   -12447347.85849  -9684644.00747  20266348.859    20266353.571
       239.000         212.000
  22525686.988     2009174.31749   1580314.08546  22525686.722    22525696.150
       226.000         174.000
  23815047.111     9905186.67149   7715305.62645  23815046.386    23815054.565
       211.000         147.000
  20561049.557   -15245983.19949 -11853778.16647  20561049.252    20561054.903
       243.000         207.000
  24258452.660    -7114363.21349  -5531816.95445  24258450.794    24258464.140
       207.000         145.000
  22310582.750    11670030.83949   9098954.73946  22310582.185    22310589.709
       228.000         177.000
  23790479.037    16244660.54649  12656980.04645  23790477.135    23790487.714
       208.000         140.000
  22635840.914     8753182.90949   6825638.01546  22635840.094    22635846.887
       227.000         173.000
  23887125.133     -147335.27749   -106507.17744  23887123.898    23887129.323
       207.000         125.000
  21087291.564    -3851511.76349  -2976260.94347  21087290.722    21087297.082
       242.000         205.000
 01  6 20 22 12  0.0000000  0 11G31G14G 3G23G29G25G15G17G18G 9G21
  22726636.629    -8185884.64749  -6359640.64646  22726635.747    22726644.009
       224.000         170.000
  20263605.634   -12461768.00249  -9695880.46647  20263604.858    20263609.683
       238.000         212.000
  22537787.379     2072761.46949   1629862.42146  22537786.495    22537796.332
       225.000         174.000
  23826172.499     9963651.15549   7760862.31545  23826171.804    23826180.468
       215.000         150.000
  20554633.527   -15279699.91449 -11880050.88347  20554632.944    20554638.955
       243.000         207.000
  24239597.832    -7213443.46649  -5609022.07045  24239597.266    24239608.035
       213.000         146.000
  22326997.335    11756289.64149   9166169.30946  22326996.512    22327003.838
       227.000         177.000
  23809752.465    16345944.23549  12735902.27345  23809751.872    23809762.707
       207.000         139.000
  22647472.280     8814306.39849   6873266.66046  22647471.352    22647477.159
       227.000         173.000
  23898000.758      -90184.06849    -61973.80544  23898000.608    23898008.573
       206.000         122.000
  21087614.888    -3849812.73449  -2974937.02247  21087614.019    21087620.231
       242.000         205.000
 01  6 20 22 12 30.0000000  0 11G31G14G 3G23G29G25G15G17G18G 9G21
  22729079.792    -8173046.84549  -6349637.21346  22729079.895    22729087.004
       225.000         171.000
  20260956.648   -12475688.37049  -9706727.49847  20260955.952    20260960.631
       239.000         212.000
  22549952.663     2136690.38149   1679677.05246  22549952.343    22549961.104
       227.000         175.000
  23837305.957    10022156.76649   7806451.02445  23837305.737    23837312.952
       215.000         149.000
  20548301.311   -15312975.43149 -11905979.82447  20548300.817    20548306.847
       243.000         208.000
  24220740.122    -7312543.26849  -5686242.37645  24220739.091    24220750.089
       214.000         147.000
  22343471.982    11842864.56349   9233630.21346  22343470.857    22343478.723
       226.000         176.000
  23829069.956    16447457.78949  12815003.63045  23829069.688    23829079.443
       211.000         142.000
  22659121.135     8875521.72749   6920966.86946  22659120.447    22659126.762
       226.000         173.000
  23908973.456      -32522.81949    -17042.95444  23908973.762    23908976.555
       204.000         119.000
  21087963.908    -3847978.64749  -2973507.86647  21087963.157    21087969.400
       242.000         205.000
 01  6 20 22 13  0.0000000  0 11G31G14G 3G23G29G25G15G17G18G 9G21
  22731624.523    -8159674.32649  -6339217.12046  22731623.425    22731632.021
       225.000         171.000
  20258402.448   -12489110.78149  -9717186.50547  20258401.421    20258406.434
       238.000         212.000
  22562182.303     2200956.70549   1729754.61246  22562181.027    22562190.749
       226.000         174.000
  23848446.916    10080702.34449   7852070.86945  23848445.725    23848454.453
       212.000         145.000
  20542052.887   -15345811.31349 -11931566.18047  20542052.513    20542058.142
       243.000         208.000
  24201878.412    -7411661.36949  -5763476.95945  24201877.259    24201888.729
       213.000         147.000
  22360006.220    11929752.63649   9301335.13646  22360005.730    22360014.050
       229.000         176.000
  23848430.798    16549198.19349  12894281.71445  23848430.255    23848440.582
       207.000         143.000
  22670787.218     8936827.09749   6968737.22946  22670787.231    22670792.735
       227.000         173.000
  23920042.532       25645.50349     28283.03544  23920040.900    23920051.445
       206.000         115.000
  21088338.353    -3846010.91049  -2971974.56047  21088337.808    21088343.727
       242.000         205.000
 01  6 20 22 13 30.0000000  0 11G31G14G 3G23G29G25G15G17G18G 9G21
  22734271.087    -8145766.76749  -6328380.12146  22734269.723    22734277.548
       225.000         171.000
  20255943.112   -12502034.29649  -9727256.76547  20255942.613    20255947.262
       239.000         212.000
  22574475.838     2265559.44649   1780094.29546  22574476.175    22574484.790
       226.000         174.000
  23859595.778    10139289.76349   7897723.33345  23859595.126    23859604.125
       210.000         144.000
  20535888.302   -15378206.13949 -11956808.86647  20535888.001    20535893.769
       243.000         208.000
  24183013.737    -7510793.99349  -5840722.86145  24183012.909    24183023.562
       211.000         147.000
  22376600.285    12016954.15149   9369284.28246  22376599.453    22376607.417
       227.000         176.000
  23867834.514    16651165.41149  12973736.55245  23867834.082    23867844.446
       209.000         144.000
  22682470.886     8998224.23849   7016579.09846  22682470.652    22682475.961
       227.000         173.000
  23931208.172       84320.72349     74003.90244  23931206.730    23931213.335
       205.000         112.000
  21088738.638    -3843907.33749  -2970335.41647  21088737.970    21088743.889
       242.000         205.000
 01  6 20 22 14  0.0000000  0 11G31G14G 3G23G29G25G15G17G18G 9G21
  22737019.012    -8131326.03949  -6317127.66846  22737017.770    22737026.793
       223.000         171.000
  20253578.546   -12514460.31549  -9736939.36647  20253577.880    20253582.344
       238.000         212.000
  22586832.780     2330494.89949   1830693.24646  22586832.661    22586841.235
       226.000         174.000
  23870752.596    10197918.61549   7943408.10545  23870751.842    23870759.499
       212.000         148.000
  20529807.506   -15410160.72849 -11981708.51147  20529806.950    20529812.695
       243.000         208.000
  24164146.564    -7609939.17949  -5917978.57945  24164145.980    24164156.932
       210.000         147.000
  22393253.420    12104467.01449   9437476.05546  22393252.714    22393260.568
       226.000         176.000
  23887281.294    16753357.38349  13053366.48345  23887283.927    23887289.973
       214.000         147.000
  22694171.771     9059712.49849   7064491.98246  22694170.892    22694176.716
       226.000         172.000
  23942469.721      143500.25149    120117.68344  23942466.665    23942474.828
       207.000         112.000
  21089164.740    -3841668.54749  -2968590.90647  21089163.976    21089170.161
       242.000         205.000
 01  6 20 22 14 30.0000000  0 11G31G14G 3G23G29G25G15G17G18G 9G21
  22739868.377    -8116352.47649  -6305460.02646  22739867.957    22739875.171
       224.000         171.000
  20251308.638   -12526388.62749  -9746234.13947  20251308.151    20251312.684
       240.000         212.000
  22599252.596     2395761.18849   1881549.98746  22599251.594    22599261.801
       226.000         174.000
  23881917.396    10256590.06449   7989126.05645  23881916.383    23881925.102
       214.000         150.000
  20523810.629   -15441674.38649 -12006264.57247  20523810.262    20523816.038
       242.000         208.000
  24145277.711    -7709093.67949  -5995241.56645  24145277.432    24145288.105
       213.000         146.000
  22409965.747    12192290.72749   9505910.02846  22409964.374    22409972.451
       227.000         176.000
  23906770.586    16855773.16649  13133170.86045  23906767.529    23906779.601
       203.000         146.000
  22705890.071     9121292.51649   7112476.35846  22705889.360    22705895.496
       225.000         171.000
  23953827.009      203182.90249    166623.52944  23953828.290    23953836.823
       208.000         113.000
  21089616.775    -3839293.23949  -2966740.02647  21089616.003    21089622.226
       243.000         206.000
 01  6 20 22 15  0.0000000  0 11G31G14G 3G23G29G25G15G17G18G 9G21
  22742818.809    -8100848.25249  -6293378.86346  22742817.705    22742826.537
       224.000         171.000
  20249133.145   -12537821.07449  -9755142.52347  20249132.347    20249137.048
       239.000         212.000
  22611734.718     2461354.52649   1932661.57646  22611734.502    22611742.996
       225.000         173.000
  23893090.291    10315303.54649   8034876.77445  23893089.588    23893098.024
       213.000         151.000
  20517897.451   -15472748.37249 -12030478.03447  20517896.886    20517902.523
       241.000         208.000
  24126408.459    -7808255.66149  -6072510.34345  24126406.456    24126418.294
       212.000         146.000
  22426736.830    12280422.95749   9574584.41946  22426736.114    22426743.330
       226.000         175.000
  23926301.462    16958410.08549  13213147.56945  23926302.066    23926311.198
       209.000         146.000
  22717625.639     9182963.22749   7160531.40646  22717625.425    22717631.115
       226.000         171.000
  23965279.594      263366.22649    213519.59144  23965278.653    23965285.617
       206.000         120.000
  21090094.613    -3836782.11449  -2964783.31247  21090093.722    21090099.907
       242.000         205.000
 01  6 20 22 15 30.0000000  0 11G31G14G 3G23G29G25G15G17G18G 9G21
  22745869.943    -8084814.48949  -6280885.08946  22745868.903    22745877.217
       226.000         171.000
  20247051.940   -12548757.86149  -9763664.67447  20247051.128    20247055.781
       239.000         212.000
  22624278.474     2527272.02849   1984025.76346  22624278.478    22624286.932
       226.000         173.000
  23904271.251    10374059.71949   8080660.73645  23904270.198    23904279.280
       216.000         150.000
  20512067.935   -15503382.57549 -12054348.81047  20512067.391    20512073.321
       241.000         208.000
  24107537.309    -7907422.33649  -6149782.80245  24107535.361    24107546.299
       210.000         146.000
  22443566.471    12368862.76249   9643498.46146  22443565.773    22443573.494
       227.000         175.000
  23945874.999    17061266.94949  13293295.59945  23945875.335    23945884.272
       210.000         148.000
  22729378.511     9244724.92349   7208657.35746  22729377.529    22729383.432
       226.000         173.000
  23976827.189      324048.70449    260804.60844  23976825.579    23976833.617
       204.000         123.000
  21090598.320    -3834134.99449  -2962720.63147  21090597.463    21090604.192
       242.000         206.000
 01  6 20 22 16  0.0000000  0 11G31G14G 3G23G29G25G15G17G18G 9G21
  22749021.624    -8068252.59649  -6267979.77146  22749020.861    22749029.162
       225.000         171.000
  20245064.882   -12559199.94649  -9771801.35047  20245064.104    20245068.811
       239.000         212.000
  22636883.475     2593510.91749   2035640.38146  22636882.442    22636891.620
       225.000         173.000
  23915460.295    10432858.78549   8126478.12445  23915459.832    23915467.466
       216.000         148.000
  20506322.038   -15533577.31649 -12077877.14547  20506321.539    20506327.225
       242.000         208.000
  24088665.527    -8006591.09749  -6227056.90445  24088664.145    24088674.921
       212.000         146.000
  22460454.280    12457608.75649   9712651.10146  22460454.101    22460461.353
       227.000         174.000
  23965489.490    17164341.92249  13373613.61745  23965488.088    23965499.297
       207.000         147.000
  22741148.755     9306577.48149   7256854.10446  22741147.891    22741153.960
       226.000         174.000
  23988469.215      385228.35849    308476.99444  23988468.139    23988474.794
       200.000         122.000
  21091128.072    -3831351.12049  -2960551.37847  21091127.346    21091133.363
       242.000         206.000
 01  6 20 22 16 30.0000000  0 11G31G14G 3G23G29G25G15G17G18G 9G21
  22752273.763    -8051162.87749  -6254663.16246  22752272.500    22752281.798
       226.000         172.000
  20243171.999   -12569147.02149  -9779552.30347  20243171.244    20243175.628
       239.000         212.000
  22649549.122     2660069.26549   2087503.92346  22649549.093    22649557.029
       226.000         173.000
  23926657.799    10491701.73749   8172329.69745  23926657.470    23926664.549
       217.000         150.000
  20500659.910   -15563331.89249 -12101062.49947  20500659.479    20500665.018
       241.000         208.000
  24069794.607    -8105758.38849  -6304329.82545  24069794.518    24069803.613
       211.000         146.000
  22477400.315    12546660.33149   9782041.86346  22477398.941    22477406.751
       226.000         174.000
  23985145.210    17267634.17049  13454100.98245  23985144.790    23985156.416
       207.000         146.000
  22752936.346     9368521.55449   7305122.15546  22752935.670    22752942.050
       225.000         173.000
  24000205.474      446903.89049    356535.78944  24000206.183    24000212.325
       201.000         120.000
  21091684.151    -3828429.06249  -2958274.45447  21091683.282    21091689.738
       242.000         206.000
 01  6 20 22 17  0.0000000  0 11G31G14G 3G23G29G25G15G17G18G 9G21
  22755625.857    -8033547.97049  -6240937.32046  22755623.879    22755632.778
       224.000         171.000
  20241372.936   -12578601.12549  -9786919.12847  20241372.190    20241376.657
       239.000         212.000
  22662274.888     2726943.06849   2139613.27746  22662275.283    22662283.749
       226.000         173.000
  23937863.429    10550587.69949   8218214.79845  23937862.932    23937870.361
       215.000         152.000
  20495081.223   -15592647.96749 -12123906.16147  20495080.581    20495086.270
       241.000         209.000
  24050924.371    -8204923.34849  -6381600.91245  24050921.563    24050934.386
       212.000         144.000
  22494403.922    12636014.58449   9851668.46246  22494403.618    22494410.648
       225.000         174.000
  24004842.614    17371140.90649  13534755.38345  24004843.403    24004852.138
       208.000         146.000
  22764741.120     9430555.83349   7353460.50546  22764740.508    22764746.224
       224.000         172.000
  24012035.623      509072.21649    404978.54844  24012033.775    24012042.632
       205.000         121.000
  21092266.248    -3825369.96549  -2955890.74547  21092265.209    21092271.513
       241.000         206.000
 01  6 20 22 17 30.0000000  0 11G31G14G 3G23G29G25G15G17G18G 9G21
  22759077.736    -8015407.90049  -6226802.25246  22759077.309    22759084.579
       224.000         171.000
  20239667.754   -12587561.84949  -9793901.50347  20239666.940    20239671.540
       238.000         212.000
  22675060.216     2794130.66249   2191967.14746  22675059.783    22675069.158
       225.000         173.000
  23949077.502    10609518.46149   8264134.85245  23949077.569    23949085.243
       218.000         157.000
  20489586.174   -15621524.40549 -12146407.24847  20489585.565    20489591.529
       242.000         209.000
  24032054.786    -8304081.74449  -6458866.91445  24032052.716    24032064.232
       208.000         143.000
  22511465.226    12725671.66949   9921531.05146  22511464.178    22511473.297
       226.000         174.000
  24024579.898    17474861.58849  13615576.56645  24024576.882    24024589.213
       202.000         142.000
  22776563.319     9492681.64149   7401870.17646  22776562.224    22776567.905
       225.000         170.000
  24023959.662      571732.95749    453805.07544  24023960.208    24023967.632
       210.000         131.000
  21092874.755    -3822172.11549  -2953398.92047  21092874.057    21092880.203
       242.000         205.000
 01  6 20 22 18  0.0000000  0 11G31G14G 3G23G29G25G15G17G18G 9G21
  22762629.256    -7996744.96949  -6212259.77646  22762628.680    22762637.823
       224.000         171.000
  20238056.148   -12596030.77749  -9800500.65347  20238055.406    20238060.043
       239.000         212.000
  22687904.721     2861628.47049   2244562.72846  22687904.301    22687913.172
       225.000         172.000
  23960300.367    10668493.55549   8310089.41145  23960299.940    23960308.365
       218.000         158.000
  20484174.614   -15649962.37049 -12168566.67247  20484174.191    20484179.717
       242.000         209.000
  24013186.104    -8403231.94249  -6536126.55645  24013185.068    24013195.246
       211.000         144.000
  22528583.594    12815628.99949   9991627.58346  22528582.447    22528590.688
       225.000         173.000
  24044357.367    17578793.89849  13696562.64645  24044357.937    24044367.313
       205.000         140.000
  22788402.694     9554897.91649   7450350.34146  22788401.868    22788408.216
       226.000         169.000
  24035977.043      634883.15549    503012.97545  24035977.059    24035985.910
       210.000         137.000
  21093509.532    -3818836.29949  -2950799.58547  21093508.778    21093515.311
       242.000         205.000
 01  6 20 22 18 30.0000000  0 11G31G14G 3G23G29G25G15G17G18G 9G21
  22766279.793    -7977560.34449  -6197310.77846  22766278.683    22766287.538
       224.000         170.000
  20236538.024   -12604008.33449  -9806716.91647  20236537.227    20236541.848
       239.000         212.000
  22700807.662     2929433.81149   2297397.96046  22700807.038    22700816.360
       224.000         172.000
  23971531.459    10727513.54749   8356078.94245  23971530.555    23971538.400
       216.000         154.000
  20478846.470   -15677961.71149 -12190384.31047  20478845.890    20478851.560
       242.000         209.000
  23994320.595    -8502370.89349  -6613377.43445  23994320.388    23994330.979
       215.000         147.000
  22545758.855    12905885.57149  10061957.29046  22545757.527    22545767.033
       226.000         173.000
  24064175.360    17682936.41949  13777712.48945  24064175.628    24064185.736
       199.000         138.000
  22800259.380     9617204.99849   7498901.26446  22800258.360    22800264.548
       225.000         170.000
  24048086.923      698521.08549    552600.93345  24048084.777    24048093.884
       206.000         137.000
  21094170.703    -3815361.83349  -2948092.20647  21094169.880    21094176.176
       242.000         206.000
 01  6 20 22 19  0.0000000  0 11G31G14G 3G23G29G25G15G17G18G 9G21
  22770029.748    -7957855.17449  -6181956.16246  22770030.016    22770037.454
       225.000         171.000
  20235113.326   -12611495.33749  -9812550.93147  20235112.673    20235116.938
       239.000         212.000
  22713768.500     2997544.11249   2350470.81046  22713768.325    22713777.081
       224.000         171.000
  23982771.188    10786578.95149   8402103.83045  23982771.483    23982777.961
       216.000         152.000
  20473601.740   -15705522.72349 -12211860.38847  20473601.201    20473607.209
       242.000         209.000
  23975457.876    -8601496.09149  -6690617.59645  23975456.817    23975467.111
       212.000         148.000
  22562990.850    12996440.04949  10132519.14146  22562990.437    22562998.040
       226.000         173.000
  24084032.627    17787287.56649  13859024.91845  24084031.692    24084042.536
       197.000         136.000
  22812133.403     9679603.04349   7547523.07246  22812132.629    22812139.881
       227.000         171.000
  24060289.163      762645.15849    602567.67945  24060288.609    24060297.880
       204.000         136.000
  21094858.441    -3811747.79849  -2945276.07247  21094857.694    21094863.825
       242.000         205.000
 01  6 20 22 19 30.0000000  0 11G31G14G 3G23G29G25G15G17G18G 9G21
  22773878.098    -7937631.95849  -6166197.88146  22773877.643    22773885.231
       224.000         170.000
  20233781.654   -12618493.44549  -9818003.98547  20233780.755    20233785.622
       240.000         212.000
  22726787.071     3065955.55849   2403778.30946  22726787.982    22726796.344
       224.000         171.000
  23994019.613    10845689.26149   8448163.76345  23994018.647    23994027.263
       215.000         154.000
  20468440.206   -15732646.63349 -12232995.87747  20468439.854    20468445.326
       242.000         209.000
  23956597.589    -8700605.72949  -6767845.65045  23956596.154    23956606.718
       212.000         149.000
  22580279.203    13087290.03249  10203311.24646  22580278.958    22580286.380
       226.000         173.000
  24103929.335    17891844.75049  13940497.88845  24103928.408    24103938.407
       198.000         135.000
  22824024.633     9742091.24849   7596215.13446  22824024.766    22824029.268
       226.000         172.000
  24072583.445      827252.60849    652911.08245  24072583.068    24072591.189
       204.000         136.000
  21095572.661    -3807994.64949  -2942351.54247  21095571.530    21095578.266
       242.000         205.000
 01  6 20 22 20  0.0000000  0 11G31G14G 3G23G29G25G15G17G18G 9G21
  22777825.147    -7916891.02449  -6150036.16746  22777824.440    22777833.203
       225.000         171.000
  20232543.006   -12625002.57549  -9823076.01748  20232541.953    20232546.817
       239.000         213.000
  22739862.271     3134665.96749   2457318.78846  22739862.231    22739871.394
       224.000         170.000
  24005276.708    10904845.78049   8494259.68445  24005276.363    24005284.267
       215.000         155.000
  20463362.006   -15759332.72449 -12253790.20347  20463361.520    20463367.386
       242.000         209.000
  23937740.927    -8799696.06549  -6845058.66045  23937739.358    23937749.989
       214.000         150.000
  22597623.774    13178435.26049  10274333.41346  22597623.091    22597631.531
       225.000         173.000
  24123865.070    17996607.31649  14022130.88645  24123866.765    24123874.045
       201.000         134.000
  22835933.177     9804670.43749   7644978.08146  22835933.362    22835938.385
       226.000         171.000
  24084969.649      892342.25649    703630.22445  24084970.042    24084976.591
       204.000         136.000
  21096313.569    -3804101.00149  -2939317.53647  21096312.857    21096319.081
       242.000         205.000
 01  6 20 22 20 30.0000000  0 11G31G14G 3G23G29G25G15G17G18G 9G21
  22781870.193    -7895634.47849  -6133472.69846  22781869.780    22781877.738
       226.000         171.000
  20231397.107   -12631024.19649  -9827768.17648  20231396.356    20231401.024
       239.000         213.000
  22752993.594     3203671.97949   2511089.57846  22752992.901    22753003.288
       224.000         170.000
  24016542.704    10964048.33249   8540391.47745  24016542.594    24016549.916
       217.000         156.000
  20458366.889   -15785582.13449 -12274244.26347  20458366.168    20458372.154
       243.000         209.000
  23918888.407    -8898765.18149  -6922255.16245  23918887.449    23918897.943
       215.000         151.000
  22615023.846    13269873.41349  10345583.82946  22615022.865    22615030.976
       225.000         172.000
  24143839.550    18101572.77749  14103921.98245  24143838.578    24143848.170
       199.000         132.000
  22847858.797     9867339.99649   7693811.46346  22847858.117    22847863.436
       225.000         171.000
  24097447.224      957911.35049    754722.97245  24097447.164    24097456.118
       204.000         137.000
  21097081.122    -3800067.55549  -2936174.59647  21097080.145    21097086.536
       242.000         205.000
 01  6 20 22 21  0.0000000  0 11G31G14G 3G23G29G25G15G17G18G 9G21
  22786013.093    -7873863.75849  -6116508.54846  22786012.822    22786020.773
       225.000         171.000
  20230343.857   -12636559.06649  -9832081.04548  20230343.065    20230347.652
       239.000         213.000
  22766180.876     3272970.78349   2565088.52746  22766181.910    22766189.499
       224.000         170.000
  24027817.512    11023297.40649   8586559.55345  24027817.008    24027825.807
       215.000         155.000
  20453454.839   -15811394.99749 -12294358.15347  20453454.458    20453459.911
       241.000         209.000
  23900041.022    -8997810.36749  -6999432.97545  23900039.437    23900051.154
       215.000         151.000
  22632479.559    13361603.28749  10417061.56846  22632479.391    22632487.779
       225.000         172.000
  24163851.936    18206739.59449  14185870.03544  24163850.624    24163863.350
       200.000         131.000
  22859801.585     9930099.97549   7742715.30146  22859801.039    22859807.250
       225.000         170.000
  24110015.560     1023958.12749    806187.94345  24110016.143    24110023.037
       207.000         139.000
  21097875.406    -3795893.33949  -2932921.96047  21097874.865    21097881.016
       242.000         205.000
 01  6 20 22 21 30.0000000  0 11G31G14G 3G23G29G25G15G17G18G 9G21
  22790253.658    -7851580.27649  -6099144.86846  22790251.977    22790260.983
       225.000         172.000
  20229383.063   -12641608.00049  -9836015.27148  20229382.350    20229387.149
       240.000         213.000
  22779423.299     3342559.49249   2619313.37446  22779422.574    22779433.259
       224.000         170.000
  24039101.217    11082593.37949   8632764.10845  24039100.567    24039107.829
       216.000         153.000
  20448625.815   -15836771.65749 -12314132.14547  20448625.101    20448631.021
       242.000         209.000
  23881198.018    -9096828.87849  -7076590.07345  23881196.851    23881207.937
       215.000         152.000
  22649990.333    13453623.27349  10488765.37446  22649989.788    22649997.804
       224.000         172.000
  24183903.006    18312106.27849  14267973.74845  24183904.221    24183914.024
       204.000         134.000
  22871761.629     9992950.44149   7791689.65446  22871760.540    22871766.773
       226.000         170.000
  24122674.708     1090480.69049    858023.63245  24122674.130    24122682.777
       204.000         139.000
  21098696.701    -3791577.67549  -2929559.10347  21098695.667    21098702.246
       242.000         205.000
 01  6 20 22 22  0.0000000  0 11G31G14G 3G23G29G25G15G17G18G 9G21
  22794591.288    -7828785.78049  -6081382.98946  22794590.603    22794598.349
       224.000         172.000
  20228514.548   -12646171.99849  -9839571.61848  20228513.761    20228518.550
       240.000         213.000
  22792720.305     3412435.34849   2673761.96746  22792720.738    22792729.215
       223.000         169.000
  24050393.934    11141936.42949   8679005.33845  24050393.089    24050400.963
       214.000         153.000
  20443879.712   -15861712.38449 -12333566.44447  20443879.477    20443884.813
       243.000         209.000
  23862360.872    -9195818.13249  -7153724.32245  23862359.872    23862370.384
       214.000         152.000
  22667556.191    13545932.02649  10560694.16846  22667555.978    22667563.749
       224.000         172.000
  24203991.404    18417670.92249  14350231.75045  24203989.986    24204001.759
       201.000         133.000
  22883738.941    10055891.41149   7840734.51946  22883738.058    22883744.518
       225.000         169.000
  24135423.704     1157476.84149    910228.35245  24135422.774    24135431.451
       200.000         136.000
  21099544.662    -3787121.07849  -2926086.43347  21099543.780    21099550.074
       242.000         205.000
 01  6 20 22 22 30.0000000  0 11G31G14G 3G23G29G25G15G17G18G 9G21
  22799026.041    -7805480.99849  -6063223.47246  22799025.973    22799034.019
       225.000         171.000
  20227738.275   -12650251.07149  -9842750.10748  20227737.479    20227742.021
       239.000         213.000
  22806071.444     3482596.22949   2728432.67646  22806071.635    22806081.088
       221.000         169.000
  24061695.737    11201327.85049   8725284.33845  24061695.235    24061704.021
       214.000         156.000
  20439216.579   -15886217.21849 -12352661.09047  20439215.845    20439221.891
       241.000         209.000
  23843529.964    -9294774.65449  -7230833.09645  23843528.259    23843539.890
       215.000         153.000
  22685176.871    13638528.76749  10632847.37946  22685176.009    22685184.190
       223.000         171.000
  24224117.194    18523432.71549  14432643.36445  24224116.223    24224126.991
       202.000         133.000
  22895733.544    10118923.70549   7889850.54846  22895732.304    22895738.705
       225.000         168.000
  24148262.404     1224945.37649    962801.18245  24148262.766    24148270.268
       197.000         133.000
  21100420.014    -3782521.33549  -2922502.22147  21100419.144    21100425.544
       242.000         205.000
 01  6 20 22 23  0.0000000  0 11G31G14G 3G23G29G25G15G17G18G 9G21
  22803557.606    -7781668.25549  -6044668.15746  22803556.646    22803565.180
       225.000         171.000
  20227053.942   -12653847.27549  -9845552.33748  20227053.083    20227057.832
       239.000         213.000
  22819476.041     3553038.47449   2783322.63146  22819476.165    22819486.141
       222.000         168.000
  24073006.781    11260767.26149   8771600.71845  24073005.505    24073014.843
       212.000         156.000
  20434636.215   -15910286.92849 -12371416.67947  20434635.886    20434641.422
       242.000         209.000
  23824705.644    -9393696.27149  -7307914.65645  23824704.350    23824715.026
       216.000         153.000
  22702851.801    13731411.27349  10705223.26246  22702850.783    22702859.636
       221.000         170.000
  24244279.978    18629389.06249  14515206.62145  24244281.343    24244289.913
       207.000         133.000
  22907745.352    10182046.31349   7939036.95846  22907745.078    22907751.140
       224.000         168.000
  24161190.686     1292883.47148   1015739.90044  24161190.386    24161198.419
       194.000         130.000
  21101322.389    -3777779.40649  -2918807.21447  21101321.579    21101327.965
       242.000         205.000
 01  6 20 22 23 30.0000000  0 11G31G14G 3G23G29G25G15G17G18G 9G21
  22808185.298    -7757349.07949  -6025718.20046  22808185.532    22808193.521
       225.000         171.000
  20226461.367   -12656961.11749  -9847978.69748  20226460.573    20226465.347
       239.000         213.000
  22832933.857     3623758.98349   2838429.39746  22832933.579    22832944.046
       222.000         168.000
  24084326.931    11320255.13649   8817954.83445  24084325.728    24084334.035
       209.000         153.000
  20430138.538   -15933922.05449 -12389833.62947  20430138.040    20430143.634
       241.000         209.000
  23805888.084    -9492581.04549  -7384967.54845  23805887.067    23805897.325
       212.000         153.000
  22720580.824    13824578.02649  10777820.63646  22720581.079    22720588.776
       223.000         169.000
  24264480.130    18735538.34349  14597920.19645  24264480.160    24264489.821
       206.000         133.000
  22919774.435    10245259.47049   7988293.92246  22919774.490    22919779.788
       225.000         168.000
  24174207.894     1361288.97348   1069042.82744  24174208.124    24174216.047
       194.000         127.000
  21102251.937    -3772894.42749  -2915000.73847  21102251.235    21102257.486
       242.000         205.000
 01  6 20 22 24  0.0000000  0 11G31G14G 3G23G29G25G15G17G18G 9G21
  22812909.227    -7732525.36949  -6006375.09646  22812908.732    22812917.419
       224.000         171.000
  20225960.373   -12659593.70649  -9850030.05248  20225959.679    20225964.303
       239.000         213.000
  22846444.082     3694754.83749   2893750.73046  22846444.116    22846454.080
       222.000         167.000
  24095656.292    11379791.78249   8864346.95745  24095655.215    24095664.820
       212.000         152.000
  20425723.522   -15957122.98449 -12407912.24747  20425723.206    20425728.819
       242.000         210.000
  23787078.346    -9591425.65049  -7461989.12845  23787076.440    23787088.069
       214.000         152.000
  22738363.845    13918027.48249  10850638.31346  22738362.699    22738372.121
       222.000         169.000
  24284715.860    18841878.83549  14680782.78745  24284715.102    24284725.276
       206.000         133.000
  22931820.775    10308563.10149   8037621.38746  22931821.081    22931826.415
       227.000         169.000
  24187313.506     1430159.70748   1122708.30644  24187310.224    24187321.038
       191.000         121.000
  21103208.907    -3767865.57349  -2911082.14747  21103207.873    21103214.649
       242.000         205.000
 01  6 20 22 24 30.0000000  0 11G31G14G 3G23G29G25G15G17G18G 9G21
  22817728.814    -7707198.03649  -5986639.57346  22817727.386    22817736.818
       224.000         170.000
  20225550.886   -12661745.48949  -9851706.75348  20225550.163    20225554.871
       239.000         213.000
  22860006.312     3766023.75949   2949284.81546  22860006.367    22860016.030
       223.000         168.000
  24106995.349    11439377.89649   8910777.60045  24106995.494    24107003.564
       210.000         151.000
  20421391.167   -15979889.71349 -12425652.52547  20421390.426    20421396.323
       242.000         210.000
  23768276.864    -9690227.12649  -7538977.13145  23768275.705    23768286.495
       212.000         152.000
  22756200.305    14011758.56449  10923675.43146  22756199.361    22756208.316
       220.000         169.000
  24304988.050    18948409.23249  14763793.35945  24304989.376    24304999.552
       208.000         134.000
  22943884.500    10371957.83649   8087019.83046  22943883.260    22943890.213
       224.000         169.000
  24200507.269     1499493.86749   1176734.89944  24200504.629    24200513.908
       195.000         118.000
  21104193.200    -3762692.85049  -2907051.45847  21104192.332    21104198.903
       241.000         205.000
 01  6 20 22 25  0.0000000  0 11G31G14G 3G23G29G25G15G17G18G 9G21
  22822643.887    -7681369.20449  -5966513.27246  22822642.633    22822651.980
       223.000         169.000
  20225232.588   -12663418.21949  -9853010.16948  20225231.933    20225236.502
       240.000         213.000
  22873619.706     3837562.25849   3005028.98546  22873619.583    22873628.678
       221.000         167.000
  24118343.729    11499013.56949   8957246.87245  24118343.808    24118351.705
       210.000         151.000
  20417141.131   -16002223.42749 -12443055.39447  20417140.748    20417146.336
       242.000         209.000
  23749483.686    -9788983.28449  -7615929.81645  23749483.155    23749493.150
       215.000         152.000
  22774090.076    14105769.35549  10996930.50546  22774089.836    22774097.584
       222.000         168.000
  24325296.429    19055127.23249  14846950.02745  24325296.508    24325307.404
       205.000         133.000
  22955965.389    10435443.06949   8136488.80446  22955963.937    22955969.687
       223.000         167.000
  24213788.907     1569289.21948   1231120.85544  24213790.532    24213796.771
       194.000         118.000
  21105204.986    -3757375.90349  -2902908.39447  21105204.191    21105210.709
       242.000         205.000
 01  6 20 22 25 30.0000000  0 10G31G14G 3G23G29G25G15G18G 9G21
  22827654.145    -7655040.41149  -5945997.38946  22827653.394    22827662.109
       223.000         170.000
  20225005.332   -12664612.51049  -9853940.77348  20225004.391    20225009.363
       239.000         213.000
  22887283.793     3909367.71549   3060981.17546  22887284.153    22887292.430
       222.000         167.000
  24129701.689    11558699.57149   9003755.36445  24129700.666    24129709.557
       207.000         150.000
  20412973.584   -16024124.09149 -12460120.81847  20412973.183    20412978.900
       242.000         210.000
  23730700.352    -9887691.03649  -7692844.77845  23730700.018    23730709.821
       218.000         154.000
  22792032.576    14200058.51549  11070402.50846  22792031.695    22792039.850
       222.000         168.000
  22968063.512    10499019.09449   8186028.51946  22968063.171    22968069.002
       223.000         166.000
  24227157.779     1639543.83748   1285864.66744  24227154.740    24227163.106
       189.000         117.000
  21106244.372    -3751913.75949  -2898652.18847  21106243.602    21106250.114
       242.000         205.000
 01  6 20 22 26  0.0000000  0 10G31G14G 3G23G29G25G15G18G 9G21
  22832759.012    -7628213.92749  -5925093.70446  22832758.410    22832767.224
       224.000         171.000
  20224868.826   -12665329.68149  -9854499.60348  20224868.015    20224872.694
       240.000         213.000
  22900998.310     3981436.81649   3117138.77846  22900998.159    22901008.554
       224.000         167.000
  24141069.145    11618435.88149   9050303.09545  24141067.747    24141077.547
       207.000         148.000
  20408888.193   -16045592.69749 -12476849.57547  20408887.611    20408893.287
       243.000         210.000
  23711926.657    -9986348.24349  -7769720.36045  23711925.845    23711936.391
       217.000         155.000
  22810027.902    14294624.06549  11144089.85546  22810026.977    22810035.525
       222.000         168.000
  22980178.770    10562685.58649   8235638.73046  22980177.214    22980183.648
       223.000         165.000
  24240613.886     1710255.00848   1340964.29544  24240614.402    24240623.041
       191.000         112.000
  21107311.442    -3746306.39449  -2894282.81547  21107310.473    21107317.161
       242.000         205.000
 01  6 20 22 26 30.0000000  0 10G31G14G 3G23G29G25G15G18G 9G21
  22837958.300    -7600891.72249  -5903803.74446  22837957.591    22837966.006
       225.000         171.000
  20224822.899   -12665571.15949  -9854687.75748  20224822.057    20224826.770
       239.000         213.000
  22914762.397     4053766.45349   3173499.41846  22914762.680    22914771.523
       222.000         167.000
  24152446.155    11678222.61749   9096890.06345  24152444.810    24152452.997
       205.000         145.000
  20404884.851   -16066630.17249 -12493242.38547  20404884.392    20404890.107
       242.000         210.000
  23693162.748   -10084952.51649  -7846554.67845  23693160.756    23693171.644
       217.000         155.000
  22828075.552    14389464.24149  11217991.19846  22828074.483    22828082.806
       221.000         167.000
  22992311.111    10626442.31649   8285319.24146  22992310.834    22992317.964
       222.000         165.000
  24254156.589     1781420.28748   1396417.69344                  24254155.188
       190.000         110.000
  21108406.171    -3740553.42549  -2889799.98947  21108405.525    21108411.599
       242.000         205.000
 01  6 20 22 27  0.0000000  0 11G31G14G 3G23G29G25G15G18G 9G11G21
  22843251.532    -7573075.81349  -5882129.09446  22843251.746    22843259.429
       224.000         171.000
  20224867.205   -12665338.23649  -9854506.26448  20224866.276    20224871.190
       240.000         213.000
  22928575.380     4126353.26449   3230060.43546  22928574.328    22928584.431
       223.000         166.000
  24163832.582    11738059.73449   9143516.32345  24163831.468    24163840.911
       206.000         144.000
  20400963.473   -16087237.12849 -12509299.72947  20400963.137    20400968.705
       243.000         210.000
  23674409.039   -10183501.67549  -7923346.08245  23674408.078    23674419.425
       216.000         155.000
  22846174.909    14484577.08649  11292105.01446  22846173.763    22846183.425
       221.000         167.000
  23004460.765    10690288.92749   8335069.79246  23004460.224    23004466.926
       223.000         166.000
  24267784.970     1853037.24148   1452222.95744  24267785.522    24267794.179
       187.000         113.000
  24708567.945    -4595080.23559  -3554012.11545  24708568.004    24708575.734
       211.000         135.000
  21109528.683    -3734654.95049  -2885203.77747  21109528.128    21109534.271
       242.000         204.000
 01  6 20 22 27 30.0000000  0 11G31G14G 3G23G29G25G15G18G 9G11G21
  22848638.600    -7544767.18849  -5860070.49246  22848637.607    22848646.271
       224.000         171.000
  20225001.664   -12664631.55549  -9853955.59248  20225000.853    20225005.564
       239.000         213.000
  22942436.596     4199194.85949   3286819.99546  22942435.952    22942446.440
       223.000         166.000
  24175229.045    11797948.30449   9190182.65245  24175228.288    24175237.686
       201.000         144.000
  20397124.022   -16107413.64749 -12525021.66747  20397123.515    20397129.035
       242.000         210.000
  23655666.785   -10281992.16749  -8000091.75945  23655665.923    23655676.465
       216.000         154.000
  22864326.013    14579961.62949  11366430.55146  22864325.897    22864334.284
       221.000         167.000
  23016627.792    10754226.16749   8384890.98246  23016627.540    23016634.253
       223.000         165.000
  24281499.082     1925104.22948   1508378.96944  24281498.508    24281505.238
       180.000         113.000
  24689172.703    -4697003.70049  -3633432.90845  24689172.841    24689180.841
       211.000         138.000
  21110679.055    -3728609.60549  -2880493.12947  21110678.222    21110684.690
       241.000         204.000
 01  6 20 22 28  0.0000000  0 11G31G14G 3G23G29G25G15G18G 9G11G21
  22854119.016    -7515967.08949  -5837628.93746  22854118.563    22854126.783
       224.000         171.000
  20225226.225   -12663451.40849  -9853035.98048  20225225.488    20225230.259
       239.000         213.000
  22956346.168     4272288.84749   3343776.20646  22956345.453    22956354.468
       223.000         165.000
  24186635.103    11857889.27449   9236889.86745  24186633.022    24186644.109
       207.000         142.000
  20393366.420   -16127159.74449 -12540408.20947  20393365.947    20393371.727
       242.000         210.000
  23636936.376   -10380420.81949  -8076789.24945  23636935.820    23636945.845
       217.000         155.000
  22882528.625    14675616.89549  11440967.03546  22882527.946    22882536.382
       222.000         166.000
  23028812.119    10818254.65449   8434783.27246  23028811.406    23028817.756
       225.000         166.000
  24295298.019     1997619.80458   1564884.65344  24295298.615
       184.000         110.000
  24669790.637    -4798858.65349  -3712800.30945  24669791.289    24669798.967
       211.000         138.000
  21111857.688    -3722415.89949  -2875666.87447  21111857.006    21111863.199
       242.000         204.000
 01  6 20 22 28 30.0000000  0 11G31G14G 3G23G29G25G15G18G 9G11G21
  22859692.798    -7486677.32149  -5814805.82946  22859692.994    22859701.364
       223.000         170.000
  20225540.670   -12661799.11049  -9851748.46348  20225539.730    20225544.682
       239.000         213.000
  22970303.052     4345632.17949   3400926.71346  22970302.560    22970311.921
       222.000         166.000
  24198051.906    11917883.11349   9283638.19845  24198052.087    24198059.622
       208.000         144.000
  20389690.652   -16146475.93549 -12555459.76647  20389690.281    20389695.897
       242.000         210.000
  23618218.416   -10478784.72949  -8153436.27245  23618217.828    23618227.538
       216.000         156.000
  22900782.543    14771541.16349  11515713.11746  22900782.668    22900790.856
       223.000         166.000
  23041013.803    10882374.37549   8484746.61746  23041012.749    23041019.258
       224.000         165.000
  24309182.380     2070581.64148   1621737.96244  24309183.742    24309189.755
       188.000         111.000
  24650422.019    -4900643.08349  -3792112.75845  24650421.878    24650429.711
       212.000         139.000
  21113064.570    -3716073.86149  -2870725.03647  21113063.850    21113070.000
       242.000         204.000
 01  6 20 22 29  0.0000000  0 11G31G14G 3G23G29G25G15G18G 9G11G21
  22865359.141    -7456900.54149  -5791603.22846  22865358.951    22865366.660
       224.000         170.000
  20225944.563   -12659676.36949  -9850094.36548  20225943.970    20225948.487
       239.000         213.000
  22984306.638     4419221.34249   3458268.79346  22984306.406    22984316.528
       223.000         165.000
  24209478.322    11977929.47349   9330427.51045  24209476.188    24209485.769
       200.000         143.000
  20386096.480   -16165363.46549 -12570177.29247  20386096.129    20386101.681
       242.000         210.000
  23599513.115   -10577082.02149  -8230031.39145  23599512.158    23599521.494
       218.000         157.000
  22919087.249    14867732.19449  11590667.07446  22919086.347    22919095.546
       220.000         166.000
  23053232.673    10946584.68749   8534780.58145  23053231.000    23053237.095
       220.000         162.000
  24323150.959     2143986.54048   1678936.45144  24323149.484
       181.000         104.000
  24631066.972    -5002355.46149  -3871369.04545  24631066.168    24631074.473
       213.000         140.000
  21114299.485    -3709584.22849  -2865668.18747  21114298.695    21114305.038
       241.000         204.000
 01  6 20 22 29 30.0000000  0 11G31G14G 3G23G29G25G15G18G 9G11G21
  22871118.084    -7426637.64649  -5768021.81846  22871117.515    22871126.691
       222.000         169.000
  20226438.000   -12657083.44849  -9848073.89048  20226437.219    20226441.677
       239.000         213.000
  22998356.818     4493054.19349   3515800.74446  22998356.749    22998366.182
       222.000         165.000
  24220914.847    12038029.74449   9377258.83645  24220915.669    24220923.643
       206.000         144.000
  20382583.902   -16183822.02349 -12584560.55747  20382583.341    20382589.315
       242.000         210.000
  23580821.016   -10675309.16349  -8306571.85245  23580820.728    23580830.310
       219.000         158.000
  22937442.378    14964189.19649  11665828.28246  22937441.620    22937451.141
       220.000         166.000
  23065468.710    11010886.55749   8584885.88045  23065467.359    23065474.641
       221.000         161.000
                   2217833.04458   1736479.11844
       184.000         103.000
  24611726.325    -5103992.71849  -3950566.80945  24611724.757    24611733.783
       213.000         141.000
  21115562.995    -3702944.69149  -2860494.52747  21115562.260    21115568.341
       241.000         204.000
 01  6 20 22 30  0.0000000  0 11G31G14G 3G23G29G25G15G18G 9G11G21
  22876968.821    -7395890.77349  -5744063.29846  22876968.834    22876976.577
       223.000         169.000
  20227020.561   -12654021.89449  -9845688.25048  20227019.806    20227024.366
       240.000         213.000
  23012452.434     4567127.28049   3573519.91746  23012452.301    23012462.815
       222.000         165.000
  24232362.181    12098183.84849   9424132.03845  24232360.576    24232369.698
       204.000         143.000
  20379152.739   -16201852.72849 -12598610.42947  20379152.336    20379158.077
       242.000         210.000
  23562142.666   -10773463.93449  -8383055.92445  23562142.098    23562151.304
       218.000         158.000
  22955847.828    15060910.10749  11741195.12746  22955846.898    22955856.683
       221.000         166.000
  23077722.371    11075279.64349   8635062.26545  23077721.166    23077728.396
       220.000         162.000
  24351339.368     2292118.99749   1794364.31144  24351337.920    24351348.351
       199.000         115.000
  24592400.305    -5205553.09349  -4029704.65845  24592397.857    24592408.190
       211.000         140.000
  21116854.995    -3696155.22549  -2855204.03747  21116854.216    21116860.436
       241.000         204.000
 01  6 20 22 30 30.0000000  0 11G31G14G 3G23G29G25G15G18G 9G11G21
  22882911.571    -7364662.45649  -5719729.63646  22882912.190    22882919.729
       224.000         169.000
  20227691.972   -12650493.50749  -9842938.84648  20227691.161    20227696.026
       239.000         213.000
  23026593.287     4641437.20749   3631423.60846  23026593.481    23026603.253
       223.000         165.000
  24243819.346    12158391.51549   9471047.05945  24243819.993    24243828.301
       211.000         143.000
  20375802.793   -16219456.83149 -12612327.88547  20375802.306    20375808.018
       242.000         210.000
  23543478.509   -10871544.28449  -8459482.00545  23543477.020    23543486.944
       217.000         159.000
  22974303.150    15157892.71149  11816765.89246  22974302.781    22974310.639
       221.000         166.000
  23089993.307    11139763.35249   8685309.25945  23089991.821    23089999.401
       221.000         162.000
  24365558.876     2366841.37949   1852589.46444  24365558.185    24365567.955
       203.000         121.000
  24573088.557    -5307035.24849  -4108781.54745  24573086.666    24573096.979
       209.000         140.000
  21118175.485    -3689215.91649  -2849796.79647  21118174.352    21118181.128
       241.000         204.000
 01  6 20 22 31  0.0000000  0 11G31G14G 3G23G29G25G15G18G 9G11G21
  22888945.652    -7332953.87449  -5695021.72446  22888944.643    22888954.948
       223.000         169.000
  20228452.111   -12646498.77249  -9839826.05848  20228451.345    20228455.977
       240.000         213.000
  23040778.909     4715981.60349   3689510.01046  23040778.461    23040788.142
       220.000         165.000
  24255287.359    12218653.93449   9518004.69045  24255286.155    24255295.263
       207.000         143.000
  20372534.001   -16236634.22549 -12625712.84847  20372533.519    20372539.215
       242.000         211.000
  23524828.922   -10969546.86349  -8535847.48145  23524828.280    23524837.819
       218.000         159.000
  22992808.010    15255136.23449  11892539.95146  22992807.920    22992816.086
       222.000         165.000
  23102281.731    11204338.50749   8735627.50045  23102281.513    23102285.799
       223.000         161.000
  24379860.739     2441998.16649   1911153.07744  24379859.724    24379867.769
       198.000         119.000
  24553791.841    -5408436.25949  -4187795.22245  24553789.745    24553800.406
       206.000         139.000
  21119524.712    -3682125.59549  -2844271.88447  21119524.078    21119530.209
       242.000         204.000
 01  6 20 22 31 30.0000000  0 11G31G14G 3G23G29G25G15G18G 9G11G21
  22895070.611    -7300767.12149  -5669941.22146  22895070.243    22895079.013
       222.000         169.000
  20229300.775   -12642038.88049  -9836350.81148  20229299.997    20229304.714
       240.000         213.000
  23055008.377     4790757.62749   3747776.91646  23055007.930    23055018.358
       222.000         165.000
  24266765.219    12278971.40049   9565005.26145  24266764.698    24266772.170
       209.000         140.000
  20369346.305   -16253385.64249 -12638765.88047  20369345.885    20369351.507
       243.000         211.000
  23506194.978   -11067468.88249  -8612150.15745  23506193.841    23506203.574
       218.000         158.000
  23011362.431    15352639.03349  11968516.05646  23011362.016    23011370.910
       221.000         164.000
  23114587.546    11269005.21249   8786017.07445  23114586.315    23114592.983
       219.000         161.000
  24394244.644     2517587.32948   1970053.61644  24394244.396    24394251.337
       192.000         115.000
  24534511.078    -5509753.91249  -4266743.95245  24534509.403    24534519.242
       207.000         140.000
  21120902.840    -3674883.71849  -2838628.87747  21120902.164    21120908.408
       242.000         204.000
 01  6 20 22 32  0.0000000  0 11G31G14G 3G23G29G25G15G18G 9G11G21
  22901286.184    -7268104.70349  -5644490.08146  22901286.140    22901294.347
       223.000         169.000
  20230237.619   -12637115.64449  -9832514.52048  20230236.908    20230241.640
       240.000         213.000
  23069281.209     4865761.68649   3806221.49846  23069280.989    23069290.352
       220.000         165.000
  24278253.752    12339343.93149   9612048.68245  24278253.075    24278262.680
       212.000         142.000
  20366239.437   -16269712.19949 -12651487.85547  20366239.016    20366244.717
       242.000         211.000
  23487576.846   -11165308.06149  -8688388.29945  23487575.170    23487584.956
       216.000         159.000
  23029965.537    15450398.91749  12044692.50746  23029963.748    23029973.545
       221.000         164.000
  23126910.376    11333762.88949   8836477.57945  23126908.954    23126915.608
       216.000         158.000
  24408710.488     2593606.14449   2029288.98044  24408709.862    24408720.945
       197.000         116.000
  24515246.648    -5610986.63949  -4345626.46645  24515243.750    24515257.334
       205.000         140.000
  21122309.754    -3667490.45049  -2832867.90347  21122308.790    21122315.440
       242.000         204.000
 01  6 20 22 32 30.0000000  0 11G31G14G 3G23G29G25G15G18G 9G11G21
  22907591.895    -7234967.99549  -5618669.35446  22907590.925    22907599.749
       223.000         169.000
  20231262.567   -12631729.50549  -9828317.52148  20231262.019    20231266.638
       239.000         213.000
  23083596.879     4940991.08949   3864841.66946  23083596.709    23083607.261
       221.000         164.000
  24289753.260    12399772.56549   9659135.86445  24289753.743    24289761.723
       210.000         143.000
  20363213.421   -16285614.01549 -12663878.85647  20363213.061    20363218.553
       242.000         211.000
  23468974.692   -11263060.93049  -8764559.20645  23468974.967    23468983.055
       219.000         160.000
  23048617.398    15548414.61649  12121068.27446  23048616.805    23048625.706
       220.000         163.000
  23139250.764    11398612.25349   8887009.50345  23139249.941    23139256.724
       220.000         159.000
  24423257.942     2670052.78848   2088857.71144  24423255.102    24423268.185
       190.000         115.000
  24495999.083    -5712131.72549  -4424440.71945  24495997.404    24496008.552
       206.000         140.000
  21123745.712    -3659944.36549  -2826987.84447  21123745.036    21123751.556
       241.000         204.000
 01  6 20 22 33  0.0000000  0 11G31G14G 3G23G29G25G15G18G 9G11G21
  22913987.538    -7201359.38149  -5592480.91746  22913987.447    22913995.835
       223.000         168.000
  20232375.225   -12625882.27549  -9823761.23648  20232374.519    20232379.083
       239.000         213.000
  23097954.935     5016442.43749   3923634.77246  23097954.099    23097964.390
       220.000         164.000
  24301263.025    12460256.99149   9706266.52645  24301261.637    24301270.597
       210.000         142.000
  20360267.933   -16301092.41649 -12675939.92647  20360267.330    20360273.067
       242.000         210.000
  23450389.702   -11360725.47449  -8840661.27145  23450389.243    23450398.363
       219.000         161.000
  23067317.629    15646684.00349  12197641.71646  23067318.338    23067325.512
       223.000         163.000
  23151608.568    11463552.56949   8937612.27645  23151607.266    23151614.237
       219.000         160.000
  24437886.028     2746924.34548   2148757.59744                  24437883.505
       183.000         110.000
  24476768.476    -5813187.70049  -4503185.50845  24476766.587    24476778.385
       203.000         139.000
  21125210.725    -3652245.61749  -2820988.82347  21125209.762    21125216.218
       241.000         204.000
 01  6 20 22 33 30.0000000  0 11G31G14G 3G23G29G25G15G18G 9G11G21
  22920472.618    -7167280.58149  -5565926.09146  22920471.598    22920480.852
       221.000         168.000
  20233575.465   -12619575.10849  -9818846.55348  20233574.948    20233579.465
       240.000         214.000
  23112354.759     5092113.25349   3982598.90746  23112354.450    23112364.606
       222.000         163.000
  24312783.567    12520798.14849   9753441.35045  24312783.530    24312792.441
       211.000         142.000
  20357402.971   -16316147.83849 -12687671.40347  20357402.484    20357408.030
       242.000         211.000
  23431821.971   -11458298.63849  -8916692.12745  23431820.668    23431830.373
       217.000         160.000
  23086065.792    15745205.62149  12274411.71445  23086063.491    23086073.842
       220.000         162.000
  23163983.720    11528584.21849   8988286.24745  23163983.298    23163989.046
       218.000         160.000
  24452594.719     2824218.89348   2208987.06544                  24452594.291
       183.000         105.000
  24457555.230    -5914152.09449  -4581858.93845  24457553.458    24457565.202
       203.000         139.000
  21126704.877    -3644393.74749  -2814870.49247  21126704.077    21126710.874
       241.000         204.000
 01  6 20 22 34  0.0000000  0 10G31G14G 3G23G29G25G15G18G11G21
  22927046.689    -7132733.41649  -5539006.31246  22927045.627    22927054.617
       220.000         167.000
  20234862.989   -12612809.15649  -9813574.37648  20234862.226    20234866.994
       240.000         214.000
  23126795.789     5168000.76949   4041731.87346  23126795.932    23126805.687
       221.000         163.000
  24324315.209    12581396.61949   9800660.83445  24324315.797    24324322.657
       212.000         142.000
  20354618.391   -16330780.79649 -12699073.68547  20354618.011    20354623.621
       242.000         211.000
  23413272.037   -11555777.58049  -8992649.59445  23413271.459    23413280.467
       218.000         161.000
  23104861.321    15843977.90049  12351377.03245  23104860.628    23104869.902
       217.000         161.000
  23176376.299    11593707.53749   9039031.63645  23176375.939    23176381.418
       218.000         160.000
  24438359.991    -6015022.40349  -4660459.06645  24438360.085    24438370.112
       203.000         139.000
  21128228.399    -3636387.42949  -2808631.81147  21128227.622    21128234.218
       241.000         204.000
 01  6 20 22 34 30.0000000  0 10G31G14G 3G23G29G25G15G18G11G21
  22933709.350    -7097720.00049  -5511723.20146  22933709.114    22933717.298
       221.000         167.000
  20236237.534   -12605585.51349  -9807945.55548  20236236.775    20236241.608
       240.000         214.000
  23141277.472     5244101.81849   4101031.25145  23141276.717    23141287.231
       220.000         162.000
  24335857.696    12642052.74049   9847925.30045  24335856.247    24335867.278
       206.000         141.000
  20351914.050   -16344991.98549 -12710147.31147  20351913.523    20351919.333
       242.000         211.000
  23394740.691   -11653159.71749  -9068531.60745  23394739.609    23394749.104
       218.000         160.000
  23123704.325    15942999.15549  12428536.33545  23123703.423    23123712.411
       216.000         160.000
  23188786.372    11658922.79849   9089848.65545  23188785.608    23188791.883
       219.000         159.000
  24419183.465    -6115796.41949  -4738984.15145  24419182.871    24419192.884
       204.000         139.000
  21129781.444    -3628226.17549  -2802272.39247  21129780.817    21129786.977
       241.000         203.000
 01  6 20 22 35  0.0000000  0 10G31G14G 3G23G29G25G15G18G11G21
  22940460.647    -7062243.00549  -5484078.88046  22940460.050    22940469.514
       222.000         167.000
  20237698.927   -12597905.96649  -9801961.48448  20237698.383    20237702.952
       240.000         214.000
  23155799.115     5320412.96849   4160494.34246  23155798.304    23155809.000
       220.000         163.000
  24347411.230    12702766.41049   9895234.60445  24347412.317    24347419.843
       212.000         143.000
  20349289.672   -16358782.80149 -12720893.38047  20349289.260    20349295.008
       242.000         211.000
  23376228.309   -11750442.54949  -9144336.26045  23376227.065    23376237.577
       216.000         159.000
  23142594.430    16042267.34949  12505888.05445  23142594.095    23142603.253
       218.000         161.000
  23201213.725    11724229.45549   9140736.89445  23201212.425    23201221.522
       220.000         160.000
  24400025.410    -6216472.74249  -4817433.09745  24400026.103    24400035.131
       206.000         139.000
  21131364.043    -3619909.65049  -2795791.98847  21131363.272    21131369.766
       241.000         204.000
